EK39 / A6-EUQ 7700 Squawk Report (16th of July, 2018)

Aircraft A388 Reg No. A6-EUQ Age 2 years old
Model A380 Jet engines 4 First flight 29-09-16
Registered 15-05-17 Rollout N/A Delivered 15-05-17
Construction No. 229 Line No. N/A Series 842
ADSHEX 89647B Airline name Emirates Airlines Owner N/A
Airfield based Dubai~ ~A6 First tracked N/A

Flight history for A6-EUQ

Time Lat Lon Altitude Heading Speed Vertical Rate
2018-07-16 11:11:46 GMT 52.453804 -1.742451 0 118 18 0
2018-07-16 11:11:27 GMT 52.454521 -1.744766 0 120 18 0
2018-07-16 11:11:08 GMT 52.455467 -1.746434 0 146 17 0
2018-07-16 11:10:50 GMT 52.456806 -1.747905 0 146 23 0
2018-07-16 11:10:39 GMT 52.457703 -1.748925 0 146 23 0
2018-07-16 11:10:36 GMT 52.458366 -1.749671 0 146 23 0
2018-07-16 11:10:08 GMT 52.460529 -1.752090 0 146 23 0
2018-07-16 11:09:54 GMT 52.461697 -1.753407 0 146 22 0
2018-07-16 11:09:43 GMT 52.462521 -1.754341 0 146 21 0
2018-07-16 11:09:28 GMT 52.463638 -1.755615 0 146 21 0
2018-07-16 11:09:02 GMT 52.465454 -1.757636 0 146 15 0
2018-07-16 11:08:47 GMT 52.466091 -1.758327 0 120 10 0
2018-07-16 11:08:25 GMT 52.466152 -1.759578 0 53 12 0
2018-07-16 11:08:20 GMT 52.465954 -1.760088 0 45 10 0
2018-07-16 11:08:05 GMT 52.465595 -1.760755 0 354 9 0
2018-07-16 11:07:55 GMT 52.465233 -1.760677 0 326 10 0
2018-07-16 11:07:47 GMT 52.464863 -1.760265 0 326 15 0
2018-07-16 11:07:34 GMT 52.463894 -1.759167 0 326 21 0
2018-07-16 11:07:16 GMT 52.462265 -1.757361 0 326 30 0
2018-07-16 11:07:01 GMT 52.459557 -1.754341 0 326 72 0
2018-07-16 11:06:38 GMT 52.450012 -1.743698 275 326 149 -256
2018-07-16 11:06:15 GMT 52.437103 -1.729431 550 326 146 -768
2018-07-16 11:06:05 GMT 52.431461 -1.723049 700 326 143 -896
2018-07-16 11:05:53 GMT 52.424709 -1.715437 1,025 326 146 -832
2018-07-16 11:05:44 GMT 52.419495 -1.709708 975 326 144 -896
2018-07-16 11:05:33 GMT 52.413574 -1.703186 1,125 326 145 -640
2018-07-16 11:05:22 GMT 52.407299 -1.696211 1,275 326 144 -832
2018-07-16 11:05:19 GMT 52.405609 -1.694412 1,300 326 143 -896
2018-07-16 11:05:12 GMT 52.401665 -1.690011 1,625 326 145 -768
2018-07-16 11:05:05 GMT 52.397873 -1.685791 1,500 326 146 -768
2018-07-16 11:05:02 GMT 52.395802 -1.683498 1,550 326 146 -768
2018-07-16 11:04:59 GMT 52.394348 -1.681900 1,575 326 147 -704
2018-07-16 11:04:56 GMT 52.393288 -1.680673 1,625 326 148 -704
2018-07-16 11:04:53 GMT 52.390587 -1.677769 1,650 327 146 -768
2018-07-16 11:04:49 GMT 52.388443 -1.675339 1,700 326 144 -704
2018-07-16 11:04:45 GMT 52.387001 -1.673767 1,750 326 144 -896
2018-07-16 11:04:42 GMT 52.385147 -1.671677 1,800 326 144 -768
2018-07-16 11:04:39 GMT 52.383453 -1.669769 1,850 327 146 -896
2018-07-16 11:04:36 GMT 52.381695 -1.667882 1,925 327 146 -768
2018-07-16 11:04:31 GMT 52.379196 -1.665115 2,000 327 146 -896
2018-07-16 11:04:28 GMT 52.377228 -1.662979 2,100 327 150 -768
2018-07-16 11:04:24 GMT 52.375259 -1.660767 2,025 327 150 -768
2018-07-16 11:04:21 GMT 52.373596 -1.658936 2,075 327 152 -768
2018-07-16 11:04:18 GMT 52.371082 -1.656267 2,125 327 154 -768
2018-07-16 11:04:14 GMT 52.368988 -1.653900 2,175 326 158 -768
2018-07-16 11:04:11 GMT 52.367203 -1.651917 2,200 326 158 -768
2018-07-16 11:04:08 GMT 52.365417 -1.649933 2,250 326 158 -832
2018-07-16 11:04:04 GMT 52.362888 -1.647086 2,300 326 160 -1024
2018-07-16 11:03:59 GMT 52.360016 -1.643829 2,375 326 163 -960
2018-07-16 11:03:56 GMT 52.357544 -1.641006 2,575 328 173 -960
2018-07-16 11:03:53 GMT 52.356232 -1.639474 2,500 326 167 -896
2018-07-16 11:03:50 GMT 52.354137 -1.637120 2,550 326 167 -832
2018-07-16 11:03:47 GMT 52.351776 -1.634598 2,600 327 170 -960
2018-07-16 11:03:43 GMT 52.349442 -1.632004 2,650 328 172 -960
2018-07-16 11:03:40 GMT 52.347527 -1.629979 2,750 328 176 -832
2018-07-16 11:03:37 GMT 52.346008 -1.628494 2,750 328 176 -832
2018-07-16 11:03:34 GMT 52.343491 -1.625824 2,825 328 178 -768
2018-07-16 11:03:31 GMT 52.340744 -1.623001 2,825 328 178 -768
2018-07-16 11:03:27 GMT 52.338501 -1.620712 2,875 328 179 -896
2018-07-16 11:03:24 GMT 52.335938 -1.618042 2,950 328 179 -1088
2018-07-16 11:03:21 GMT 52.334793 -1.616898 3,000 325 183 -512
2018-07-16 11:03:18 GMT 52.332489 -1.614362 3,025 327 181 -832
2018-07-16 11:03:15 GMT 52.329575 -1.611176 3,075 326 182 -640
2018-07-16 11:03:11 GMT 52.327835 -1.609192 3,100 324 186 -448
2018-07-16 11:03:07 GMT 52.324768 -1.605530 3,125 323 187 -448
2018-07-16 11:03:04 GMT 52.322662 -1.602859 3,175 318 191 -704
2018-07-16 11:03:00 GMT 52.320328 -1.599655 3,225 318 191 -768
2018-07-16 11:02:57 GMT 52.317780 -1.595764 3,225 316 193 -832
2018-07-16 11:02:53 GMT 52.315407 -1.591605 3,500 312 195 -896
2018-07-16 11:02:49 GMT 52.313076 -1.587054 3,350 308 197 -1152
2018-07-16 11:02:46 GMT 52.311775 -1.584229 3,400 306 197 -1408
2018-07-16 11:02:42 GMT 52.308983 -1.577558 3,550 304 196 -1728
2018-07-16 11:02:39 GMT 52.308105 -1.575470 3,600 304 195 -1792
2018-07-16 11:02:36 GMT 52.306419 -1.571359 3,725 304 195 -1472
2018-07-16 11:02:33 GMT 52.305164 -1.568220 3,825 304 196 -1024
2018-07-16 11:02:29 GMT 52.302750 -1.562119 3,850 304 198 -896
2018-07-16 11:02:25 GMT 52.301102 -1.558151 3,900 305 200 -1152
2018-07-16 11:02:22 GMT 52.299500 -1.554260 3,950 305 206 -960
2018-07-16 11:02:18 GMT 52.296707 -1.547546 4,025 305 203 -704
2018-07-16 11:02:14 GMT 52.295425 -1.544418 4,050 305 204 -960
2018-07-16 11:02:11 GMT 52.293430 -1.539734 4,150 305 207 -1024
2018-07-16 11:02:07 GMT 52.291431 -1.534947 4,175 305 208 -960
2018-07-16 11:02:04 GMT 52.289749 -1.530914 4,250 304 213 -1152
2018-07-16 11:02:01 GMT 52.287102 -1.524588 4,300 305 213 -1088
2018-07-16 11:01:57 GMT 52.285797 -1.521371 4,375 304 216 -896
2018-07-16 11:01:53 GMT 52.283615 -1.516113 4,400 304 218 -832
2018-07-16 11:01:48 GMT 52.280823 -1.509323 4,500 304 227 -960
2018-07-16 11:01:45 GMT 52.278816 -1.504421 4,525 304 229 -1088
2018-07-16 11:01:42 GMT 52.277664 -1.501694 4,550 304 229 -1088
2018-07-16 11:01:39 GMT 52.275604 -1.496652 4,675 304 237 -1280
2018-07-16 11:01:36 GMT 52.273136 -1.490688 4,725 304 237 -1408
2018-07-16 11:01:33 GMT 52.272297 -1.488647 4,750 304 237 -1536
2018-07-16 11:01:30 GMT 52.270203 -1.483468 4,875 304 238 -2752
2018-07-16 11:01:23 GMT 52.265919 -1.473110 5,250 305 236 -2944
2018-07-16 11:01:19 GMT 52.262524 -1.464948 5,425 305 235 -1856
2018-07-16 11:01:16 GMT 52.261368 -1.462097 5,575 305 235 -1984
2018-07-16 11:01:13 GMT 52.259682 -1.458043 5,675 305 235 -1728
2018-07-16 11:01:10 GMT 52.257568 -1.452942 5,725 305 236 -1600
2018-07-16 11:01:07 GMT 52.256241 -1.449738 5,800 305 238 -1728
2018-07-16 11:01:02 GMT 52.252838 -1.441642 6,000 305 240 -1856
2018-07-16 11:00:59 GMT 52.251251 -1.437836 6,050 305 240 -1856
2018-07-16 11:00:54 GMT 52.247440 -1.428693 6,250 305 244 -1536
2018-07-16 11:00:51 GMT 52.245857 -1.424848 6,300 305 244 -1408
2018-07-16 11:00:48 GMT 52.244339 -1.421204 6,325 305 247 -1152
2018-07-16 11:00:44 GMT 52.241295 -1.413940 6,450 305 251 -1664
2018-07-16 11:00:41 GMT 52.238827 -1.408055 6,975 301 280 -1728
2018-07-16 11:00:38 GMT 52.237244 -1.404343 6,675 305 251 -2624
2018-07-16 11:00:33 GMT 52.233658 -1.395813 7,325 300 271 -1088
2018-07-16 11:00:30 GMT 52.231888 -1.391525 6,975 305 253 -1920
2018-07-16 11:00:27 GMT 52.230122 -1.387338 7,050 305 253 -2240
2018-07-16 11:00:24 GMT 52.227795 -1.381845 7,175 305 254 -2176
2018-07-16 11:00:21 GMT 52.226166 -1.377842 7,325 304 255 -2176
2018-07-16 11:00:18 GMT 52.223511 -1.371460 7,425 304 255 -2048
2018-07-16 11:00:13 GMT 52.220997 -1.365287 7,550 303 257 -1920
2018-07-16 11:00:10 GMT 52.219482 -1.361389 7,675 302 260 -1344
2018-07-16 11:00:07 GMT 52.217377 -1.355972 7,775 301 263 -1152
2018-07-16 11:00:03 GMT 52.214584 -1.348343 7,800 300 266 -1024
2018-07-16 11:00:00 GMT 52.212753 -1.343231 7,850 300 268 -1024
2018-07-16 10:59:57 GMT 52.211174 -1.338684 8,100 301 280 -1728
2018-07-16 10:59:54 GMT 52.209137 -1.333008 7,950 300 274 -1216
2018-07-16 10:59:51 GMT 52.207310 -1.327776 8,050 301 279 -1536
2018-07-16 10:59:48 GMT 52.205063 -1.321564 8,100 301 281 -1920
2018-07-16 10:59:45 GMT 52.202656 -1.314828 8,250 301 282 -2560
2018-07-16 10:59:42 GMT 52.201721 -1.312180 8,425 301 282 -2816
2018-07-16 10:59:39 GMT 52.199303 -1.305411 9,150 301 289 -2688
2018-07-16 10:59:34 GMT 52.195255 -1.294189 8,725 301 284 -2688
2018-07-16 10:59:31 GMT 52.193527 -1.289444 8,925 301 284 -2688
2018-07-16 10:59:27 GMT 52.190880 -1.282104 9,125 301 284 -2688
2018-07-16 10:59:24 GMT 52.188950 -1.276779 9,175 301 284 -2880
2018-07-16 10:59:21 GMT 52.186798 -1.270905 9,400 301 286 -2496
2018-07-16 10:59:18 GMT 52.184830 -1.265564 9,450 301 286 -2432
2018-07-16 10:59:14 GMT 52.182312 -1.258641 9,650 301 287 -2560
2018-07-16 10:59:10 GMT 52.179798 -1.251735 9,850 301 288 -2752
2018-07-16 10:59:07 GMT 52.177795 -1.246242 9,950 301 290 -2688
2018-07-16 10:59:02 GMT 52.174301 -1.236801 10,200 301 290 -2816
2018-07-16 10:58:59 GMT 52.171783 -1.229935 10,350 302 292 -2688
2018-07-16 10:58:56 GMT 52.170021 -1.225133 10,975 302 291 -2688
2018-07-16 10:58:53 GMT 52.167435 -1.218262 10,750 302 292 -2816
2018-07-16 10:58:49 GMT 52.164551 -1.210403 10,800 302 292 -2880
2018-07-16 10:58:46 GMT 52.162949 -1.206055 10,900 302 292 -2880
2018-07-16 10:58:43 GMT 52.160934 -1.200638 11,125 302 294 -2368
2018-07-16 10:58:39 GMT 52.158188 -1.193237 11,250 301 295 -2304
2018-07-16 10:58:36 GMT 52.155807 -1.186829 11,800 301 297 -1472
2018-07-16 10:58:33 GMT 52.153656 -1.180878 11,500 301 296 -1344
2018-07-16 10:58:30 GMT 52.151871 -1.176147 11,475 301 296 -1280
2018-07-16 10:58:26 GMT 52.149120 -1.168631 11,600 301 296 -1472
2018-07-16 10:58:23 GMT 52.146465 -1.161412 11,700 301 297 -1472
2018-07-16 10:58:20 GMT 52.145069 -1.157645 11,700 301 297 -1344
2018-07-16 10:58:16 GMT 52.142303 -1.150131 11,825 301 297 -1280
2018-07-16 10:58:13 GMT 52.139923 -1.143494 11,950 294 302 0
2018-07-16 10:58:10 GMT 52.137901 -1.137713 11,925 300 299 -1088
2018-07-16 10:58:07 GMT 52.135849 -1.131744 11,975 297 300 -512
2018-07-16 10:58:04 GMT 52.133743 -1.125031 12,000 295 302 0
2018-07-16 10:58:01 GMT 52.131943 -1.118958 12,000 291 307 64
2018-07-16 10:57:58 GMT 52.129852 -1.111374 12,000 294 303 0
2018-07-16 10:57:54 GMT 52.127838 -1.103210 12,000 291 307 64
2018-07-16 10:57:51 GMT 52.126602 -1.097870 12,000 291 307 64
2018-07-16 10:57:48 GMT 52.125229 -1.092148 12,000 291 325 0
2018-07-16 10:57:45 GMT 52.123562 -1.084743 11,975 291 314 0
2018-07-16 10:57:41 GMT 52.121330 -1.075169 11,975 291 318 0
2018-07-16 10:57:37 GMT 52.119698 -1.068185 12,000 291 346 -1280
2018-07-16 10:57:34 GMT 52.117401 -1.058350 11,975 291 345 -1216
2018-07-16 10:57:31 GMT 52.116859 -1.055943 11,975 291 329 0
2018-07-16 10:57:28 GMT 52.114746 -1.046753 12,025 291 335 -256
2018-07-16 10:57:24 GMT 52.112484 -1.037031 12,000 291 336 -256
2018-07-16 10:57:20 GMT 52.110443 -1.028290 12,025 291 339 -384
2018-07-16 10:57:17 GMT 52.108948 -1.021807 12,025 291 340 -448
2018-07-16 10:57:14 GMT 52.107037 -1.013567 12,200 291 346 -1408
2018-07-16 10:57:11 GMT 52.105499 -1.006975 12,350 291 346 -1280
2018-07-16 10:57:08 GMT 52.103577 -0.998611 12,200 291 347 -1664
2018-07-16 10:57:05 GMT 52.101963 -0.991595 12,250 291 348 -1856
2018-07-16 10:57:02 GMT 52.100464 -0.985184 12,375 291 349 -2112
2018-07-16 10:56:59 GMT 52.098286 -0.975900 12,625 291 353 -2752
2018-07-16 10:56:56 GMT 52.096527 -0.968399 12,700 291 353 -2752
2018-07-16 10:56:53 GMT 52.095074 -0.962245 12,700 291 353 -2816
2018-07-16 10:56:50 GMT 52.093414 -0.955124 13,250 292 355 -2944
2018-07-16 10:56:47 GMT 52.091766 -0.948120 13,200 292 355 -2880
2018-07-16 10:56:44 GMT 52.089394 -0.938232 13,175 292 355 -3072
2018-07-16 10:56:41 GMT 52.088139 -0.932975 13,425 292 356 -3392
2018-07-16 10:56:38 GMT 52.086040 -0.924029 14,100 291 360 -2624
2018-07-16 10:56:35 GMT 52.084225 -0.916417 13,700 291 358 -2880
2018-07-16 10:56:32 GMT 52.082748 -0.910187 13,900 291 360 -2624
2018-07-16 10:56:29 GMT 52.081009 -0.902710 14,000 291 361 -2560
2018-07-16 10:56:25 GMT 52.078217 -0.890961 14,150 291 364 -2624
2018-07-16 10:56:22 GMT 52.076614 -0.884247 14,250 291 366 -2496
2018-07-16 10:56:19 GMT 52.075008 -0.877494 14,500 292 369 -2176
2018-07-16 10:56:16 GMT 52.073502 -0.871048 14,625 292 371 -2176
2018-07-16 10:56:13 GMT 52.071121 -0.861130 14,550 292 371 -2048
2018-07-16 10:56:10 GMT 52.069191 -0.853010 14,675 292 375 -1664
2018-07-16 10:56:07 GMT 52.067459 -0.845871 14,725 292 378 -1472
2018-07-16 10:56:04 GMT 52.065262 -0.836563 18,500 321 410 -2432
2018-07-16 10:56:01 GMT 52.063339 -0.828629 14,875 292 387 -896
2018-07-16 10:55:58 GMT 52.061138 -0.819423 14,975 292 385 -832
2018-07-16 10:55:55 GMT 52.060112 -0.815107 14,975 291 388 -960
2018-07-16 10:55:52 GMT 52.058121 -0.806580 15,000 291 391 -1024
2018-07-16 10:55:49 GMT 52.056152 -0.798264 15,100 292 395 -1088
2018-07-16 10:55:46 GMT 52.053406 -0.786591 15,175 292 395 -1088
2018-07-16 10:55:43 GMT 52.051804 -0.779724 15,225 292 397 -1280
2018-07-16 10:55:40 GMT 52.050110 -0.772858 15,275 293 398 -1664
2018-07-16 10:55:37 GMT 52.047871 -0.764021 15,325 294 399 -1728
2018-07-16 10:55:34 GMT 52.045635 -0.755938 15,425 297 401 -2048
2018-07-16 10:55:31 GMT 52.042843 -0.746913 15,500 299 402 -2304
2018-07-16 10:55:27 GMT 52.039673 -0.738144 15,775 304 403 -2496
2018-07-16 10:55:24 GMT 52.035507 -0.728149 16,050 315 408 -2176
2018-07-16 10:55:21 GMT 52.033672 -0.724313 15,950 310 405 -2368
2018-07-16 10:55:18 GMT 52.027946 -0.713405 16,225 321 412 -2240
2018-07-16 10:55:15 GMT 52.024658 -0.708008 16,150 316 408 -2112
2018-07-16 10:55:11 GMT 52.019897 -0.700836 16,400 319 410 -1856
2018-07-16 10:55:08 GMT 52.014816 -0.693787 16,425 321 411 -1856
2018-07-16 10:55:04 GMT 52.010582 -0.688137 16,600 321 413 -2240
2018-07-16 10:55:01 GMT 52.005413 -0.681231 16,625 321 412 -2240
2018-07-16 10:54:58 GMT 51.999500 -0.673383 16,750 321 413 -2240
2018-07-16 10:54:55 GMT 51.995964 -0.668597 16,825 321 413 -2240
2018-07-16 10:54:52 GMT 51.992474 -0.663888 17,075 321 413 -2240
2018-07-16 10:54:49 GMT 51.986343 -0.655594 17,075 321 414 -2368
2018-07-16 10:54:46 GMT 51.981998 -0.649684 17,200 321 414 -2432
2018-07-16 10:54:43 GMT 51.977760 -0.644034 17,325 321 413 -3328
2018-07-16 10:54:40 GMT 51.974945 -0.640182 17,475 321 414 -2816
2018-07-16 10:54:36 GMT 51.967804 -0.630493 17,700 321 413 -3328
2018-07-16 10:54:33 GMT 51.964867 -0.626535 17,850 321 412 -3392
2018-07-16 10:54:30 GMT 51.958786 -0.618286 18,000 321 411 -3392
2018-07-16 10:54:26 GMT 51.952606 -0.609970 18,275 321 410 -3136
2018-07-16 10:54:23 GMT 51.949459 -0.605739 18,375 321 409 -2880
2018-07-16 10:54:20 GMT 51.945595 -0.600560 18,600 321 409 -2688
2018-07-16 10:54:17 GMT 51.940472 -0.593654 18,625 321 409 -2624
2018-07-16 10:54:14 GMT 51.935352 -0.586748 18,850 321 410 -2432
2018-07-16 10:54:11 GMT 51.931183 -0.581131 18,900 321 409 -2432
2018-07-16 10:54:08 GMT 51.928757 -0.577850 19,100 321 410 -2432
2018-07-16 10:54:05 GMT 51.922783 -0.569798 19,125 321 411 -2368
2018-07-16 10:54:02 GMT 51.919281 -0.565109 19,300 321 411 -2368
2018-07-16 10:53:59 GMT 51.914452 -0.558655 19,650 321 411 -3008
2018-07-16 10:53:56 GMT 51.909897 -0.552521 19,575 321 412 -2816
2018-07-16 10:53:53 GMT 51.904358 -0.545197 19,650 321 412 -2944
2018-07-16 10:53:50 GMT 51.901566 -0.541458 20,250 321 410 -3264
2018-07-16 10:53:47 GMT 51.897224 -0.535662 20,075 321 410 -3264
2018-07-16 10:53:44 GMT 51.891594 -0.528183 20,350 321 408 -3008
2018-07-16 10:53:41 GMT 51.887077 -0.522079 20,300 321 408 -2944
2018-07-16 10:53:38 GMT 51.884033 -0.518065 20,550 321 407 -3200
2018-07-16 10:53:35 GMT 51.879639 -0.512126 20,550 321 407 -3456
2018-07-16 10:53:32 GMT 51.876022 -0.507375 20,875 321 401 -3264
2018-07-16 10:53:29 GMT 51.870132 -0.499573 20,925 321 403 -3520
2018-07-16 10:53:26 GMT 51.866825 -0.495148 21,225 321 401 -3264
2018-07-16 10:53:23 GMT 51.863243 -0.490417 21,250 321 401 -3264
2018-07-16 10:53:20 GMT 51.858353 -0.483844 21,475 321 399 -2816
2018-07-16 10:53:17 GMT 51.852814 -0.476379 21,600 320 399 -2176
2018-07-16 10:53:14 GMT 51.848557 -0.470482 21,675 319 399 -2048
2018-07-16 10:53:11 GMT 51.845226 -0.465775 21,775 319 399 -1856
2018-07-16 10:53:08 GMT 51.840088 -0.458234 21,875 312 397 64
2018-07-16 10:53:05 GMT 51.836987 -0.453491 21,950 316 399 -1152
2018-07-16 10:53:02 GMT 51.833267 -0.447619 21,975 315 398 -576
2018-07-16 10:52:59 GMT 51.829468 -0.441383 22,000 314 398 -448
2018-07-16 10:52:56 GMT 51.825813 -0.435181 22,000 313 398 0
2018-07-16 10:52:53 GMT 51.820724 -0.426240 22,000 312 397 0
2018-07-16 10:52:50 GMT 51.818504 -0.422134 22,000 307 396 0
2018-07-16 10:52:47 GMT 51.814362 -0.414140 22,000 305 395 0
2018-07-16 10:52:44 GMT 51.811340 -0.407756 22,000 302 394 0
2018-07-16 10:52:41 GMT 51.808216 -0.400391 22,000 302 394 0
2018-07-16 10:52:38 GMT 51.805115 -0.392093 22,000 286 393 -576
2018-07-16 10:52:35 GMT 51.802959 -0.385742 22,000 297 393 64
2018-07-16 10:52:32 GMT 51.800072 -0.375977 21,975 286 393 -128
2018-07-16 10:52:29 GMT 51.798302 -0.369110 22,000 291 393 0
2018-07-16 10:52:26 GMT 51.796188 -0.359580 22,000 287 392 -64
2018-07-16 10:52:23 GMT 51.794765 -0.352478 22,000 286 392 0
2018-07-16 10:52:20 GMT 51.792995 -0.342331 22,000 286 393 -128
2018-07-16 10:52:17 GMT 51.791740 -0.334930 22,625 286 396 -1024
2018-07-16 10:52:14 GMT 51.790203 -0.325851 22,025 286 392 -256
2018-07-16 10:52:11 GMT 51.788666 -0.316849 22,025 286 393 -576
2018-07-16 10:52:08 GMT 51.787689 -0.310974 22,075 286 393 -512
2018-07-16 10:52:05 GMT 51.786163 -0.302198 22,125 286 393 -576
2018-07-16 10:52:01 GMT 51.783966 -0.289282 22,150 286 393 -576
2018-07-16 10:51:58 GMT 51.782429 -0.279999 22,150 286 393 -640
2018-07-16 10:51:55 GMT 51.781170 -0.272751 22,175 286 393 -640
2018-07-16 10:51:51 GMT 51.779343 -0.261890 22,225 286 393 -576
2018-07-16 10:51:48 GMT 51.777603 -0.251721 22,250 286 393 -576
2018-07-16 10:51:45 GMT 51.776230 -0.243629 22,300 286 393 -640
2018-07-16 10:51:42 GMT 51.775177 -0.237468 22,325 286 393 -768
2018-07-16 10:51:39 GMT 51.773537 -0.227737 22,350 286 393 -896
2018-07-16 10:51:36 GMT 51.771835 -0.217797 22,425 286 394 -1024
2018-07-16 10:51:33 GMT 51.770325 -0.208963 22,475 286 394 -1024
2018-07-16 10:51:30 GMT 51.768997 -0.201020 22,525 286 394 -960
2018-07-16 10:51:27 GMT 51.767345 -0.191498 22,550 286 394 -1024
2018-07-16 10:51:24 GMT 51.766205 -0.184689 22,625 286 394 -960
2018-07-16 10:51:21 GMT 51.764366 -0.173798 22,675 286 394 -1024
2018-07-16 10:51:18 GMT 51.763157 -0.166702 22,700 286 394 -1024
2018-07-16 10:51:15 GMT 51.761761 -0.158539 22,750 286 395 -1024
2018-07-16 10:51:12 GMT 51.760593 -0.151520 22,800 286 395 -960
2018-07-16 10:51:09 GMT 51.758743 -0.140818 22,875 286 395 -960
2018-07-16 10:51:06 GMT 51.757664 -0.134506 22,925 286 395 -1024
2018-07-16 10:51:03 GMT 51.755814 -0.123596 22,950 286 395 -1024
2018-07-16 10:51:00 GMT 51.754868 -0.118103 23,025 286 396 -1024
2018-07-16 10:50:57 GMT 51.753056 -0.107422 23,050 286 396 -1024
2018-07-16 10:50:54 GMT 51.751740 -0.099990 23,400 286 396 -960
2018-07-16 10:50:51 GMT 51.750458 -0.092196 23,175 286 396 -1024
2018-07-16 10:50:48 GMT 51.749096 -0.084457 23,275 286 396 -960
2018-07-16 10:50:45 GMT 51.747375 -0.074463 23,250 286 396 -1024
2018-07-16 10:50:42 GMT 51.745514 -0.063543 23,325 286 396 -1024
2018-07-16 10:50:39 GMT 51.744068 -0.055161 23,375 286 397 -1024
2018-07-16 10:50:36 GMT 51.742672 -0.046921 23,450 286 397 -1024
2018-07-16 10:50:32 GMT 51.740997 -0.037155 23,625 286 399 -1024
2018-07-16 10:50:29 GMT 51.739288 -0.027317 23,525 286 398 -1024
2018-07-16 10:50:26 GMT 51.737877 -0.018921 23,600 286 397 -1024
2018-07-16 10:50:23 GMT 51.736404 -0.010467 23,625 286 397 -1024
2018-07-16 10:50:20 GMT 51.735039 -0.002518 23,700 286 398 -1024
2018-07-16 10:50:17 GMT 51.733597 0.005951 23,725 286 398 -1024
2018-07-16 10:50:14 GMT 51.732422 0.012619 23,825 286 399 -960
2018-07-16 10:50:11 GMT 51.730709 0.022659 23,825 286 399 -1024
2018-07-16 10:50:08 GMT 51.729080 0.032043 23,875 286 399 -960
2018-07-16 10:50:05 GMT 51.727776 0.039673 23,925 286 400 -1024
2018-07-16 10:50:02 GMT 51.726517 0.046989 24,000 286 400 -1024
2018-07-16 10:49:59 GMT 51.724960 0.055971 24,025 286 400 -1024
2018-07-16 10:49:56 GMT 51.723213 0.066071 24,100 286 401 -1024
2018-07-16 10:49:53 GMT 51.721680 0.074997 24,125 286 401 -1024
2018-07-16 10:49:50 GMT 51.720520 0.081729 24,175 286 401 -1024
2018-07-16 10:49:47 GMT 51.718918 0.091157 24,225 286 402 -1024
2018-07-16 10:49:44 GMT 51.717113 0.101547 24,300 286 402 -960
2018-07-16 10:49:41 GMT 51.716045 0.107803 24,450 286 403 -1024
2018-07-16 10:49:38 GMT 51.714088 0.118866 24,400 286 402 -960
2018-07-16 10:49:35 GMT 51.713066 0.124893 24,450 286 403 -1024
2018-07-16 10:49:32 GMT 51.711250 0.135269 24,525 286 403 -1024
2018-07-16 10:49:29 GMT 51.709625 0.144752 24,525 286 403 -1024
2018-07-16 10:49:26 GMT 51.708225 0.152893 24,600 286 404 -1024
2018-07-16 10:49:23 GMT 51.706501 0.162811 24,625 286 404 -960
2018-07-16 10:49:20 GMT 51.705276 0.169768 24,700 286 405 -960
2018-07-16 10:49:17 GMT 51.704220 0.175858 24,725 286 405 -960
2018-07-16 10:49:14 GMT 51.702824 0.183945 24,775 286 407 -1024
2018-07-16 10:49:11 GMT 51.700497 0.197296 24,825 286 407 -1024
2018-07-16 10:49:08 GMT 51.699753 0.201721 24,900 286 408 -1024
2018-07-16 10:49:05 GMT 51.697472 0.214767 24,925 286 408 -1024
2018-07-16 10:49:02 GMT 51.696579 0.219949 25,125 286 411 -1024
2018-07-16 10:48:58 GMT 51.694153 0.233756 25,050 286 410 -1024
2018-07-16 10:48:55 GMT 51.692863 0.241241 25,075 286 410 -1024
2018-07-16 10:48:52 GMT 51.691139 0.251083 25,200 286 412 -1024
2018-07-16 10:48:49 GMT 51.689575 0.259812 25,225 286 412 -1024
2018-07-16 10:48:46 GMT 51.687088 0.273972 25,275 286 413 -1024
2018-07-16 10:48:43 GMT 51.686325 0.278518 25,275 286 413 -1024
2018-07-16 10:48:40 GMT 51.684528 0.288696 25,350 286 414 -960
2018-07-16 10:48:37 GMT 51.683304 0.295814 25,375 286 414 -960
2018-07-16 10:48:34 GMT 51.682014 0.303116 25,450 286 414 -1024
2018-07-16 10:48:31 GMT 51.680099 0.313778 25,675 286 413 -960
2018-07-16 10:48:28 GMT 51.678268 0.324245 25,700 286 413 -960
2018-07-16 10:48:25 GMT 51.677032 0.331345 25,650 286 413 -960
2018-07-16 10:48:22 GMT 51.675732 0.338669 25,650 286 413 -960
2018-07-16 10:48:19 GMT 51.673828 0.349558 25,675 286 413 -960
2018-07-16 10:48:16 GMT 51.672043 0.359728 25,750 286 412 -1024
2018-07-16 10:48:13 GMT 51.670471 0.368652 25,825 286 412 -1024
2018-07-16 10:48:10 GMT 51.668884 0.377618 25,850 286 413 -1024
2018-07-16 10:48:07 GMT 51.667374 0.386155 25,875 286 413 -1024
2018-07-16 10:48:04 GMT 51.666279 0.392532 25,950 286 413 -1024
2018-07-16 10:48:01 GMT 51.664810 0.400853 26,025 286 413 -1024
2018-07-16 10:47:58 GMT 51.663116 0.410503 26,050 286 413 -1024
2018-07-16 10:47:55 GMT 51.661377 0.420227 26,075 286 413 -1024
2018-07-16 10:47:52 GMT 51.659683 0.429877 26,175 286 413 -1024
2018-07-16 10:47:49 GMT 51.658127 0.438637 26,200 286 413 -1024
2018-07-16 10:47:46 GMT 51.656799 0.446208 26,300 286 413 -1024
2018-07-16 10:47:43 GMT 51.654922 0.456848 26,375 286 413 -1024
2018-07-16 10:47:40 GMT 51.653992 0.462036 26,350 286 413 -1024
2018-07-16 10:47:37 GMT 51.652222 0.471967 26,450 288 429 -1024
2018-07-16 10:47:34 GMT 51.650620 0.481171 26,450 286 413 -1024
2018-07-16 10:47:31 GMT 51.648743 0.491787 26,500 286 413 -1024
2018-07-16 10:47:28 GMT 51.647800 0.496979 26,550 286 413 -1024
2018-07-16 10:47:25 GMT 51.645721 0.508786 26,675 286 413 -960
2018-07-16 10:47:22 GMT 51.643616 0.520886 26,675 286 413 -960
2018-07-16 10:47:19 GMT 51.642399 0.527725 27,000 286 412 -1920
2018-07-16 10:47:15 GMT 51.640491 0.538330 26,775 286 412 -1024
2018-07-16 10:47:12 GMT 51.638908 0.547256 27,125 286 413 -1920
2018-07-16 10:47:09 GMT 51.637573 0.554810 27,050 286 412 -1408
2018-07-16 10:47:06 GMT 51.635788 0.564957 27,025 286 412 -1856
2018-07-16 10:47:03 GMT 51.634140 0.574184 27,050 286 412 -1920
2018-07-16 10:47:00 GMT 51.633087 0.580292 27,200 286 413 -1920
2018-07-16 10:46:57 GMT 51.630714 0.593567 27,275 286 414 -1920
2018-07-16 10:46:54 GMT 51.629517 0.600388 27,375 286 414 -1920
2018-07-16 10:46:51 GMT 51.628109 0.608444 27,525 286 415 -1920
2018-07-16 10:46:48 GMT 51.626526 0.617218 27,600 286 416 -1920
2018-07-16 10:46:45 GMT 51.624756 0.627186 27,625 286 416 -1920
2018-07-16 10:46:42 GMT 51.622879 0.637652 27,775 286 418 -1920
2018-07-16 10:46:39 GMT 51.621872 0.643443 27,850 286 418 -1920
2018-07-16 10:46:36 GMT 51.620335 0.652237 27,950 286 419 -1920
2018-07-16 10:46:33 GMT 51.618713 0.661332 28,250 287 420 -1984
2018-07-16 10:46:30 GMT 51.616608 0.673065 28,225 287 420 -1984
2018-07-16 10:46:27 GMT 51.615494 0.679321 28,175 287 420 -1984
2018-07-16 10:46:24 GMT 51.613350 0.691299 28,425 287 421 -1920
2018-07-16 10:46:20 GMT 51.611397 0.702133 28,425 287 424 -1920
2018-07-16 10:46:17 GMT 51.609951 0.710068 28,775 287 422 -1920
2018-07-16 10:46:14 GMT 51.608139 0.720198 28,775 287 424 -1920
2018-07-16 10:46:11 GMT 51.607067 0.726013 28,725 287 424 -1920
2018-07-16 10:46:08 GMT 51.605064 0.737076 28,850 287 425 -1920
2018-07-16 10:46:05 GMT 51.603058 0.747961 28,900 287 425 -1792
2018-07-16 10:46:02 GMT 51.601433 0.756683 29,000 287 426 -1728
2018-07-16 10:45:59 GMT 51.599625 0.766445 29,075 287 427 -1536
2018-07-16 10:45:56 GMT 51.598129 0.774460 29,175 287 428 -1152
2018-07-16 10:45:53 GMT 51.596313 0.783920 29,200 287 428 -1024
2018-07-16 10:45:50 GMT 51.595093 0.790496 29,275 288 429 -1024
2018-07-16 10:45:47 GMT 51.593170 0.800443 29,300 288 429 -1024
2018-07-16 10:45:44 GMT 51.591385 0.809648 29,375 288 429 -1024
2018-07-16 10:45:41 GMT 51.589279 0.820337 29,550 288 430 -960
2018-07-16 10:45:38 GMT 51.587448 0.829616 29,600 288 430 -960
2018-07-16 10:45:35 GMT 51.585754 0.838079 29,550 288 430 -1024
2018-07-16 10:45:32 GMT 51.584518 0.844166 29,800 289 432 -960
2018-07-16 10:45:29 GMT 51.582439 0.854416 29,625 288 433 -1024
2018-07-16 10:45:26 GMT 51.580307 0.865099 29,675 289 433 -1024
2018-07-16 10:45:23 GMT 51.578796 0.872448 29,725 289 432 -1024
2018-07-16 10:45:20 GMT 51.575958 0.886329 29,800 289 433 -1024
2018-07-16 10:45:17 GMT 51.574478 0.893707 29,800 288 433 -1024
2018-07-16 10:45:14 GMT 51.572433 0.903997 29,875 282 440 -1280
2018-07-16 10:45:11 GMT 51.571106 0.910826 29,925 288 434 -1024
2018-07-16 10:45:08 GMT 51.569359 0.919724 29,975 287 435 -960
2018-07-16 10:45:04 GMT 51.566704 0.934067 30,100 285 437 -1024
2018-07-16 10:45:01 GMT 51.565659 0.939776 30,100 285 437 -1024
2018-07-16 10:44:58 GMT 51.563492 0.952530 30,150 285 437 -1024
2018-07-16 10:44:54 GMT 51.561722 0.963828 30,225 284 438 -1152
2018-07-16 10:44:51 GMT 51.560532 0.971622 30,250 283 438 -1216
2018-07-16 10:44:48 GMT 51.558792 0.984344 30,325 282 440 -1344
2018-07-16 10:44:45 GMT 51.557556 0.993817 30,375 282 442 -1216
2018-07-16 10:44:42 GMT 51.556602 1.001282 30,750 282 444 -1216
2018-07-16 10:44:39 GMT 51.555496 1.009777 30,500 282 444 -1280
2018-07-16 10:44:36 GMT 51.553856 1.022644 30,625 282 446 -1856
2018-07-16 10:44:33 GMT 51.552692 1.031494 30,700 282 447 -1920
2018-07-16 10:44:30 GMT 51.551437 1.041336 30,800 282 448 -1920
2018-07-16 10:44:27 GMT 51.550369 1.049640 30,975 282 449 -1920
2018-07-16 10:44:23 GMT 51.548813 1.061665 31,050 282 450 -1920
2018-07-16 10:44:20 GMT 51.547527 1.071548 31,175 282 452 -1984
2018-07-16 10:44:17 GMT 51.545837 1.084380 31,250 282 453 -2048
2018-07-16 10:44:14 GMT 51.544693 1.093288 31,325 282 452 -2048
2018-07-16 10:44:11 GMT 51.543385 1.103058 31,400 282 452 -2048
2018-07-16 10:44:08 GMT 51.542358 1.110916 31,525 282 453 -1984
2018-07-16 10:44:05 GMT 51.540756 1.123278 31,750 282 457 -1984
2018-07-16 10:44:02 GMT 51.539612 1.131973 31,775 282 455 -1984
2018-07-16 10:43:59 GMT 51.538147 1.143098 31,800 282 456 -1984
2018-07-16 10:43:56 GMT 51.536865 1.153119 31,950 282 458 -1984
2018-07-16 10:43:53 GMT 51.535721 1.161878 32,450 282 460 -1984
2018-07-16 10:43:50 GMT 51.534584 1.170349 32,200 282 459 -1984
2018-07-16 10:43:47 GMT 51.533249 1.180733 32,275 282 459 -1984
2018-07-16 10:43:44 GMT 51.531738 1.192462 32,275 282 459 -1984
2018-07-16 10:43:41 GMT 51.530182 1.204265 32,400 282 461 -1984
2018-07-16 10:43:37 GMT 51.528530 1.217117 32,525 282 462 -1984
2018-07-16 10:43:34 GMT 51.527298 1.226460 32,700 282 463 -1984
2018-07-16 10:43:30 GMT 51.525738 1.238327 32,800 282 465 -1984
2018-07-16 10:43:27 GMT 51.524574 1.247177 33,200 282 469 -1984
2018-07-16 10:43:24 GMT 51.523361 1.256376 33,200 282 467 -1984
2018-07-16 10:43:20 GMT 51.521393 1.271222 33,175 282 468 -1984
2018-07-16 10:43:17 GMT 51.519779 1.283417 33,200 282 468 -1984
2018-07-16 10:43:14 GMT 51.518570 1.292953 33,550 282 472 -1920
2018-07-16 10:43:10 GMT 51.516850 1.306076 33,700 282 473 -1920
2018-07-16 10:43:07 GMT 51.515499 1.316452 33,550 282 473 -1920
2018-07-16 10:43:04 GMT 51.514008 1.327896 33,650 282 474 -1920
2018-07-16 10:43:01 GMT 51.512753 1.337280 35,675 282 475 -1920
2018-07-16 10:42:58 GMT 51.511459 1.347161 33,825 282 476 -1920
2018-07-16 10:42:55 GMT 51.510269 1.356218 33,925 282 477 -1920
2018-07-16 10:42:52 GMT 51.508850 1.367056 34,025 282 478 -1984
2018-07-16 10:42:48 GMT 51.506561 1.384203 38,050 283 477 -3968
2018-07-16 10:42:45 GMT 51.505398 1.393127 34,200 283 480 -2432
2018-07-16 10:42:42 GMT 51.504135 1.402241 34,350 283 480 -2432
2018-07-16 10:42:39 GMT 51.502975 1.411209 34,475 283 481 -2688
2018-07-16 10:42:35 GMT 51.500603 1.428757 34,700 283 481 -2688
2018-07-16 10:42:32 GMT 51.499531 1.436844 34,825 283 482 -2688
2018-07-16 10:42:29 GMT 51.498180 1.446915 34,900 283 482 -2752
2018-07-16 10:42:26 GMT 51.496830 1.457214 35,275 283 470 -960
2018-07-16 10:42:23 GMT 51.495300 1.468679 35,175 283 482 -2752
2018-07-16 10:42:20 GMT 51.493710 1.480408 35,375 283 483 -2688
2018-07-16 10:42:17 GMT 51.492035 1.492996 35,725 283 484 -2688
2018-07-16 10:42:14 GMT 51.490814 1.502232 35,650 283 483 -2688
2018-07-16 10:42:11 GMT 51.489616 1.511154 35,750 283 484 -2752
2018-07-16 10:42:08 GMT 51.487846 1.524353 36,000 283 484 -2688
2018-07-16 10:42:05 GMT 51.486832 1.531925 36,250 283 484 -2688
2018-07-16 10:42:02 GMT 51.485229 1.543950 36,250 283 483 -2688
2018-07-16 10:41:59 GMT 51.484123 1.552353 37,225 283 475 -3776
2018-07-16 10:41:56 GMT 51.482758 1.562731 36,475 283 484 -2944
2018-07-16 10:41:53 GMT 51.481049 1.575317 36,550 283 484 -3072
2018-07-16 10:41:50 GMT 51.480103 1.582328 36,750 283 483 -3264
2018-07-16 10:41:47 GMT 51.478546 1.593760 36,875 283 483 -3328
2018-07-16 10:41:44 GMT 51.476669 1.607419 37,100 283 481 -3520
2018-07-16 10:41:41 GMT 51.475250 1.617960 37,225 283 480 -3712
2018-07-16 10:41:38 GMT 51.473694 1.629639 37,675 283 478 -3904
2018-07-16 10:41:35 GMT 51.472549 1.637928 37,600 283 477 -3904
2018-07-16 10:41:32 GMT 51.470947 1.649857 37,950 283 475 -3776
2018-07-16 10:41:29 GMT 51.470032 1.656709 37,975 283 474 -3456
2018-07-16 10:41:26 GMT 51.468433 1.668549 38,225 283 473 -3072
2018-07-16 10:41:23 GMT 51.467270 1.677017 38,300 283 473 -1600
2018-07-16 10:41:20 GMT 51.465958 1.686847 38,525 283 473 -1664
2018-07-16 10:41:17 GMT 51.464539 1.697239 38,600 283 473 -1408
2018-07-16 10:41:14 GMT 51.463360 1.706009 38,775 283 468 -960
2018-07-16 10:41:11 GMT 51.461731 1.718063 38,675 283 474 -1024
2018-07-16 10:41:08 GMT 51.460472 1.727066 38,725 283 474 -960
2018-07-16 10:41:05 GMT 51.458565 1.741028 38,800 283 470 -960
2018-07-16 10:41:02 GMT 51.457397 1.749795 38,875 283 473 -960
2018-07-16 10:40:59 GMT 51.456253 1.758332 38,900 283 473 -960
2018-07-16 10:40:56 GMT 51.454193 1.773327 38,925 283 472 -960
2018-07-16 10:40:53 GMT 51.452793 1.783752 39,000 283 471 -960
2018-07-16 10:40:50 GMT 51.451904 1.790252 39,025 283 471 -960
2018-07-16 10:40:47 GMT 51.450462 1.801147 39,050 283 469 -1024
2018-07-16 10:40:43 GMT 51.448425 1.816085 39,125 283 468 -1024
2018-07-16 10:40:40 GMT 51.447006 1.826403 39,200 283 469 -960
2018-07-16 10:40:36 GMT 51.445496 1.837463 39,325 283 468 -960
2018-07-16 10:40:33 GMT 51.444122 1.847782 39,275 283 468 -960
2018-07-16 10:40:30 GMT 51.442291 1.860995 39,350 283 466 0
2018-07-16 10:40:27 GMT 51.440781 1.871872 39,400 283 468 -896
2018-07-16 10:40:24 GMT 51.439911 1.878291 39,775 283 466 -960
2018-07-16 10:40:21 GMT 51.438446 1.888832 39,525 283 467 0
2018-07-16 10:40:18 GMT 51.437027 1.899373 39,625 283 465 -960
2018-07-16 10:40:13 GMT 51.435104 1.913328 39,625 283 464 -960
2018-07-16 10:40:10 GMT 51.433517 1.924591 39,700 283 464 -960
2018-07-16 10:40:07 GMT 51.432266 1.934039 39,775 283 464 -960
2018-07-16 10:40:03 GMT 51.430389 1.947401 39,825 283 467 0
2018-07-16 10:40:00 GMT 51.428558 1.960837 39,925 283 466 0
2018-07-16 10:39:57 GMT 51.427368 1.969448 40,000 283 467 0
2018-07-16 10:39:54 GMT 51.426315 1.977242 39,875 283 465 -896
2018-07-16 10:39:51 GMT 51.424488 1.990356 39,900 283 467 0
2018-07-16 10:39:48 GMT 51.423569 1.997136 40,000 283 467 0
2018-07-16 10:39:45 GMT 51.422195 2.007083 40,000 283 467 0
2018-07-16 10:39:42 GMT 51.420300 2.020493 40,000 283 467 0
2018-07-16 10:39:39 GMT 51.418991 2.029947 40,000 283 467 0
2018-07-16 10:39:35 GMT 51.417274 2.042313 40,000 283 467 0
2018-07-16 10:39:32 GMT 51.415363 2.056351 40,000 283 467 0
2018-07-16 10:39:28 GMT 51.413406 2.070329 40,000 283 467 0
2018-07-16 10:39:24 GMT 51.411621 2.083245 40,000 283 467 0
2018-07-16 10:39:21 GMT 51.410110 2.094009 40,000 283 466 0
2018-07-16 10:39:18 GMT 51.408920 2.102620 40,000 283 466 0
2018-07-16 10:39:14 GMT 51.407043 2.116056 40,000 283 466 0
2018-07-16 10:39:09 GMT 51.405121 2.130051 40,000 283 466 0
2018-07-16 10:39:06 GMT 51.403770 2.139435 40,000 283 466 0
2018-07-16 10:39:03 GMT 51.402237 2.150425 40,000 283 466 0
2018-07-16 10:39:00 GMT 51.400681 2.161709 40,000 283 466 0
2018-07-16 10:38:57 GMT 51.398838 2.174835 40,000 283 466 0
2018-07-16 10:38:54 GMT 51.398300 2.178633 40,000 283 466 0
2018-07-16 10:38:50 GMT 51.396423 2.192069 40,000 283 467 -64
2018-07-16 10:38:47 GMT 51.395050 2.201720 40,000 283 465 0
2018-07-16 10:38:44 GMT 51.393253 2.214584 40,000 283 465 0
2018-07-16 10:38:41 GMT 51.391808 2.225037 40,000 283 466 0
2018-07-16 10:38:37 GMT 51.389557 2.241137 40,000 283 466 0
2018-07-16 10:38:34 GMT 51.388687 2.247314 40,000 283 466 0
2018-07-16 10:38:31 GMT 51.387314 2.256948 40,000 282 466 0
2018-07-16 10:38:27 GMT 51.385391 2.270607 40,000 283 466 0
2018-07-16 10:38:24 GMT 51.383606 2.283226 40,000 283 466 0
2018-07-16 10:38:21 GMT 51.382404 2.292099 40,000 282 467 0
2018-07-16 10:38:18 GMT 51.381363 2.299335 40,000 283 467 0
2018-07-16 10:38:15 GMT 51.379936 2.309570 40,000 283 466 0
2018-07-16 10:38:11 GMT 51.377609 2.326202 40,000 283 467 0
2018-07-16 10:38:05 GMT 51.374954 2.345284 40,000 282 466 0
2018-07-16 10:38:02 GMT 51.373352 2.357161 40,000 283 466 0
2018-07-16 10:37:58 GMT 51.371887 2.367628 40,000 282 467 0
2018-07-16 10:37:55 GMT 51.370113 2.380600 40,000 283 465 0
2018-07-16 10:37:51 GMT 51.368774 2.390788 40,000 283 467 -64
2018-07-16 10:37:48 GMT 51.366997 2.403717 40,000 283 466 0
2018-07-16 10:37:45 GMT 51.366112 2.410507 40,000 282 466 0
2018-07-16 10:37:42 GMT 51.364670 2.421494 40,000 282 466 0
2018-07-16 10:37:39 GMT 51.363052 2.433620 40,000 282 466 0
2018-07-16 10:37:35 GMT 51.361725 2.443641 40,000 282 466 0
2018-07-16 10:37:32 GMT 51.360077 2.456261 40,000 282 466 0
2018-07-16 10:37:29 GMT 51.358292 2.470016 40,000 282 466 0
2018-07-16 10:37:26 GMT 51.356964 2.480015 40,000 282 466 0
2018-07-16 10:37:23 GMT 51.356102 2.486496 40,000 283 466 0
2018-07-16 10:37:20 GMT 51.354427 2.499390 40,000 283 466 0
2018-07-16 10:37:17 GMT 51.353485 2.506367 40,000 283 466 0
2018-07-16 10:37:13 GMT 51.351883 2.517948 40,000 284 465 0
2018-07-16 10:37:10 GMT 51.350235 2.529751 40,000 284 466 0
2018-07-16 10:37:07 GMT 51.348656 2.540741 40,000 284 466 0
2018-07-16 10:37:03 GMT 51.346512 2.554855 40,000 287 464 0
2018-07-16 10:37:00 GMT 51.345245 2.562858 40,000 286 464 0
2018-07-16 10:36:57 GMT 51.343918 2.571098 40,000 286 464 0
2018-07-16 10:36:54 GMT 51.342178 2.581416 40,000 286 464 0
2018-07-16 10:36:51 GMT 51.339996 2.593842 40,000 286 464 0
2018-07-16 10:36:48 GMT 51.338333 2.603314 40,000 286 464 0
2018-07-16 10:36:45 GMT 51.336731 2.612296 40,000 286 464 0
2018-07-16 10:36:41 GMT 51.334595 2.624207 40,000 286 464 0
2018-07-16 10:36:38 GMT 51.332520 2.635754 40,000 287 463 0
2018-07-16 10:36:35 GMT 51.330265 2.648392 40,000 287 464 0
2018-07-16 10:36:32 GMT 51.328732 2.657089 40,000 287 464 0
2018-07-16 10:36:28 GMT 51.326981 2.666783 40,000 287 464 0
2018-07-16 10:36:25 GMT 51.325287 2.676315 40,000 287 464 0
2018-07-16 10:36:22 GMT 51.322491 2.691803 40,000 287 464 0
2018-07-16 10:36:19 GMT 51.320709 2.701746 40,000 287 464 0
2018-07-16 10:36:16 GMT 51.318832 2.711990 40,000 287 464 0
2018-07-16 10:36:11 GMT 51.315948 2.728024 40,000 287 462 0
2018-07-16 10:36:08 GMT 51.314713 2.734853 40,000 287 463 0
2018-07-16 10:36:05 GMT 51.312286 2.748512 40,000 287 462 0
2018-07-16 10:36:01 GMT 51.310547 2.758162 40,000 287 463 0
2018-07-16 10:35:58 GMT 51.308716 2.768109 40,000 287 462 0
2018-07-16 10:35:53 GMT 51.305454 2.786179 40,000 287 462 0
2018-07-16 10:35:50 GMT 51.304104 2.793808 40,000 287 462 0
2018-07-16 10:35:47 GMT 51.302353 2.803518 40,000 287 462 0
2018-07-16 10:35:43 GMT 51.299961 2.816544 40,000 287 462 0
2018-07-16 10:35:40 GMT 51.297867 2.828311 40,000 287 462 0
2018-07-16 10:35:37 GMT 51.296329 2.836685 40,000 287 462 0
2018-07-16 10:35:34 GMT 51.294937 2.844568 40,000 287 461 0
2018-07-16 10:35:31 GMT 51.292923 2.855480 40,000 287 461 0
2018-07-16 10:35:27 GMT 51.290649 2.868347 40,000 287 461 0
2018-07-16 10:35:24 GMT 51.288879 2.877960 40,000 287 461 0
2018-07-16 10:35:21 GMT 51.287159 2.887650 40,000 287 461 0
2018-07-16 10:35:18 GMT 51.285553 2.896531 40,000 287 461 0
2018-07-16 10:35:15 GMT 51.283806 2.906189 40,000 287 461 0
2018-07-16 10:35:12 GMT 51.281754 2.917390 40,000 287 461 0
2018-07-16 10:35:09 GMT 51.279556 2.929415 40,000 287 461 -64
2018-07-16 10:35:06 GMT 51.277267 2.941886 40,000 287 461 0
2018-07-16 10:35:02 GMT 51.276127 2.948151 40,000 287 461 0
2018-07-16 10:34:59 GMT 51.274017 2.959925 40,000 287 461 0
2018-07-16 10:34:55 GMT 51.271545 2.973509 40,000 287 462 0
2018-07-16 10:34:52 GMT 51.269760 2.983456 40,000 287 462 0
2018-07-16 10:34:49 GMT 51.267380 2.996447 40,000 287 462 0
2018-07-16 10:34:46 GMT 51.266281 3.002460 40,000 287 462 0
2018-07-16 10:34:43 GMT 51.264587 3.011590 40,000 287 462 0
2018-07-16 10:34:40 GMT 51.262299 3.024139 40,000 287 462 0
2018-07-16 10:34:37 GMT 51.260902 3.031769 40,000 287 462 0
2018-07-16 10:34:34 GMT 51.258904 3.042679 40,000 287 462 0
2018-07-16 10:34:31 GMT 51.256668 3.055016 40,000 287 462 0
2018-07-16 10:34:28 GMT 51.255020 3.064146 40,000 287 462 0
2018-07-16 10:34:25 GMT 51.253780 3.070984 40,000 287 463 0
2018-07-16 10:34:20 GMT 51.250763 3.087455 40,000 287 463 0
2018-07-16 10:34:17 GMT 51.249081 3.096542 40,000 287 463 0
2018-07-16 10:34:14 GMT 51.247589 3.104706 40,000 287 463 0
2018-07-16 10:34:10 GMT 51.244377 3.122177 40,000 287 463 0
2018-07-16 10:34:07 GMT 51.242516 3.132401 40,000 287 463 0
2018-07-16 10:34:04 GMT 51.241241 3.139492 40,000 287 463 0
2018-07-16 10:34:01 GMT 51.239502 3.148919 40,000 287 463 0
2018-07-16 10:33:56 GMT 51.235813 3.168793 40,000 287 463 0
2018-07-16 10:33:53 GMT 51.234695 3.174826 40,000 287 463 0
2018-07-16 10:33:50 GMT 51.232132 3.188633 40,000 287 463 0
2018-07-16 10:33:47 GMT 51.230942 3.195240 40,000 287 463 0
2018-07-16 10:33:44 GMT 51.229523 3.202812 40,000 287 463 0
2018-07-16 10:33:41 GMT 51.227757 3.212509 40,000 287 463 0
2018-07-16 10:33:38 GMT 51.225384 3.225250 40,000 287 463 0
2018-07-16 10:33:35 GMT 51.223663 3.234434 40,000 287 463 0
2018-07-16 10:33:32 GMT 51.222198 3.242526 40,000 287 463 0
2018-07-16 10:33:29 GMT 51.220123 3.253784 40,000 287 463 0
2018-07-16 10:33:26 GMT 51.217987 3.265315 40,000 287 463 0
2018-07-16 10:33:23 GMT 51.216309 3.274460 40,000 287 463 0
2018-07-16 10:33:20 GMT 51.214584 3.283615 40,000 287 463 0
2018-07-16 10:33:16 GMT 51.212116 3.296890 40,000 287 463 0
2018-07-16 10:33:13 GMT 51.210663 3.304732 40,000 287 463 0
2018-07-16 10:33:10 GMT 51.208374 3.317055 40,000 287 470 0
2018-07-16 10:33:07 GMT 51.206680 3.326185 40,000 287 463 0
2018-07-16 10:33:03 GMT 51.204155 3.339767 40,000 287 464 0
2018-07-16 10:32:59 GMT 51.202202 3.350296 40,000 287 464 0
2018-07-16 10:32:56 GMT 51.200199 3.361282 40,000 287 464 0
2018-07-16 10:32:52 GMT 51.197453 3.375931 40,000 287 464 0
2018-07-16 10:32:49 GMT 51.195877 3.384234 40,000 287 464 0
2018-07-16 10:32:45 GMT 51.193077 3.399429 40,000 287 464 0
2018-07-16 10:32:42 GMT 51.190750 3.411713 40,000 287 464 0
2018-07-16 10:32:39 GMT 51.189148 3.420385 40,000 287 464 0
2018-07-16 10:32:36 GMT 51.187454 3.429516 40,000 287 465 0
2018-07-16 10:32:32 GMT 51.185394 3.440502 40,000 287 465 0
2018-07-16 10:32:29 GMT 51.183289 3.451786 40,000 287 465 0
2018-07-16 10:32:26 GMT 51.181812 3.459625 40,000 287 465 0
2018-07-16 10:32:23 GMT 51.180222 3.468042 40,000 287 465 0
2018-07-16 10:32:20 GMT 51.178181 3.479080 40,000 287 465 0
2018-07-16 10:32:17 GMT 51.176178 3.489532 40,000 287 465 0
2018-07-16 10:32:13 GMT 51.173676 3.502931 40,000 287 466 0
2018-07-16 10:32:10 GMT 51.171982 3.512062 40,000 287 466 0
2018-07-16 10:32:07 GMT 51.169895 3.523102 40,000 287 466 0
2018-07-16 10:32:03 GMT 51.167496 3.535965 40,000 287 466 0
2018-07-16 10:32:00 GMT 51.165657 3.545685 40,000 287 466 0
2018-07-16 10:31:57 GMT 51.163097 3.559341 40,000 287 466 0
2018-07-16 10:31:54 GMT 51.161819 3.566177 40,000 287 466 0
2018-07-16 10:31:51 GMT 51.160027 3.575592 40,000 287 467 0
2018-07-16 10:31:48 GMT 51.158112 3.585848 40,000 287 467 0
2018-07-16 10:31:45 GMT 51.156509 3.594534 40,000 287 467 0
2018-07-16 10:31:41 GMT 51.153927 3.608170 40,000 287 467 0
2018-07-16 10:31:38 GMT 51.152390 3.616333 40,000 287 467 0
2018-07-16 10:31:35 GMT 51.150761 3.625031 40,000 287 467 0
2018-07-16 10:31:32 GMT 51.148224 3.638479 40,000 287 467 0
2018-07-16 10:31:28 GMT 51.145752 3.651618 40,000 287 467 0
2018-07-16 10:31:25 GMT 51.143738 3.662159 40,000 287 467 0
2018-07-16 10:31:22 GMT 51.141998 3.671364 40,000 287 467 0
2018-07-16 10:31:19 GMT 51.140102 3.681335 40,000 287 468 0
2018-07-16 10:31:16 GMT 51.138245 3.691109 40,000 287 468 0
2018-07-16 10:31:13 GMT 51.136471 3.700562 40,000 287 468 0
2018-07-16 10:31:10 GMT 51.134766 3.709519 40,000 287 468 0
2018-07-16 10:31:07 GMT 51.132931 3.719254 40,000 287 468 0
2018-07-16 10:31:04 GMT 51.130882 3.730011 40,000 287 468 0
2018-07-16 10:31:01 GMT 51.129112 3.739243 40,000 287 468 0
2018-07-16 10:30:57 GMT 51.126461 3.753204 40,000 287 469 0
2018-07-16 10:30:54 GMT 51.124557 3.763263 40,000 287 469 0
2018-07-16 10:30:51 GMT 51.123276 3.770092 40,000 287 469 0
2018-07-16 10:30:48 GMT 51.120872 3.782730 40,000 287 470 0
2018-07-16 10:30:45 GMT 51.119293 3.790951 40,000 287 470 0
2018-07-16 10:30:42 GMT 51.116730 3.804387 40,000 287 470 0
2018-07-16 10:30:39 GMT 51.115429 3.811264 40,000 287 470 0
2018-07-16 10:30:36 GMT 51.112976 3.824133 40,000 287 470 0
2018-07-16 10:30:32 GMT 51.110538 3.837128 40,000 287 470 0
2018-07-16 10:30:29 GMT 51.108994 3.844992 40,000 287 470 0
2018-07-16 10:30:25 GMT 51.106861 3.856354 40,000 287 470 0
2018-07-16 10:30:22 GMT 51.104553 3.868227 40,000 287 471 0
2018-07-16 10:30:19 GMT 51.102253 3.880386 40,000 287 471 0
2018-07-16 10:30:15 GMT 51.099648 3.893890 40,000 287 470 0
2018-07-16 10:30:12 GMT 51.097645 3.904419 40,000 287 470 0
2018-07-16 10:30:08 GMT 51.095810 3.913954 40,000 287 471 0
2018-07-16 10:30:04 GMT 51.092617 3.930588 40,000 287 471 0
2018-07-16 10:30:01 GMT 51.091267 3.937454 40,000 287 471 0
2018-07-16 10:29:58 GMT 51.089584 3.946467 40,000 287 471 0
2018-07-16 10:29:54 GMT 51.087078 3.959427 40,000 287 471 0
2018-07-16 10:29:51 GMT 51.085098 3.969702 40,000 287 471 0
2018-07-16 10:29:48 GMT 51.082420 3.983765 40,000 288 471 0
2018-07-16 10:29:44 GMT 51.080235 3.995132 40,000 288 471 0
2018-07-16 10:29:41 GMT 51.078140 4.005966 40,000 288 471 0
2018-07-16 10:29:38 GMT 51.077164 4.011002 40,000 288 471 0
2018-07-16 10:29:35 GMT 51.074184 4.026566 40,000 289 471 0
2018-07-16 10:29:31 GMT 51.072132 4.037170 40,000 288 471 0
2018-07-16 10:29:28 GMT 51.070457 4.045868 40,000 288 471 0
2018-07-16 10:29:25 GMT 51.068573 4.055662 40,000 288 471 0
2018-07-16 10:29:22 GMT 51.065918 4.069470 40,000 288 471 0
2018-07-16 10:29:19 GMT 51.064499 4.076614 40,000 288 471 0
2018-07-16 10:29:16 GMT 51.061893 4.090042 40,000 288 471 0
2018-07-16 10:29:12 GMT 51.059566 4.102249 40,000 288 471 0
2018-07-16 10:29:08 GMT 51.057724 4.111708 40,000 288 471 0
2018-07-16 10:29:05 GMT 51.055935 4.120941 40,000 288 471 0
2018-07-16 10:29:02 GMT 51.053699 4.132614 40,000 288 471 0
2018-07-16 10:28:58 GMT 51.050766 4.147644 40,000 288 470 0
2018-07-16 10:28:55 GMT 51.049461 4.154205 40,000 288 470 0
2018-07-16 10:28:51 GMT 51.046326 4.170573 40,000 288 470 0
2018-07-16 10:28:47 GMT 51.044037 4.182154 40,000 288 470 0
2018-07-16 10:28:44 GMT 51.042480 4.190319 40,000 288 472 0
2018-07-16 10:28:41 GMT 51.040466 4.200637 40,000 288 470 0
2018-07-16 10:28:38 GMT 51.038406 4.211178 40,000 288 472 0
2018-07-16 10:28:35 GMT 51.036346 4.221719 40,000 288 470 0
2018-07-16 10:28:32 GMT 51.034473 4.231491 40,000 288 470 0
2018-07-16 10:28:29 GMT 51.032516 4.241486 40,000 288 470 0
2018-07-16 10:28:26 GMT 51.030670 4.250967 40,000 288 470 0
2018-07-16 10:28:22 GMT 51.027397 4.267807 40,000 288 470 0
2018-07-16 10:28:19 GMT 51.026001 4.274979 40,000 288 472 0
2018-07-16 10:28:16 GMT 51.024509 4.282608 40,000 288 472 0
2018-07-16 10:28:13 GMT 51.022568 4.292388 40,000 288 471 0
2018-07-16 10:28:10 GMT 51.020370 4.303671 40,000 288 471 0
2018-07-16 10:28:07 GMT 51.018555 4.312897 40,000 288 472 0
2018-07-16 10:28:04 GMT 51.015976 4.326089 40,000 288 473 0
2018-07-16 10:28:01 GMT 51.014236 4.335071 40,000 288 472 0
2018-07-16 10:27:58 GMT 51.012680 4.343014 40,000 288 475 64
2018-07-16 10:27:54 GMT 51.009750 4.357786 40,000 288 472 0
2018-07-16 10:27:51 GMT 51.007416 4.369664 40,000 288 472 0
2018-07-16 10:27:48 GMT 51.005520 4.379425 40,000 288 472 0
2018-07-16 10:27:45 GMT 51.004353 4.385223 40,000 288 472 64
2018-07-16 10:27:42 GMT 51.001514 4.399796 40,000 288 472 64
2018-07-16 10:27:39 GMT 51.000229 4.406334 40,000 288 473 0
2018-07-16 10:27:36 GMT 50.998161 4.416656 40,000 288 478 0
2018-07-16 10:27:33 GMT 50.995647 4.429626 40,000 288 473 0
2018-07-16 10:27:28 GMT 50.993088 4.442596 40,000 288 473 0
2018-07-16 10:27:25 GMT 50.990616 4.455030 40,000 288 474 -64
2018-07-16 10:27:22 GMT 50.989288 4.461934 40,000 288 474 -64
2018-07-16 10:27:17 GMT 50.986012 4.478302 40,000 288 474 0
2018-07-16 10:27:14 GMT 50.983841 4.489474 40,000 288 475 0
2018-07-16 10:27:11 GMT 50.981735 4.500089 40,000 288 475 64
2018-07-16 10:27:08 GMT 50.979950 4.509071 40,000 288 475 0
2018-07-16 10:27:05 GMT 50.978100 4.518356 40,000 288 475 64
2018-07-16 10:27:01 GMT 50.975399 4.532166 40,000 288 475 0
2018-07-16 10:26:58 GMT 50.972717 4.545742 40,000 288 475 0
2018-07-16 10:26:55 GMT 50.971394 4.552383 40,000 288 476 0
2018-07-16 10:26:51 GMT 50.968369 4.567795 40,000 288 476 0
2018-07-16 10:26:48 GMT 50.966721 4.576028 40,000 288 476 0
2018-07-16 10:26:45 GMT 50.964832 4.585648 40,000 288 476 0
2018-07-16 10:26:42 GMT 50.962189 4.598892 40,000 288 476 0
2018-07-16 10:26:39 GMT 50.960457 4.607697 40,000 288 476 0
2018-07-16 10:26:36 GMT 50.958389 4.618044 40,000 288 477 0
2018-07-16 10:26:33 GMT 50.956421 4.627916 40,000 288 477 0
2018-07-16 10:26:29 GMT 50.954449 4.637756 40,000 288 478 0
2018-07-16 10:26:26 GMT 50.951935 4.650260 40,000 288 478 0
2018-07-16 10:26:23 GMT 50.950123 4.659348 40,000 288 478 0
2018-07-16 10:26:18 GMT 50.946533 4.677207 40,000 288 479 0
2018-07-16 10:26:15 GMT 50.944290 4.688416 40,000 288 478 0
2018-07-16 10:26:12 GMT 50.942394 4.698029 40,000 288 478 0
2018-07-16 10:26:09 GMT 50.941040 4.704672 40,000 288 479 0
2018-07-16 10:26:06 GMT 50.938751 4.716104 40,000 288 479 0
2018-07-16 10:26:03 GMT 50.937286 4.723601 40,000 288 479 0
2018-07-16 10:26:00 GMT 50.934998 4.735107 40,000 288 479 0
2018-07-16 10:25:56 GMT 50.931732 4.751358 40,000 288 479 0
2018-07-16 10:25:53 GMT 50.930477 4.757538 40,000 288 479 0
2018-07-16 10:25:49 GMT 50.927628 4.771926 40,000 288 479 0
2018-07-16 10:25:46 GMT 50.925430 4.782839 40,000 290 479 0
2018-07-16 10:25:42 GMT 50.922867 4.795681 40,000 288 479 0
2018-07-16 10:25:39 GMT 50.920807 4.805776 40,000 288 479 0
2018-07-16 10:25:36 GMT 50.918884 4.815445 40,000 288 479 0
2018-07-16 10:25:33 GMT 50.916370 4.827957 40,000 288 479 0
2018-07-16 10:25:30 GMT 50.914307 4.838364 40,000 288 477 0
2018-07-16 10:25:27 GMT 50.912971 4.845047 40,000 288 478 0
2018-07-16 10:25:24 GMT 50.911285 4.853285 40,000 288 478 0
2018-07-16 10:25:21 GMT 50.908951 4.865013 40,000 288 478 0
2018-07-16 10:25:18 GMT 50.906433 4.877559 40,000 288 478 0
2018-07-16 10:25:15 GMT 50.904827 4.885483 40,000 288 478 0
2018-07-16 10:25:12 GMT 50.902779 4.895630 40,000 288 478 0
2018-07-16 10:25:09 GMT 50.900822 4.905472 40,000 288 478 0
2018-07-16 10:25:06 GMT 50.899052 4.914246 40,000 288 477 0
2018-07-16 10:25:03 GMT 50.896725 4.925690 40,000 288 477 0
2018-07-16 10:25:00 GMT 50.894352 4.937363 40,000 288 477 0
2018-07-16 10:24:56 GMT 50.891418 4.951935 40,000 288 476 0
2018-07-16 10:24:53 GMT 50.889790 4.959869 40,000 288 476 0
2018-07-16 10:24:50 GMT 50.888535 4.966266 40,000 288 475 0
2018-07-16 10:24:47 GMT 50.886391 4.976807 40,000 288 475 0
2018-07-16 10:24:41 GMT 50.882401 4.996404 40,000 288 475 0
2018-07-16 10:24:38 GMT 50.880013 5.008316 40,000 288 474 0
2018-07-16 10:24:35 GMT 50.878326 5.016447 40,000 288 474 0
2018-07-16 10:24:32 GMT 50.875717 5.029363 40,000 288 473 0
2018-07-16 10:24:29 GMT 50.873962 5.038071 40,000 288 473 0
2018-07-16 10:24:26 GMT 50.871643 5.049405 40,000 288 473 0
2018-07-16 10:24:23 GMT 50.870609 5.054398 40,000 288 473 0
2018-07-16 10:24:20 GMT 50.868328 5.065689 40,000 288 472 0
2018-07-16 10:24:17 GMT 50.866047 5.076981 40,000 288 472 0
2018-07-16 10:24:14 GMT 50.863586 5.089120 40,000 288 472 0
2018-07-16 10:24:10 GMT 50.861580 5.098801 40,000 288 471 0
2018-07-16 10:24:07 GMT 50.859467 5.109311 40,000 288 471 0
2018-07-16 10:24:04 GMT 50.856922 5.121613 40,000 288 470 0
2018-07-16 10:24:01 GMT 50.855621 5.128098 40,000 288 470 0
2018-07-16 10:23:58 GMT 50.853699 5.137519 40,000 288 469 0
2018-07-16 10:23:55 GMT 50.851273 5.149322 40,000 288 469 0
2018-07-16 10:23:51 GMT 50.848034 5.165253 40,000 290 469 0
2018-07-16 10:23:48 GMT 50.846375 5.173373 40,000 288 469 0
2018-07-16 10:23:45 GMT 50.844772 5.181167 40,000 288 469 0
2018-07-16 10:23:41 GMT 50.841606 5.196609 40,000 288 469 0
2018-07-16 10:23:38 GMT 50.840332 5.202843 40,000 288 469 0
2018-07-16 10:23:35 GMT 50.838089 5.213755 40,000 288 469 0
2018-07-16 10:23:32 GMT 50.835388 5.226820 40,000 288 469 0
2018-07-16 10:23:28 GMT 50.833088 5.238037 40,000 288 469 0
2018-07-16 10:23:25 GMT 50.830902 5.248718 40,000 288 469 0
2018-07-16 10:23:22 GMT 50.829132 5.257339 40,000 288 469 0
2018-07-16 10:23:19 GMT 50.827194 5.266682 40,000 288 469 0
2018-07-16 10:23:16 GMT 50.824768 5.278708 40,000 288 469 0
2018-07-16 10:23:13 GMT 50.823452 5.284958 40,000 289 469 0
2018-07-16 10:23:10 GMT 50.820557 5.298973 40,000 288 469 0
2018-07-16 10:23:07 GMT 50.819183 5.305803 40,000 288 469 0
2018-07-16 10:23:04 GMT 50.817032 5.316195 40,000 288 469 0
2018-07-16 10:23:01 GMT 50.814560 5.328140 40,000 288 469 0
2018-07-16 10:22:58 GMT 50.813370 5.333862 40,000 288 469 0
2018-07-16 10:22:55 GMT 50.810696 5.346909 40,000 288 469 0
2018-07-16 10:22:52 GMT 50.809345 5.353394 40,000 288 469 0
2018-07-16 10:22:49 GMT 50.806641 5.366673 40,000 289 468 0
2018-07-16 10:22:46 GMT 50.804737 5.375748 40,000 289 469 0
2018-07-16 10:22:43 GMT 50.803207 5.383301 40,000 289 469 0
2018-07-16 10:22:40 GMT 50.800598 5.395772 40,000 289 469 0
2018-07-16 10:22:37 GMT 50.799244 5.402298 40,000 289 469 0
2018-07-16 10:22:34 GMT 50.796982 5.413216 40,000 289 469 0
2018-07-16 10:22:31 GMT 50.795055 5.422592 40,000 289 469 0
2018-07-16 10:22:28 GMT 50.792999 5.432517 40,000 289 469 0
2018-07-16 10:22:25 GMT 50.791397 5.440311 40,000 289 469 0
2018-07-16 10:22:22 GMT 50.789154 5.451223 40,000 289 469 0
2018-07-16 10:22:18 GMT 50.786674 5.463181 40,000 289 470 -64
2018-07-16 10:22:15 GMT 50.783882 5.476456 40,000 289 470 0
2018-07-16 10:22:11 GMT 50.782104 5.484999 40,000 289 470 0
2018-07-16 10:22:08 GMT 50.779461 5.497742 40,000 289 470 0
2018-07-16 10:22:05 GMT 50.777134 5.508957 40,000 289 470 0
2018-07-16 10:22:02 GMT 50.775055 5.518848 40,000 289 470 0
2018-07-16 10:21:59 GMT 50.772858 5.529538 40,000 289 470 64
2018-07-16 10:21:56 GMT 50.770893 5.538864 40,000 289 470 0
2018-07-16 10:21:53 GMT 50.769497 5.545654 40,000 289 470 0
2018-07-16 10:21:50 GMT 50.767776 5.553970 40,000 289 470 0
2018-07-16 10:21:47 GMT 50.765625 5.564130 40,000 289 470 -64
2018-07-16 10:21:44 GMT 50.762878 5.577417 40,000 289 470 0
2018-07-16 10:21:41 GMT 50.760189 5.590134 40,000 289 470 0
2018-07-16 10:21:36 GMT 50.757812 5.601578 40,000 289 470 0
2018-07-16 10:21:33 GMT 50.755463 5.612752 40,000 289 470 0
2018-07-16 10:21:30 GMT 50.754089 5.619284 40,000 289 470 0
2018-07-16 10:21:27 GMT 50.751064 5.633850 40,000 289 470 0
2018-07-16 10:21:24 GMT 50.749435 5.641708 40,000 289 470 0
2018-07-16 10:21:21 GMT 50.747910 5.648977 40,000 289 470 0
2018-07-16 10:21:18 GMT 50.745293 5.661469 40,000 289 472 0
2018-07-16 10:21:15 GMT 50.743103 5.671921 40,000 289 470 0
2018-07-16 10:21:12 GMT 50.741009 5.681763 40,000 289 471 0
2018-07-16 10:21:09 GMT 50.739147 5.690613 40,000 289 472 0
2018-07-16 10:21:05 GMT 50.736958 5.701065 40,000 289 472 0
2018-07-16 10:21:02 GMT 50.734634 5.712000 40,000 289 472 0
2018-07-16 10:20:59 GMT 50.732208 5.723495 40,000 289 472 0
2018-07-16 10:20:55 GMT 50.729744 5.735168 40,000 289 472 0
2018-07-16 10:20:52 GMT 50.727722 5.744810 40,000 289 472 0
2018-07-16 10:20:49 GMT 50.725880 5.753708 40,000 289 472 0
2018-07-16 10:20:46 GMT 50.724018 5.762558 40,000 289 472 0
2018-07-16 10:20:43 GMT 50.721596 5.774002 40,000 289 471 0
2018-07-16 10:20:40 GMT 50.718887 5.786826 40,000 289 472 0
2018-07-16 10:20:37 GMT 50.717377 5.794100 40,000 289 472 0
2018-07-16 10:20:33 GMT 50.714333 5.808411 40,000 289 472 0
2018-07-16 10:20:30 GMT 50.712097 5.819092 40,000 289 472 64
2018-07-16 10:20:27 GMT 50.710423 5.826950 40,000 289 472 0
2018-07-16 10:20:24 GMT 50.708908 5.834186 40,000 289 477 0
2018-07-16 10:20:21 GMT 50.706116 5.847250 40,000 289 472 -64
2018-07-16 10:20:17 GMT 50.703690 5.858682 40,000 289 472 0
2018-07-16 10:20:14 GMT 50.701309 5.870114 40,000 289 472 0
2018-07-16 10:20:10 GMT 50.698879 5.881577 40,000 289 472 -64
2018-07-16 10:20:07 GMT 50.696915 5.890676 40,000 289 472 -64
2018-07-16 10:20:04 GMT 50.695267 5.898545 40,000 289 472 0
2018-07-16 10:20:01 GMT 50.692841 5.909976 40,000 289 472 0
2018-07-16 10:19:58 GMT 50.690594 5.920639 40,000 289 472 0
2018-07-16 10:19:55 GMT 50.688400 5.930836 40,000 289 474 0
2018-07-16 10:19:52 GMT 50.685883 5.942787 40,000 289 472 64
2018-07-16 10:19:49 GMT 50.683517 5.953751 40,000 289 473 64
2018-07-16 10:19:46 GMT 50.682072 5.960541 40,000 289 473 0
2018-07-16 10:19:43 GMT 50.679428 5.972999 40,000 289 473 0
2018-07-16 10:19:39 GMT 50.676865 5.985025 40,000 289 473 0
2018-07-16 10:19:36 GMT 50.675369 5.992050 40,000 289 474 -64
2018-07-16 10:19:33 GMT 50.673042 6.002808 40,000 290 477 0
2018-07-16 10:19:30 GMT 50.670593 6.014292 40,000 289 474 0
2018-07-16 10:19:27 GMT 50.668579 6.023688 40,000 289 474 0
2018-07-16 10:19:24 GMT 50.666527 6.033350 40,000 289 475 0
2018-07-16 10:19:21 GMT 50.665314 6.039140 40,000 289 474 64
2018-07-16 10:19:18 GMT 50.662987 6.050126 40,000 289 475 64
2018-07-16 10:19:15 GMT 50.659962 6.064230 40,000 289 475 -64
2018-07-16 10:19:12 GMT 50.658192 6.072619 40,000 289 475 -64
2018-07-16 10:19:09 GMT 50.656006 6.082863 40,000 289 475 0
2018-07-16 10:19:06 GMT 50.654160 6.091485 40,000 289 475 0
2018-07-16 10:19:03 GMT 50.651688 6.103050 40,000 289 477 0
2018-07-16 10:18:59 GMT 50.649487 6.113224 40,000 289 475 0
2018-07-16 10:18:56 GMT 50.647522 6.122420 40,000 289 475 0
2018-07-16 10:18:53 GMT 50.645390 6.132375 40,000 289 477 0
2018-07-16 10:18:50 GMT 50.643250 6.142322 40,000 289 475 -64
2018-07-16 10:18:47 GMT 50.641155 6.152047 40,000 288 455 1728
2018-07-16 10:18:44 GMT 50.638550 6.164125 40,000 289 470 0
2018-07-16 10:18:41 GMT 50.636684 6.172758 40,000 290 477 0
2018-07-16 10:18:38 GMT 50.634384 6.183496 40,000 289 477 0
2018-07-16 10:18:35 GMT 50.632683 6.191390 40,000 289 477 0
2018-07-16 10:18:32 GMT 50.630585 6.201059 40,000 289 477 0
2018-07-16 10:18:29 GMT 50.628120 6.212620 40,000 289 477 0
2018-07-16 10:18:26 GMT 50.626648 6.219418 40,000 289 477 0
2018-07-16 10:18:23 GMT 50.624039 6.231489 40,000 289 477 0
2018-07-16 10:18:20 GMT 50.622112 6.240383 40,000 289 476 0
2018-07-16 10:18:17 GMT 50.620113 6.249588 40,000 289 475 0
2018-07-16 10:18:14 GMT 50.617813 6.260328 40,000 289 477 0
2018-07-16 10:18:11 GMT 50.615936 6.268929 40,000 289 476 0
2018-07-16 10:18:08 GMT 50.612778 6.283601 40,000 289 476 0
2018-07-16 10:18:05 GMT 50.611588 6.289095 40,000 289 476 64
2018-07-16 10:18:02 GMT 50.609451 6.299100 40,000 289 476 0
2018-07-16 10:17:59 GMT 50.607239 6.309260 40,000 289 476 0
2018-07-16 10:17:56 GMT 50.604538 6.321837 40,000 289 476 0
2018-07-16 10:17:53 GMT 50.602840 6.329684 40,000 289 475 0
2018-07-16 10:17:50 GMT 50.600006 6.342725 40,000 289 475 0
2018-07-16 10:17:47 GMT 50.598419 6.350098 40,000 289 475 0
2018-07-16 10:17:44 GMT 50.596416 6.359228 40,000 289 472 0
2018-07-16 10:17:41 GMT 50.594604 6.367517 40,000 289 474 0
2018-07-16 10:17:38 GMT 50.591583 6.381611 40,000 289 474 0
2018-07-16 10:17:35 GMT 50.590118 6.388405 40,000 290 472 0
2018-07-16 10:17:32 GMT 50.588039 6.397977 40,000 289 472 0
2018-07-16 10:17:29 GMT 50.585197 6.410968 40,000 289 472 0
2018-07-16 10:17:26 GMT 50.583847 6.417172 40,000 289 472 0
2018-07-16 10:17:23 GMT 50.581924 6.425990 40,000 289 472 0
2018-07-16 10:17:20 GMT 50.579544 6.436904 40,000 289 471 0
2018-07-16 10:17:17 GMT 50.577576 6.445939 40,000 289 471 0
2018-07-16 10:17:14 GMT 50.574818 6.458625 40,000 289 471 0
2018-07-16 10:17:11 GMT 50.573513 6.464563 40,000 289 471 0
2018-07-16 10:17:08 GMT 50.571030 6.475934 40,000 289 471 0
2018-07-16 10:17:05 GMT 50.569061 6.484969 40,000 289 470 0
2018-07-16 10:17:02 GMT 50.566998 6.494553 40,000 289 470 0
2018-07-16 10:16:59 GMT 50.564156 6.507469 40,000 289 471 0
2018-07-16 10:16:56 GMT 50.562714 6.514150 40,000 289 471 0
2018-07-16 10:16:53 GMT 50.560574 6.523949 40,000 289 471 0
2018-07-16 10:16:48 GMT 50.557034 6.539983 40,000 290 472 0
2018-07-16 10:16:45 GMT 50.554367 6.552188 40,000 289 471 0
2018-07-16 10:16:42 GMT 50.552902 6.558910 40,000 290 472 0
2018-07-16 10:16:38 GMT 50.549377 6.574956 40,000 290 472 0
2018-07-16 10:16:34 GMT 50.546604 6.587640 40,000 290 472 0
2018-07-16 10:16:31 GMT 50.545536 6.592539 40,000 290 472 0
2018-07-16 10:16:28 GMT 50.543068 6.603674 40,000 290 472 0
2018-07-16 10:16:25 GMT 50.540955 6.613264 40,000 290 473 0
2018-07-16 10:16:22 GMT 50.538025 6.626707 40,000 290 473 0
2018-07-16 10:16:19 GMT 50.536926 6.631622 40,000 290 473 0
2018-07-16 10:16:16 GMT 50.534409 6.643042 40,000 290 472 0
2018-07-16 10:16:11 GMT 50.530701 6.659883 40,000 290 472 0
2018-07-16 10:16:08 GMT 50.528591 6.669443 40,000 290 472 0
2018-07-16 10:16:05 GMT 50.526447 6.679316 40,000 290 472 0
2018-07-16 10:16:02 GMT 50.523743 6.691469 40,000 290 472 0
2018-07-16 10:15:59 GMT 50.522072 6.698988 40,000 290 472 0
2018-07-16 10:15:56 GMT 50.520119 6.708044 40,000 290 472 0
2018-07-16 10:15:53 GMT 50.517059 6.721754 40,000 290 473 0
2018-07-16 10:15:50 GMT 50.515915 6.726958 40,000 290 473 64
2018-07-16 10:15:47 GMT 50.513626 6.737293 40,000 290 473 0
2018-07-16 10:15:44 GMT 50.510899 6.749688 40,000 290 473 0
2018-07-16 10:15:40 GMT 50.508728 6.759483 40,000 290 473 0
2018-07-16 10:15:37 GMT 50.505733 6.772997 40,000 290 474 0
2018-07-16 10:15:33 GMT 50.502914 6.785648 40,000 290 473 0
2018-07-16 10:15:30 GMT 50.501495 6.792149 40,000 290 473 0
2018-07-16 10:15:27 GMT 50.499435 6.801404 40,000 290 473 0
2018-07-16 10:15:24 GMT 50.496689 6.813836 40,000 290 473 0
2018-07-16 10:15:20 GMT 50.494606 6.823178 40,000 290 474 0
2018-07-16 10:15:17 GMT 50.492065 6.834580 40,000 290 474 0
2018-07-16 10:15:14 GMT 50.489487 6.846264 40,000 290 474 0
2018-07-16 10:15:11 GMT 50.487297 6.856063 40,000 290 474 0
2018-07-16 10:15:08 GMT 50.485794 6.862841 40,000 290 474 0
2018-07-16 10:15:05 GMT 50.483341 6.873953 40,000 290 474 0
2018-07-16 10:15:02 GMT 50.480782 6.885384 40,000 290 474 0
2018-07-16 10:14:59 GMT 50.479019 6.893126 40,000 290 475 0
2018-07-16 10:14:56 GMT 50.476963 6.902458 40,000 290 474 0
2018-07-16 10:14:53 GMT 50.475037 6.911051 40,000 290 474 0
2018-07-16 10:14:50 GMT 50.471970 6.924784 40,000 290 475 0
2018-07-16 10:14:47 GMT 50.470505 6.931289 40,000 290 475 0
2018-07-16 10:14:44 GMT 50.467838 6.943211 40,000 290 475 0
2018-07-16 10:14:40 GMT 50.464256 6.959319 40,000 290 477 0
2018-07-16 10:14:36 GMT 50.462765 6.966074 40,000 290 478 64
2018-07-16 10:14:33 GMT 50.460114 6.978100 40,000 290 476 0
2018-07-16 10:14:30 GMT 50.457878 6.987973 40,000 290 477 0
2018-07-16 10:14:27 GMT 50.455170 7.000243 40,000 290 477 0
2018-07-16 10:14:24 GMT 50.453735 7.006753 40,000 290 477 0
2018-07-16 10:14:21 GMT 50.451874 7.015067 40,000 290 477 0
2018-07-16 10:14:18 GMT 50.448845 7.028949 40,000 290 478 64
2018-07-16 10:14:14 GMT 50.447079 7.037040 40,000 289 477 0
2018-07-16 10:14:11 GMT 50.443771 7.051961 40,000 289 477 64
2018-07-16 10:14:08 GMT 50.442238 7.059013 40,000 289 478 64
2018-07-16 10:14:05 GMT 50.440140 7.068663 40,000 289 478 0
2018-07-16 10:14:02 GMT 50.438652 7.075492 40,000 289 478 0
2018-07-16 10:13:59 GMT 50.435207 7.091229 40,000 289 478 0
2018-07-16 10:13:54 GMT 50.432274 7.104814 40,000 289 479 0
2018-07-16 10:13:51 GMT 50.430222 7.114298 40,000 289 479 0
2018-07-16 10:13:48 GMT 50.427990 7.124560 40,000 290 479 0
2018-07-16 10:13:44 GMT 50.424732 7.139480 40,000 292 474 0
2018-07-16 10:13:41 GMT 50.423035 7.147329 40,000 290 479 0
2018-07-16 10:13:38 GMT 50.420975 7.156798 40,000 289 480 -64
2018-07-16 10:13:34 GMT 50.417953 7.170458 40,000 290 479 0
2018-07-16 10:13:31 GMT 50.415703 7.180679 40,000 290 479 0
2018-07-16 10:13:28 GMT 50.413559 7.190032 40,000 290 479 0
2018-07-16 10:13:25 GMT 50.411976 7.196861 40,000 292 478 0
2018-07-16 10:13:22 GMT 50.409138 7.209110 40,000 292 477 0
2018-07-16 10:13:19 GMT 50.407104 7.217728 40,000 291 480 0
2018-07-16 10:13:16 GMT 50.404156 7.229895 40,000 291 480 0
2018-07-16 10:13:12 GMT 50.401222 7.241772 40,000 292 479 0
2018-07-16 10:13:08 GMT 50.397591 7.256247 40,000 292 480 0
2018-07-16 10:13:05 GMT 50.395706 7.263770 40,000 292 479 64
2018-07-16 10:13:01 GMT 50.391586 7.280033 40,000 292 480 0
2018-07-16 10:12:57 GMT 50.388233 7.293140 40,000 292 480 -64
2018-07-16 10:12:54 GMT 50.385269 7.305041 40,000 292 480 0
2018-07-16 10:12:51 GMT 50.383629 7.311476 40,000 292 479 0
2018-07-16 10:12:48 GMT 50.381836 7.318412 40,000 292 479 0
2018-07-16 10:12:45 GMT 50.378693 7.330850 40,000 292 479 0
2018-07-16 10:12:42 GMT 50.377014 7.337531 40,000 292 479 64
2018-07-16 10:12:39 GMT 50.374329 7.348047 40,000 292 479 0
2018-07-16 10:12:36 GMT 50.371765 7.358093 40,000 292 478 0
2018-07-16 10:12:33 GMT 50.369431 7.367417 40,000 292 478 0
2018-07-16 10:12:30 GMT 50.366867 7.377394 40,000 292 478 0
2018-07-16 10:12:27 GMT 50.363754 7.389751 40,000 292 478 0
2018-07-16 10:12:23 GMT 50.361469 7.398772 40,000 292 477 0
2018-07-16 10:12:20 GMT 50.358719 7.409556 40,000 292 477 0
2018-07-16 10:12:17 GMT 50.356300 7.419038 40,000 292 477 0
2018-07-16 10:12:14 GMT 50.354095 7.427697 40,000 292 477 0
2018-07-16 10:12:11 GMT 50.350899 7.440268 40,000 292 477 0
2018-07-16 10:12:08 GMT 50.348557 7.449453 40,000 292 476 0
2018-07-16 10:12:05 GMT 50.346989 7.455560 40,000 292 476 0
2018-07-16 10:12:02 GMT 50.343872 7.467808 40,000 292 474 0
2018-07-16 10:11:58 GMT 50.340939 7.479314 40,000 292 474 0
2018-07-16 10:11:55 GMT 50.337845 7.491230 40,000 292 474 0
2018-07-16 10:11:52 GMT 50.336060 7.498386 40,000 292 474 0
2018-07-16 10:11:48 GMT 50.332581 7.511830 40,000 292 473 0
2018-07-16 10:11:43 GMT 50.328644 7.527297 40,000 292 473 0
2018-07-16 10:11:40 GMT 50.326492 7.535681 40,000 292 473 0
2018-07-16 10:11:37 GMT 50.323380 7.547897 40,000 292 473 0
2018-07-16 10:11:34 GMT 50.321293 7.555996 40,000 292 472 0
2018-07-16 10:11:29 GMT 50.316589 7.574479 40,000 292 472 0
2018-07-16 10:11:25 GMT 50.314224 7.583602 40,000 292 473 0
2018-07-16 10:11:22 GMT 50.310772 7.597046 40,000 292 472 0
2018-07-16 10:11:18 GMT 50.308212 7.607141 40,000 292 472 0
2018-07-16 10:11:15 GMT 50.306118 7.615233 40,000 292 472 0
2018-07-16 10:11:12 GMT 50.303696 7.624656 40,000 292 474 0
2018-07-16 10:11:09 GMT 50.301228 7.634236 40,000 292 473 0
2018-07-16 10:11:06 GMT 50.298111 7.646410 40,000 292 473 0
2018-07-16 10:11:03 GMT 50.296463 7.652700 40,000 292 475 0
2018-07-16 10:11:00 GMT 50.293579 7.663831 40,000 292 473 0
2018-07-16 10:10:57 GMT 50.291546 7.671723 40,000 292 473 -64
2018-07-16 10:10:54 GMT 50.288242 7.684640 40,000 292 474 -64
2018-07-16 10:10:51 GMT 50.285751 7.694260 40,000 292 474 0
2018-07-16 10:10:48 GMT 50.283829 7.701633 40,000 292 474 0
2018-07-16 10:10:45 GMT 50.281631 7.710250 40,000 293 474 64
2018-07-16 10:10:42 GMT 50.279675 7.717821 40,000 293 474 64
2018-07-16 10:10:39 GMT 50.276695 7.729253 40,000 293 474 64
2018-07-16 10:10:36 GMT 50.273811 7.740388 40,000 292 475 0
2018-07-16 10:10:33 GMT 50.271561 7.749048 40,000 293 476 0
2018-07-16 10:10:30 GMT 50.268997 7.758950 40,000 293 476 0
2018-07-16 10:10:26 GMT 50.265701 7.771671 40,000 293 476 0
2018-07-16 10:10:23 GMT 50.263290 7.781067 40,000 293 476 0
2018-07-16 10:10:20 GMT 50.259979 7.793860 40,000 293 476 0
2018-07-16 10:10:16 GMT 50.256680 7.806603 40,000 293 477 0
2018-07-16 10:10:13 GMT 50.254440 7.815255 40,000 293 477 0
2018-07-16 10:10:10 GMT 50.252304 7.823379 40,000 293 477 0
2018-07-16 10:10:07 GMT 50.250069 7.832064 40,000 293 477 0
2018-07-16 10:10:02 GMT 50.245785 7.848692 40,000 293 477 0
2018-07-16 10:09:58 GMT 50.242401 7.861657 40,000 293 477 64
2018-07-16 10:09:55 GMT 50.240013 7.870813 40,000 293 477 0
2018-07-16 10:09:52 GMT 50.237312 7.881280 40,000 293 477 0
2018-07-16 10:09:49 GMT 50.235172 7.889446 40,000 293 477 0
2018-07-16 10:09:46 GMT 50.232651 7.899098 40,000 293 477 0
2018-07-16 10:09:43 GMT 50.230682 7.906759 40,000 293 477 0
2018-07-16 10:09:40 GMT 50.227444 7.919213 40,000 293 477 0
2018-07-16 10:09:37 GMT 50.225372 7.927142 40,000 293 477 0
2018-07-16 10:09:34 GMT 50.222881 7.936509 40,000 293 477 0
2018-07-16 10:09:31 GMT 50.220646 7.945194 40,000 293 478 -64
2018-07-16 10:09:28 GMT 50.218040 7.955141 40,000 293 477 0
2018-07-16 10:09:25 GMT 50.214661 7.968124 40,000 293 477 0
2018-07-16 10:09:22 GMT 50.212784 7.975207 40,000 293 478 0
2018-07-16 10:09:19 GMT 50.210358 7.984611 40,000 293 477 0
2018-07-16 10:09:16 GMT 50.208546 7.991514 40,000 293 478 0
2018-07-16 10:09:13 GMT 50.205551 8.002962 40,000 293 478 64
2018-07-16 10:09:10 GMT 50.202957 8.012893 40,000 293 478 0
2018-07-16 10:09:07 GMT 50.199875 8.024645 40,000 293 478 -64
2018-07-16 10:09:04 GMT 50.198486 8.029967 40,000 293 478 0
2018-07-16 10:09:01 GMT 50.195709 8.040691 40,000 293 478 0
2018-07-16 10:08:58 GMT 50.192505 8.052906 40,000 293 478 0
2018-07-16 10:08:54 GMT 50.189503 8.064410 40,000 293 478 0
2018-07-16 10:08:51 GMT 50.186462 8.075891 40,000 293 478 0
2018-07-16 10:08:48 GMT 50.184494 8.083480 40,000 293 478 0
2018-07-16 10:08:45 GMT 50.181591 8.094474 40,000 293 479 0
2018-07-16 10:08:42 GMT 50.179913 8.100858 40,000 293 479 0
2018-07-16 10:08:39 GMT 50.176701 8.113106 40,000 293 479 0
2018-07-16 10:08:36 GMT 50.174561 8.121272 40,000 293 479 0
2018-07-16 10:08:33 GMT 50.171070 8.134559 40,000 293 479 0
2018-07-16 10:08:29 GMT 50.168510 8.144210 40,000 293 481 0
2018-07-16 10:08:26 GMT 50.165955 8.153952 40,000 293 479 0
2018-07-16 10:08:23 GMT 50.163483 8.163348 40,000 293 479 0
2018-07-16 10:08:19 GMT 50.160141 8.176141 40,000 293 480 0
2018-07-16 10:08:16 GMT 50.158173 8.183553 40,000 293 480 0
2018-07-16 10:08:13 GMT 50.155148 8.195058 40,000 293 480 0
2018-07-16 10:08:10 GMT 50.153183 8.202450 40,000 293 481 0
2018-07-16 10:08:07 GMT 50.149338 8.217051 40,000 293 481 0
2018-07-16 10:08:04 GMT 50.148148 8.221676 40,000 293 481 0
2018-07-16 10:08:01 GMT 50.145218 8.232663 40,000 293 481 0
2018-07-16 10:07:58 GMT 50.141926 8.245165 40,000 293 481 0
2018-07-16 10:07:55 GMT 50.139927 8.252588 40,000 293 481 0
2018-07-16 10:07:52 GMT 50.137024 8.263598 40,000 293 481 0
2018-07-16 10:07:49 GMT 50.134781 8.272055 40,000 293 481 0
2018-07-16 10:07:46 GMT 50.132217 8.281740 40,000 293 481 0
2018-07-16 10:07:43 GMT 50.129219 8.293045 40,000 293 482 0
2018-07-16 10:07:40 GMT 50.127914 8.297870 40,000 293 482 0
2018-07-16 10:07:37 GMT 50.124390 8.311230 40,000 293 482 0
2018-07-16 10:07:34 GMT 50.121819 8.320882 40,000 293 482 0
2018-07-16 10:07:31 GMT 50.118744 8.332462 40,000 293 482 0
2018-07-16 10:07:27 GMT 50.116196 8.342165 40,000 293 482 0
2018-07-16 10:07:24 GMT 50.113716 8.351391 40,000 293 482 0
2018-07-16 10:07:21 GMT 50.111160 8.361102 40,000 293 482 64
2018-07-16 10:07:18 GMT 50.108505 8.371076 40,000 293 482 64
2018-07-16 10:07:14 GMT 50.105026 8.384158 40,000 293 482 0
2018-07-16 10:07:11 GMT 50.102776 8.392590 40,000 293 481 0
2018-07-16 10:07:08 GMT 50.100220 8.402373 40,000 293 482 0
2018-07-16 10:07:05 GMT 50.097748 8.411593 40,000 293 482 0
2018-07-16 10:07:02 GMT 50.095238 8.421021 40,000 293 482 0
2018-07-16 10:06:59 GMT 50.091930 8.433343 40,000 293 482 0
2018-07-16 10:06:55 GMT 50.089050 8.444077 40,000 293 482 0
2018-07-16 10:06:52 GMT 50.086899 8.452245 40,000 293 482 0
2018-07-16 10:06:49 GMT 50.083691 8.464298 40,000 293 482 0
2018-07-16 10:06:46 GMT 50.081688 8.471721 40,000 293 482 0
2018-07-16 10:06:43 GMT 50.078293 8.484489 40,000 293 482 0
2018-07-16 10:06:40 GMT 50.076241 8.492209 40,000 293 482 0
2018-07-16 10:06:37 GMT 50.073578 8.502189 40,000 293 482 0
2018-07-16 10:06:34 GMT 50.071518 8.509851 40,000 293 482 0
2018-07-16 10:06:31 GMT 50.068680 8.520620 40,000 293 481 0
2018-07-16 10:06:28 GMT 50.065201 8.533630 40,000 293 481 0
2018-07-16 10:06:25 GMT 50.062775 8.542593 40,000 293 481 0
2018-07-16 10:06:22 GMT 50.060120 8.552495 40,000 293 481 0
2018-07-16 10:06:19 GMT 50.058132 8.559908 40,000 293 481 0
2018-07-16 10:06:16 GMT 50.055908 8.568324 40,000 293 481 0
2018-07-16 10:06:13 GMT 50.053757 8.576275 40,000 293 481 0
2018-07-16 10:06:10 GMT 50.050552 8.588201 40,000 293 481 0
2018-07-16 10:06:07 GMT 50.047760 8.598681 40,000 293 481 0
2018-07-16 10:06:04 GMT 50.045284 8.607862 37,000 293 480 0
2018-07-16 10:06:01 GMT 50.042446 8.618552 40,000 293 480 0
2018-07-16 10:05:58 GMT 50.039841 8.628171 40,000 293 480 0
2018-07-16 10:05:55 GMT 50.036766 8.639634 40,000 293 480 0
2018-07-16 10:05:52 GMT 50.034626 8.647502 40,000 293 480 0
2018-07-16 10:05:49 GMT 50.032013 8.657154 40,000 293 480 0
2018-07-16 10:05:46 GMT 50.029366 8.667025 40,000 293 480 0
2018-07-16 10:05:43 GMT 50.026932 8.676164 40,000 293 480 0
2018-07-16 10:05:38 GMT 50.023178 8.690186 40,000 293 480 0
2018-07-16 10:05:35 GMT 50.021076 8.697980 40,000 293 479 0
2018-07-16 10:05:31 GMT 50.017632 8.710674 40,000 293 479 64
2018-07-16 10:05:28 GMT 50.014702 8.721586 40,000 293 479 0
2018-07-16 10:05:24 GMT 50.011688 8.732758 40,000 293 480 0
2018-07-16 10:05:21 GMT 50.008484 8.744684 40,000 293 479 0
2018-07-16 10:05:18 GMT 50.006229 8.752986 40,000 293 480 0
2018-07-16 10:05:14 GMT 50.002487 8.766945 40,000 293 479 0
2018-07-16 10:05:11 GMT 49.999245 8.778893 40,000 293 479 0
2018-07-16 10:05:06 GMT 49.995392 8.793038 40,000 293 479 0
2018-07-16 10:05:03 GMT 49.993973 8.798386 40,000 293 479 0
2018-07-16 10:05:00 GMT 49.990402 8.811541 40,000 293 480 0
2018-07-16 10:04:55 GMT 49.985687 8.828816 40,000 293 480 0
2018-07-16 10:04:52 GMT 49.983124 8.838140 40,000 293 480 0
2018-07-16 10:04:48 GMT 49.980438 8.848077 40,000 294 477 0
2018-07-16 10:04:45 GMT 49.978436 8.855426 40,000 294 477 0
2018-07-16 10:04:42 GMT 49.974621 8.869604 40,000 293 480 0
2018-07-16 10:04:39 GMT 49.973373 8.874207 40,000 293 480 64
2018-07-16 10:04:36 GMT 49.969894 8.886855 40,000 293 480 0
2018-07-16 10:04:33 GMT 49.966892 8.898035 40,000 293 480 0
2018-07-16 10:04:29 GMT 49.964172 8.907888 40,000 293 480 0
2018-07-16 10:04:25 GMT 49.960602 8.921115 40,000 293 480 0
2018-07-16 10:04:22 GMT 49.957123 8.933764 40,000 293 480 0
2018-07-16 10:04:18 GMT 49.954697 8.942654 40,000 293 480 0
2018-07-16 10:04:15 GMT 49.951946 8.952818 40,000 293 480 0
2018-07-16 10:04:12 GMT 49.948410 8.965735 40,000 293 480 0
2018-07-16 10:04:09 GMT 49.945942 8.974865 40,000 294 479 0
2018-07-16 10:04:06 GMT 49.944546 8.979913 40,000 293 480 0
2018-07-16 10:04:03 GMT 49.941612 8.990825 40,000 293 480 0
2018-07-16 10:04:00 GMT 49.938911 9.000772 40,000 293 480 0
2018-07-16 10:03:57 GMT 49.937119 9.007343 40,000 293 480 0
2018-07-16 10:03:54 GMT 49.933319 9.021293 40,000 293 480 0
2018-07-16 10:03:50 GMT 49.929508 9.035216 40,000 294 480 0
2018-07-16 10:03:46 GMT 49.927185 9.043844 40,000 293 479 0
2018-07-16 10:03:43 GMT 49.924202 9.054664 40,000 293 479 0
2018-07-16 10:03:40 GMT 49.922058 9.062564 40,000 293 479 0
2018-07-16 10:03:36 GMT 49.918167 9.076659 40,000 293 479 0
2018-07-16 10:03:32 GMT 49.914688 9.089307 40,000 294 479 0
2018-07-16 10:03:29 GMT 49.912079 9.098920 40,000 294 479 0
2018-07-16 10:03:26 GMT 49.909424 9.108461 37,000 294 479 0
2018-07-16 10:03:23 GMT 49.906815 9.118074 40,000 294 479 0
2018-07-16 10:03:20 GMT 49.904251 9.127398 40,000 294 478 0
2018-07-16 10:03:15 GMT 49.898926 9.146786 40,000 294 478 0
2018-07-16 10:03:11 GMT 49.896011 9.157321 40,000 294 478 0
2018-07-16 10:03:08 GMT 49.893803 9.165418 40,000 294 478 -64
2018-07-16 10:03:05 GMT 49.890381 9.177704 40,000 294 478 0
2018-07-16 10:03:02 GMT 49.888962 9.183011 40,000 294 478 0
2018-07-16 10:02:59 GMT 49.886124 9.193255 40,000 294 477 0
2018-07-16 10:02:56 GMT 49.883701 9.202089 40,000 294 477 0
2018-07-16 10:02:53 GMT 49.880630 9.213120 40,000 294 477 0
2018-07-16 10:02:50 GMT 49.878582 9.220647 40,000 294 474 0
2018-07-16 10:02:47 GMT 49.875549 9.231696 40,000 294 477 0
2018-07-16 10:02:43 GMT 49.872578 9.242471 40,000 294 477 0
2018-07-16 10:02:40 GMT 49.869877 9.252270 40,000 294 476 0
2018-07-16 10:02:37 GMT 49.867455 9.261029 40,000 294 476 0
2018-07-16 10:02:34 GMT 49.863777 9.274317 40,000 294 476 0
2018-07-16 10:02:31 GMT 49.862614 9.278548 40,000 294 476 0
2018-07-16 10:02:28 GMT 49.859940 9.288073 40,000 294 476 0
2018-07-16 10:02:25 GMT 49.857121 9.298294 40,000 294 476 0
2018-07-16 10:02:22 GMT 49.854126 9.309106 40,000 294 476 64
2018-07-16 10:02:19 GMT 49.851955 9.316852 40,000 294 476 0
2018-07-16 10:02:16 GMT 49.849319 9.326308 40,000 294 476 0
2018-07-16 10:02:13 GMT 49.846645 9.336078 40,000 294 476 64
2018-07-16 10:02:09 GMT 49.843109 9.348846 40,000 294 476 64
2018-07-16 10:02:06 GMT 49.840595 9.357828 40,000 294 476 64
2018-07-16 10:02:03 GMT 49.837753 9.368072 40,000 294 476 0
2018-07-16 10:02:00 GMT 49.834717 9.379072 40,000 294 476 0
2018-07-16 10:01:57 GMT 49.832497 9.387075 39,975 294 471 0
2018-07-16 10:01:54 GMT 49.829468 9.398061 40,000 294 475 0
2018-07-16 10:01:51 GMT 49.827438 9.405309 40,000 294 475 0
2018-07-16 10:01:47 GMT 49.823044 9.421282 40,000 294 476 -64
2018-07-16 10:01:44 GMT 49.820389 9.430823 40,000 294 476 0
2018-07-16 10:01:41 GMT 49.817688 9.440508 40,000 294 475 64
2018-07-16 10:01:38 GMT 49.815948 9.446797 40,000 294 475 64
2018-07-16 10:01:35 GMT 49.812618 9.458783 40,000 294 476 0
2018-07-16 10:01:31 GMT 49.809963 9.468211 37,000 294 474 0
2018-07-16 10:01:27 GMT 49.806473 9.480695 40,000 294 476 0
2018-07-16 10:01:23 GMT 49.802887 9.493672 40,000 294 476 0
2018-07-16 10:01:20 GMT 49.800293 9.502885 40,000 294 475 0
2018-07-16 10:01:17 GMT 49.798462 9.509390 40,000 294 474 0
2018-07-16 10:01:14 GMT 49.794834 9.522326 40,000 294 475 0
2018-07-16 10:01:11 GMT 49.791714 9.533535 40,000 294 474 0
2018-07-16 10:01:08 GMT 49.789078 9.542927 40,000 294 474 0
2018-07-16 10:01:05 GMT 49.787384 9.548926 40,000 294 474 0
2018-07-16 10:01:02 GMT 49.784733 9.558402 40,000 294 474 0
2018-07-16 10:00:58 GMT 49.781334 9.570576 40,000 294 474 0
2018-07-16 10:00:55 GMT 49.777954 9.582752 40,000 294 474 0
2018-07-16 10:00:52 GMT 49.776215 9.588968 40,000 294 471 0
2018-07-16 10:00:49 GMT 49.773102 9.600172 40,000 294 474 0
2018-07-16 10:00:46 GMT 49.770161 9.610587 40,000 294 474 0
2018-07-16 10:00:43 GMT 49.768387 9.617085 40,000 294 473 0
2018-07-16 10:00:40 GMT 49.765785 9.626250 40,000 294 473 0
2018-07-16 10:00:37 GMT 49.762253 9.638913 40,000 294 474 0
2018-07-16 10:00:33 GMT 49.759232 9.649538 40,000 294 474 0
2018-07-16 10:00:27 GMT 49.753868 9.668637 40,000 294 474 0
2018-07-16 10:00:24 GMT 49.752285 9.674353 40,000 294 473 0
2018-07-16 10:00:21 GMT 49.749680 9.683483 40,000 294 473 0
2018-07-16 10:00:18 GMT 49.746735 9.693917 40,000 294 473 64
2018-07-16 10:00:15 GMT 49.743347 9.706050 40,000 294 472 0
2018-07-16 10:00:11 GMT 49.739670 9.719189 40,000 294 473 0
2018-07-16 10:00:08 GMT 49.738037 9.724852 40,000 294 472 0
2018-07-16 10:00:05 GMT 49.734642 9.737004 40,000 294 473 0
2018-07-16 10:00:01 GMT 49.732082 9.746135 40,000 294 473 0
2018-07-16 09:59:57 GMT 49.728241 9.759762 40,000 294 472 0
2018-07-16 09:59:54 GMT 49.725239 9.770335 40,000 294 472 0
2018-07-16 09:59:51 GMT 49.722427 9.780217 40,000 294 472 0
2018-07-16 09:59:48 GMT 49.719372 9.791120 40,000 294 472 0
2018-07-16 09:59:45 GMT 49.717209 9.798721 40,000 294 472 0
2018-07-16 09:59:42 GMT 49.713322 9.812573 40,000 294 472 0
2018-07-16 09:59:38 GMT 49.711441 9.819248 40,000 294 471 0
2018-07-16 09:59:35 GMT 49.708946 9.828087 40,000 294 471 0
2018-07-16 09:59:32 GMT 49.705994 9.838401 40,000 294 471 64
2018-07-16 09:59:29 GMT 49.704430 9.844121 40,000 294 471 0
2018-07-16 09:59:26 GMT 49.700939 9.856444 40,000 294 471 0
2018-07-16 09:59:21 GMT 49.696747 9.871142 40,000 294 471 0
2018-07-16 09:59:18 GMT 49.693542 9.882491 40,000 294 471 0
2018-07-16 09:59:15 GMT 49.691803 9.888635 40,000 294 471 0
2018-07-16 09:59:11 GMT 49.687820 9.902657 40,000 294 471 64
2018-07-16 09:59:08 GMT 49.685852 9.909523 40,000 294 471 64
2018-07-16 09:59:04 GMT 49.682327 9.922100 40,000 294 471 0
2018-07-16 09:59:01 GMT 49.679260 9.932869 40,000 294 471 0
2018-07-16 09:58:58 GMT 49.677197 9.940029 40,000 294 471 0
2018-07-16 09:58:55 GMT 49.674126 9.950867 40,000 294 471 0
2018-07-16 09:58:52 GMT 49.671425 9.960443 40,000 294 471 0
2018-07-16 09:58:49 GMT 49.669052 9.968792 40,000 294 471 0
2018-07-16 09:58:46 GMT 49.666580 9.977393 40,000 294 471 0
2018-07-16 09:58:43 GMT 49.663975 9.986498 40,000 294 471 0
2018-07-16 09:58:40 GMT 49.660763 9.997856 40,000 294 471 0
2018-07-16 09:58:37 GMT 49.658386 10.006232 40,000 294 471 0
2018-07-16 09:58:33 GMT 49.654804 10.018715 40,000 294 471 0
2018-07-16 09:58:30 GMT 49.652206 10.027843 40,000 294 471 0
2018-07-16 09:58:27 GMT 49.650375 10.034204 40,000 294 471 0
2018-07-16 09:58:24 GMT 49.647354 10.044829 40,000 294 471 0
2018-07-16 09:58:20 GMT 49.643143 10.059574 40,000 294 471 0
2018-07-16 09:58:16 GMT 49.640049 10.070380 40,000 294 471 0
2018-07-16 09:58:13 GMT 49.636742 10.081960 40,000 294 472 0
2018-07-16 09:58:09 GMT 49.632832 10.095693 40,000 294 472 0
2018-07-16 09:58:04 GMT 49.628586 10.110458 40,000 294 472 0
2018-07-16 09:57:58 GMT 49.623524 10.128133 40,000 294 472 -64
2018-07-16 09:57:53 GMT 49.620262 10.139416 40,000 294 471 0
2018-07-16 09:57:50 GMT 49.617096 10.150476 40,000 294 471 0
2018-07-16 09:57:46 GMT 49.614075 10.161053 40,000 294 472 0
2018-07-16 09:57:43 GMT 49.609955 10.175508 40,000 294 472 0
2018-07-16 09:57:38 GMT 49.606438 10.187815 40,000 294 472 0
2018-07-16 09:57:34 GMT 49.601990 10.203263 40,000 295 471 0
2018-07-16 09:57:31 GMT 49.599735 10.211124 40,000 295 471 0
2018-07-16 09:57:27 GMT 49.596195 10.223372 40,000 295 471 0
2018-07-16 09:57:24 GMT 49.594482 10.229283 40,000 294 472 0
2018-07-16 09:57:21 GMT 49.591820 10.238590 40,000 294 472 0
2018-07-16 09:57:18 GMT 49.589397 10.246904 40,000 294 472 0
2018-07-16 09:57:15 GMT 49.586838 10.255737 40,000 294 472 0
2018-07-16 09:57:12 GMT 49.583954 10.265833 40,000 294 472 0
2018-07-16 09:57:09 GMT 49.580975 10.276077 40,000 294 472 0
2018-07-16 09:57:06 GMT 49.577545 10.288118 40,000 294 472 0
2018-07-16 09:57:01 GMT 49.573944 10.300648 40,000 294 470 0
2018-07-16 09:56:58 GMT 49.571339 10.309704 40,000 294 471 0
2018-07-16 09:56:54 GMT 49.566879 10.325125 40,000 294 471 0
2018-07-16 09:56:51 GMT 49.565735 10.329028 40,000 296 470 0
2018-07-16 09:56:48 GMT 49.562492 10.340287 40,000 294 470 0
2018-07-16 09:56:45 GMT 49.559921 10.349049 40,000 295 470 0
2018-07-16 09:56:42 GMT 49.556168 10.361987 40,000 295 470 0
2018-07-16 09:56:39 GMT 49.553833 10.370055 40,000 295 470 0
2018-07-16 09:56:35 GMT 49.550034 10.383237 40,000 294 470 0
2018-07-16 09:56:32 GMT 49.547333 10.392560 40,000 294 470 0
2018-07-16 09:56:29 GMT 49.545593 10.398634 40,000 294 470 0
2018-07-16 09:56:26 GMT 49.543125 10.407170 40,000 294 470 64
2018-07-16 09:56:23 GMT 49.540512 10.416196 40,000 294 469 64
2018-07-16 09:56:20 GMT 49.537819 10.425432 40,000 294 469 0
2018-07-16 09:56:17 GMT 49.535118 10.434711 40,000 294 469 -64
2018-07-16 09:56:14 GMT 49.531540 10.447131 40,000 295 469 -64
2018-07-16 09:56:10 GMT 49.528839 10.456382 40,000 294 469 0
2018-07-16 09:56:06 GMT 49.524693 10.470787 40,000 294 469 0
2018-07-16 09:56:03 GMT 49.522644 10.477839 40,000 295 469 -64
2018-07-16 09:56:00 GMT 49.520409 10.485337 40,000 295 469 -64
2018-07-16 09:55:57 GMT 49.517242 10.496249 40,000 295 469 0
2018-07-16 09:55:53 GMT 49.513844 10.507903 40,000 295 468 0
2018-07-16 09:55:50 GMT 49.510262 10.520300 40,000 295 468 0
2018-07-16 09:55:47 GMT 49.507793 10.528762 40,000 295 467 0
2018-07-16 09:55:44 GMT 49.506023 10.534849 40,000 295 467 0
2018-07-16 09:55:41 GMT 49.503342 10.544056 40,000 295 467 0
2018-07-16 09:55:38 GMT 49.500996 10.552071 40,000 295 466 0
2018-07-16 09:55:34 GMT 49.496338 10.567980 40,000 295 466 0
2018-07-16 09:55:30 GMT 49.494095 10.575714 40,000 295 466 0
2018-07-16 09:55:27 GMT 49.490986 10.586366 40,000 295 466 0
2018-07-16 09:55:24 GMT 49.488705 10.594087 40,000 295 466 0
2018-07-16 09:55:21 GMT 49.485855 10.603975 40,000 295 466 0
2018-07-16 09:55:17 GMT 49.482189 10.616579 40,000 295 465 0
2018-07-16 09:55:14 GMT 49.479488 10.625709 40,000 295 465 0
2018-07-16 09:55:11 GMT 49.475830 10.638235 40,000 295 465 0
2018-07-16 09:55:08 GMT 49.474136 10.644017 40,000 295 465 0
2018-07-16 09:55:05 GMT 49.471527 10.652908 40,000 295 465 0
2018-07-16 09:55:02 GMT 49.468830 10.662083 40,000 295 465 0
2018-07-16 09:54:59 GMT 49.466175 10.671214 40,000 295 465 0
2018-07-16 09:54:54 GMT 49.462280 10.684493 40,000 295 465 0
2018-07-16 09:54:50 GMT 49.458984 10.695769 40,000 295 465 0
2018-07-16 09:54:46 GMT 49.454445 10.711150 40,000 295 465 0
2018-07-16 09:54:43 GMT 49.452209 10.718825 40,000 295 465 0
2018-07-16 09:54:40 GMT 49.450012 10.726270 40,000 295 465 0
2018-07-16 09:54:37 GMT 49.446899 10.736895 40,000 295 465 0
2018-07-16 09:54:34 GMT 49.443741 10.747665 40,000 295 465 0
2018-07-16 09:54:30 GMT 49.440479 10.758733 40,000 295 464 0
2018-07-16 09:54:25 GMT 49.436104 10.773654 40,000 295 466 0
2018-07-16 09:54:22 GMT 49.433258 10.783298 40,000 295 466 0
2018-07-16 09:54:19 GMT 49.430786 10.791682 40,000 295 466 0
2018-07-16 09:54:13 GMT 49.425842 10.808505 40,000 295 466 0
2018-07-16 09:54:10 GMT 49.422867 10.818646 40,000 295 466 0
2018-07-16 09:54:07 GMT 49.420322 10.827315 40,000 295 467 0
2018-07-16 09:54:02 GMT 49.416321 10.840759 40,000 295 466 0
2018-07-16 09:53:58 GMT 49.412292 10.854492 40,000 295 467 0
2018-07-16 09:53:55 GMT 49.409428 10.864105 40,000 295 467 0
2018-07-16 09:53:52 GMT 49.406727 10.873285 40,000 295 467 0
2018-07-16 09:53:47 GMT 49.402493 10.887740 40,000 295 467 0
2018-07-16 09:53:44 GMT 49.399837 10.896631 40,000 295 467 0
2018-07-16 09:53:41 GMT 49.397919 10.903156 40,000 295 467 0
2018-07-16 09:53:37 GMT 49.393787 10.917158 40,000 295 467 0
2018-07-16 09:53:34 GMT 49.391087 10.926265 40,000 295 467 0
2018-07-16 09:53:30 GMT 49.387547 10.938335 40,000 295 466 0
2018-07-16 09:53:26 GMT 49.384521 10.948454 40,000 295 466 0
2018-07-16 09:53:22 GMT 49.380890 10.960693 40,000 295 466 0
2018-07-16 09:53:19 GMT 49.377495 10.972234 40,000 295 466 0
2018-07-16 09:53:15 GMT 49.373535 10.985461 40,000 295 464 0
2018-07-16 09:53:12 GMT 49.372139 10.990303 40,000 295 466 0
2018-07-16 09:53:09 GMT 49.369068 11.000639 40,000 295 466 0
2018-07-16 09:53:06 GMT 49.365326 11.013090 40,000 295 466 0
2018-07-16 09:53:03 GMT 49.362488 11.022668 40,000 295 466 0
2018-07-16 09:53:00 GMT 49.359695 11.032034 40,000 295 466 0
2018-07-16 09:52:57 GMT 49.357803 11.038296 40,000 295 466 0
2018-07-16 09:52:54 GMT 49.355289 11.046681 40,000 295 465 0
2018-07-16 09:52:51 GMT 49.353100 11.054053 40,000 295 466 0
2018-07-16 09:52:47 GMT 49.348938 11.067951 40,000 295 465 0
2018-07-16 09:52:44 GMT 49.346024 11.077833 40,000 295 465 0
2018-07-16 09:52:41 GMT 49.344254 11.083832 40,000 295 464 0
2018-07-16 09:52:38 GMT 49.341694 11.092433 40,000 295 463 0
2018-07-16 09:52:35 GMT 49.338158 11.104142 40,000 295 464 0
2018-07-16 09:52:32 GMT 49.335892 11.111826 40,000 295 464 0
2018-07-16 09:52:29 GMT 49.333130 11.121127 40,000 295 464 0
2018-07-16 09:52:25 GMT 49.329391 11.133587 40,000 295 464 0
2018-07-16 09:52:22 GMT 49.326195 11.144329 40,000 295 464 0
2018-07-16 09:52:18 GMT 49.323853 11.152250 40,000 295 463 0
2018-07-16 09:52:14 GMT 49.319675 11.166302 40,000 295 464 0
2018-07-16 09:52:11 GMT 49.316162 11.178025 40,000 295 464 0
2018-07-16 09:52:08 GMT 49.314423 11.183730 40,000 295 464 0
2018-07-16 09:52:04 GMT 49.309708 11.199435 40,000 295 464 -64
2018-07-16 09:52:01 GMT 49.308083 11.204971 40,000 295 463 0
2018-07-16 09:51:57 GMT 49.304638 11.216391 40,000 295 463 0
2018-07-16 09:51:54 GMT 49.302383 11.223731 40,000 295 463 0
2018-07-16 09:51:51 GMT 49.298962 11.235183 40,000 295 463 64
2018-07-16 09:51:48 GMT 49.296524 11.243239 40,000 295 463 0
2018-07-16 09:51:45 GMT 49.293747 11.252530 40,000 295 463 0
2018-07-16 09:51:40 GMT 49.289154 11.267958 40,000 295 462 0
2018-07-16 09:51:35 GMT 49.285080 11.281480 40,000 295 462 0
2018-07-16 09:51:32 GMT 49.282246 11.290982 40,000 295 462 0
2018-07-16 09:51:29 GMT 49.279449 11.300284 40,000 295 462 0
2018-07-16 09:51:26 GMT 49.277390 11.307115 40,000 296 461 0
2018-07-16 09:51:23 GMT 49.274460 11.316833 40,000 295 462 0
2018-07-16 09:51:19 GMT 49.270561 11.329868 40,000 295 461 0
2018-07-16 09:51:14 GMT 49.266048 11.344757 40,000 295 461 0
2018-07-16 09:51:10 GMT 49.262321 11.357117 40,000 296 461 0
2018-07-16 09:51:07 GMT 49.259808 11.365356 40,000 295 461 0
2018-07-16 09:51:03 GMT 49.256969 11.374825 40,000 295 461 0
2018-07-16 09:50:58 GMT 49.250870 11.394918 40,000 295 461 0
2018-07-16 09:50:53 GMT 49.246719 11.408598 40,000 296 461 0
2018-07-16 09:50:49 GMT 49.243935 11.417831 40,000 296 461 0
2018-07-16 09:50:46 GMT 49.241562 11.425564 40,000 296 461 0
2018-07-16 09:50:42 GMT 49.237244 11.439725 40,000 296 461 0
2018-07-16 09:50:38 GMT 49.233124 11.453177 40,000 296 461 0
2018-07-16 09:50:34 GMT 49.230389 11.462137 40,000 296 461 0
2018-07-16 09:50:31 GMT 49.226898 11.473459 40,000 296 461 0
2018-07-16 09:50:28 GMT 49.224106 11.482664 40,000 296 460 0
2018-07-16 09:50:25 GMT 49.221359 11.491629 40,000 296 461 0
2018-07-16 09:50:22 GMT 49.218426 11.501312 40,000 296 461 0
2018-07-16 09:50:19 GMT 49.216736 11.506700 40,000 296 460 64
2018-07-16 09:50:16 GMT 49.213631 11.516852 40,000 296 461 64
2018-07-16 09:50:12 GMT 49.210556 11.526982 40,000 296 461 -64
2018-07-16 09:50:08 GMT 49.207352 11.537335 40,000 296 461 0
2018-07-16 09:50:05 GMT 49.203461 11.550082 40,000 296 460 64
2018-07-16 09:50:00 GMT 49.199707 11.562265 40,000 296 460 0
2018-07-16 09:49:57 GMT 49.196869 11.571491 40,000 296 460 64
2018-07-16 09:49:54 GMT 49.193390 11.582759 40,000 296 459 0
2018-07-16 09:49:50 GMT 49.190956 11.590721 40,000 296 460 0
2018-07-16 09:49:47 GMT 49.186752 11.604380 40,000 296 460 0
2018-07-16 09:49:44 GMT 49.184532 11.611681 40,000 296 460 0
2018-07-16 09:49:41 GMT 49.182625 11.617825 40,000 296 460 0
2018-07-16 09:49:38 GMT 49.179794 11.626986 40,000 296 460 -64
2018-07-16 09:49:33 GMT 49.175316 11.641532 40,000 296 460 0
2018-07-16 09:49:30 GMT 49.172943 11.649266 40,000 296 461 0
2018-07-16 09:49:27 GMT 49.170338 11.657723 40,000 296 460 0
2018-07-16 09:49:24 GMT 49.166519 11.670157 40,000 296 459 0
2018-07-16 09:49:20 GMT 49.163818 11.678828 40,000 296 460 0
2018-07-16 09:49:17 GMT 49.160931 11.688224 40,000 296 460 0
2018-07-16 09:49:14 GMT 49.158279 11.696898 40,000 296 460 0
2018-07-16 09:49:11 GMT 49.155670 11.705354 40,000 296 459 0
2018-07-16 09:49:07 GMT 49.151550 11.718750 40,000 296 459 0
2018-07-16 09:49:03 GMT 49.147110 11.733046 40,000 296 459 -64
2018-07-16 09:48:59 GMT 49.144501 11.741497 40,000 296 459 -64
2018-07-16 09:48:55 GMT 49.140541 11.754359 40,000 296 460 64
2018-07-16 09:48:52 GMT 49.137177 11.765160 40,000 296 459 0
2018-07-16 09:48:48 GMT 49.134491 11.773802 40,000 296 460 64
2018-07-16 09:48:44 GMT 49.130951 11.785231 40,000 296 460 0
2018-07-16 09:48:41 GMT 49.128479 11.793189 40,000 296 460 0
2018-07-16 09:48:38 GMT 49.125412 11.803003 40,000 296 460 0
2018-07-16 09:48:33 GMT 49.119919 11.820783 40,000 296 460 0
2018-07-16 09:48:28 GMT 49.115845 11.833895 40,000 296 458 0
2018-07-16 09:48:25 GMT 49.113647 11.840938 40,000 296 461 0
2018-07-16 09:48:22 GMT 49.111176 11.848896 40,000 296 458 0
2018-07-16 09:48:19 GMT 49.108429 11.857769 40,000 296 458 0
2018-07-16 09:48:16 GMT 49.106049 11.865451 40,000 296 458 0
2018-07-16 09:48:13 GMT 49.102928 11.875498 40,000 296 458 0
2018-07-16 09:48:10 GMT 49.100323 11.883954 40,000 296 459 0
2018-07-16 09:48:05 GMT 49.095383 11.899813 40,000 296 461 0
2018-07-16 09:48:00 GMT 49.090637 11.914962 40,000 296 460 0
2018-07-16 09:47:57 GMT 49.087521 11.925009 40,000 296 460 0
2018-07-16 09:47:54 GMT 49.084900 11.933406 40,000 296 459 0
2018-07-16 09:47:50 GMT 49.081745 11.943512 40,000 296 460 0
2018-07-16 09:47:45 GMT 49.076523 11.960308 40,000 296 460 0
2018-07-16 09:47:40 GMT 49.072342 11.973652 40,000 296 460 0
2018-07-16 09:47:33 GMT 49.065720 11.994887 40,000 296 460 0
2018-07-16 09:47:30 GMT 49.062523 12.005166 40,000 296 460 0
2018-07-16 09:47:25 GMT 49.058937 12.016658 40,000 296 460 0
2018-07-16 09:47:22 GMT 49.055420 12.027846 40,000 296 460 0
2018-07-16 09:47:18 GMT 49.052372 12.037691 40,000 296 460 0
2018-07-16 09:47:14 GMT 49.048321 12.050556 40,000 296 460 0
2018-07-16 09:47:11 GMT 49.045624 12.059158 40,000 297 459 0
2018-07-16 09:47:08 GMT 49.043526 12.065952 40,000 296 460 0
2018-07-16 09:47:05 GMT 49.040497 12.075524 40,000 296 460 0
2018-07-16 09:47:02 GMT 49.038528 12.081862 40,000 296 461 0
2018-07-16 09:46:59 GMT 49.035007 12.093056 40,000 296 461 0
2018-07-16 09:46:56 GMT 49.032448 12.101224 40,000 296 461 0
2018-07-16 09:46:53 GMT 49.029842 12.109463 40,000 297 452 0
2018-07-16 09:46:50 GMT 49.026489 12.120174 40,000 296 461 0
2018-07-16 09:46:47 GMT 49.024292 12.127216 40,000 296 461 0
2018-07-16 09:46:43 GMT 49.020309 12.139822 40,000 296 461 0
2018-07-16 09:46:38 GMT 49.016098 12.153133 40,000 296 461 0
2018-07-16 09:46:33 GMT 49.010521 12.170828 40,000 296 461 0
2018-07-16 09:46:30 GMT 49.007774 12.179501 40,000 297 461 0
2018-07-16 09:46:27 GMT 49.004658 12.189548 40,000 296 461 0
2018-07-16 09:46:24 GMT 49.003029 12.194680 40,000 296 461 0
2018-07-16 09:46:20 GMT 48.999397 12.206172 40,000 296 461 0
2018-07-16 09:46:17 GMT 48.995579 12.218315 40,000 296 461 0
2018-07-16 09:46:14 GMT 48.993668 12.224332 40,000 296 461 0
2018-07-16 09:46:10 GMT 48.990097 12.235812 40,000 296 461 0
2018-07-16 09:46:06 GMT 48.986481 12.247221 40,000 297 461 0
2018-07-16 09:46:03 GMT 48.983753 12.255900 40,000 297 461 0
2018-07-16 09:46:00 GMT 48.981380 12.263344 40,000 296 461 0
2018-07-16 09:45:57 GMT 48.977188 12.276658 40,000 296 461 0
2018-07-16 09:45:54 GMT 48.974678 12.284594 40,000 296 461 0
2018-07-16 09:45:51 GMT 48.972473 12.291588 40,000 296 461 0
2018-07-16 09:45:48 GMT 48.969185 12.302085 40,000 296 460 0
2018-07-16 09:45:44 GMT 48.965691 12.313072 40,000 296 458 64
2018-07-16 09:45:38 GMT 48.960251 12.330252 40,000 296 460 0
2018-07-16 09:45:34 GMT 48.956223 12.343069 40,000 298 460 0
2018-07-16 09:45:29 GMT 48.952652 12.354196 40,000 296 459 -64
2018-07-16 09:45:25 GMT 48.948700 12.366775 40,000 296 459 -64
2018-07-16 09:45:22 GMT 48.945282 12.377437 40,000 296 459 0
2018-07-16 09:45:19 GMT 48.943314 12.383705 40,000 296 458 64
2018-07-16 09:45:14 GMT 48.937866 12.400888 40,000 296 458 64
2018-07-16 09:45:11 GMT 48.936085 12.406383 40,000 296 458 0
2018-07-16 09:45:07 GMT 48.930862 12.422861 40,000 296 458 0
2018-07-16 09:45:04 GMT 48.929626 12.426805 40,000 296 458 0
2018-07-16 09:45:01 GMT 48.926216 12.437463 40,000 297 457 0
2018-07-16 09:44:58 GMT 48.924042 12.444341 40,000 296 457 0
2018-07-16 09:44:54 GMT 48.920837 12.454341 40,000 296 457 0
2018-07-16 09:44:51 GMT 48.916813 12.467025 40,000 296 457 -64
2018-07-16 09:44:48 GMT 48.914383 12.474623 40,000 296 457 -64
2018-07-16 09:44:44 GMT 48.911411 12.483866 40,000 296 457 0
2018-07-16 09:44:41 GMT 48.907974 12.494765 40,000 296 457 0
2018-07-16 09:44:38 GMT 48.905731 12.501667 40,000 296 457 0
2018-07-16 09:44:34 GMT 48.901703 12.514414 40,000 296 457 0
2018-07-16 09:44:30 GMT 48.897633 12.527088 40,000 297 456 64
2018-07-16 09:44:27 GMT 48.895294 12.534485 40,000 296 457 64
2018-07-16 09:44:23 GMT 48.891678 12.545823 40,000 297 456 0
2018-07-16 09:44:20 GMT 48.888508 12.555711 40,000 297 456 0
2018-07-16 09:44:15 GMT 48.884830 12.567275 40,000 296 457 0
2018-07-16 09:44:12 GMT 48.881012 12.579275 40,000 296 457 64
2018-07-16 09:44:08 GMT 48.877396 12.590543 40,000 296 457 0
2018-07-16 09:44:02 GMT 48.872726 12.605077 40,000 296 457 0
2018-07-16 09:43:58 GMT 48.868584 12.618015 40,000 296 457 0
2018-07-16 09:43:55 GMT 48.865128 12.628784 40,000 296 456 0
2018-07-16 09:43:52 GMT 48.862244 12.637799 40,000 296 456 0
2018-07-16 09:43:49 GMT 48.860390 12.643529 40,000 297 456 0
2018-07-16 09:43:46 GMT 48.857971 12.651118 40,000 296 457 0
2018-07-16 09:43:43 GMT 48.854851 12.660804 40,000 296 457 0
2018-07-16 09:43:40 GMT 48.852661 12.667742 40,000 296 455 0
2018-07-16 09:43:37 GMT 48.848236 12.681462 40,000 297 456 0
2018-07-16 09:43:34 GMT 48.846378 12.687257 40,000 297 456 0
2018-07-16 09:43:30 GMT 48.842468 12.699400 40,000 297 456 0
2018-07-16 09:43:27 GMT 48.839676 12.708146 40,000 297 456 0
2018-07-16 09:43:23 GMT 48.836277 12.718626 40,000 296 455 0
2018-07-16 09:43:20 GMT 48.834133 12.725348 40,000 296 455 0
2018-07-16 09:43:16 GMT 48.830246 12.737450 40,000 298 454 0
2018-07-16 09:43:12 GMT 48.825211 12.753085 40,000 296 454 0
2018-07-16 09:43:09 GMT 48.822647 12.761043 40,000 296 454 -64
2018-07-16 09:43:06 GMT 48.821239 12.765390 40,000 297 454 -64
2018-07-16 09:43:03 GMT 48.818436 12.774142 40,000 296 454 -64
2018-07-16 09:43:00 GMT 48.814316 12.786889 40,000 296 454 0
2018-07-16 09:42:56 GMT 48.811371 12.796037 40,000 297 454 0
2018-07-16 09:42:52 GMT 48.807037 12.809495 40,000 297 453 0
2018-07-16 09:42:48 GMT 48.803783 12.819599 40,000 297 453 0
2018-07-16 09:42:45 GMT 48.800991 12.828273 40,000 297 453 0
2018-07-16 09:42:41 GMT 48.797928 12.837806 40,000 297 453 0
2018-07-16 09:42:35 GMT 48.791725 12.856967 40,000 297 453 0
2018-07-16 09:42:31 GMT 48.788979 12.865424 40,000 297 453 64
2018-07-16 09:42:28 GMT 48.785248 12.877033 40,000 297 453 0
2018-07-16 09:42:25 GMT 48.782650 12.885011 40,000 297 453 0
2018-07-16 09:42:20 GMT 48.778519 12.897738 40,000 297 453 0
2018-07-16 09:42:14 GMT 48.772129 12.917537 40,000 297 452 0
2018-07-16 09:42:11 GMT 48.770359 12.922958 40,000 298 453 0
2018-07-16 09:42:07 GMT 48.765842 12.936835 40,000 298 453 0
2018-07-16 09:42:03 GMT 48.762222 12.948022 40,000 297 453 0
2018-07-16 09:41:59 GMT 48.757965 12.961191 40,000 297 452 64
2018-07-16 09:41:56 GMT 48.755604 12.968421 40,000 298 453 0
2018-07-16 09:41:53 GMT 48.753387 12.975276 40,000 297 452 0
2018-07-16 09:41:50 GMT 48.750111 12.985262 40,000 297 452 0
2018-07-16 09:41:46 GMT 48.747162 12.994291 40,000 297 452 0
2018-07-16 09:41:43 GMT 48.744148 13.003620 40,000 297 452 0
2018-07-16 09:41:40 GMT 48.740662 13.014292 40,000 297 452 0
2018-07-16 09:41:34 GMT 48.735676 13.029424 40,000 297 452 0
2018-07-16 09:41:31 GMT 48.733017 13.037602 40,000 297 452 0
2018-07-16 09:41:28 GMT 48.730602 13.045108 40,000 297 452 0
2018-07-16 09:41:25 GMT 48.727066 13.055950 40,000 297 452 0
2018-07-16 09:41:22 GMT 48.724915 13.062533 40,000 297 451 0
2018-07-16 09:41:17 GMT 48.720364 13.076549 40,000 297 451 0
2018-07-16 09:41:13 GMT 48.715759 13.090562 40,000 297 452 -64
2018-07-16 09:41:10 GMT 48.713238 13.098233 40,000 297 452 -64
2018-07-16 09:41:06 GMT 48.709030 13.111126 40,000 297 451 0
2018-07-16 09:41:03 GMT 48.705963 13.120422 40,000 297 451 -64
2018-07-16 09:41:00 GMT 48.704952 13.123603 40,000 297 451 -64
2018-07-16 09:40:57 GMT 48.701183 13.135095 40,000 297 452 0
2018-07-16 09:40:53 GMT 48.697552 13.146226 40,000 297 452 0
2018-07-16 09:40:49 GMT 48.694061 13.156832 40,000 297 453 64
2018-07-16 09:40:45 GMT 48.691086 13.165917 40,000 297 460 64
2018-07-16 09:40:41 GMT 48.686142 13.181129 40,000 297 453 64
2018-07-16 09:40:38 GMT 48.683624 13.188876 40,000 297 459 -64
2018-07-16 09:40:34 GMT 48.680969 13.197045 39,975 300 461 -64
2018-07-16 09:40:30 GMT 48.675533 13.213734 39,975 297 457 0
2018-07-16 09:40:27 GMT 48.673965 13.218525 40,000 297 459 -64
2018-07-16 09:40:24 GMT 48.670223 13.229997 39,975 300 461 -64
2018-07-16 09:40:21 GMT 48.668198 13.236201 39,975 297 458 -64
2018-07-16 09:40:17 GMT 48.664314 13.248138 40,000 297 459 0
2018-07-16 09:40:14 GMT 48.662453 13.253848 40,000 297 459 0
2018-07-16 09:40:11 GMT 48.659424 13.263100 40,000 297 461 64
2018-07-16 09:40:07 GMT 48.654816 13.277122 40,000 297 461 0
2018-07-16 09:40:04 GMT 48.652256 13.284928 40,000 297 461 0
2018-07-16 09:40:01 GMT 48.649368 13.293674 40,000 297 461 0
2018-07-16 09:39:58 GMT 48.645691 13.304732 40,000 297 461 0
2018-07-16 09:39:54 GMT 48.642807 13.313406 40,000 290 458 0
2018-07-16 09:39:50 GMT 48.638031 13.327684 40,000 298 462 0
2018-07-16 09:39:47 GMT 48.636150 13.333138 40,000 298 462 0
2018-07-16 09:39:43 GMT 48.630192 13.350557 40,000 298 462 0
2018-07-16 09:39:39 GMT 48.627274 13.358952 40,000 298 462 0
2018-07-16 09:39:35 GMT 48.623291 13.370361 40,000 298 462 -64
2018-07-16 09:39:30 GMT 48.619400 13.381559 40,025 298 461 -64
2018-07-16 09:39:27 GMT 48.615555 13.392686 40,025 293 459 0
2018-07-16 09:39:24 GMT 48.613430 13.398911 40,025 296 461 64
2018-07-16 09:39:19 GMT 48.608730 13.413150 40,000 295 459 64
2018-07-16 09:39:16 GMT 48.605934 13.422185 40,000 293 459 0
2018-07-16 09:39:13 GMT 48.603470 13.430642 40,000 293 460 64
2018-07-16 09:39:09 GMT 48.599030 13.447547 40,000 291 458 0
2018-07-16 09:39:06 GMT 48.597092 13.455433 40,000 290 459 0
2018-07-16 09:39:02 GMT 48.595459 13.462196 40,000 290 458 0
2018-07-16 09:38:58 GMT 48.592342 13.475165 40,000 290 458 0
2018-07-16 09:38:55 GMT 48.589828 13.485718 40,000 290 459 0
2018-07-16 09:38:52 GMT 48.587547 13.495042 40,000 290 458 0
2018-07-16 09:38:48 GMT 48.585388 13.504169 40,000 290 458 0
2018-07-16 09:38:45 GMT 48.582413 13.516423 40,000 290 458 0
2018-07-16 09:38:41 GMT 48.579681 13.528001 40,000 290 458 0
2018-07-16 09:38:37 GMT 48.577515 13.536846 40,000 290 459 0
2018-07-16 09:38:34 GMT 48.574841 13.548094 40,000 290 459 0
2018-07-16 09:38:30 GMT 48.571243 13.563045 40,000 290 459 64
2018-07-16 09:38:27 GMT 48.569813 13.569055 40,000 290 459 0
2018-07-16 09:38:22 GMT 48.565521 13.586778 40,000 290 459 0
2018-07-16 09:38:17 GMT 48.562782 13.598111 40,000 291 460 -64
2018-07-16 09:38:13 GMT 48.559113 13.613258 40,000 290 459 0
2018-07-16 09:38:08 GMT 48.555893 13.626733 40,000 291 460 0
2018-07-16 09:38:05 GMT 48.553703 13.635623 40,000 291 460 -64
2018-07-16 09:38:02 GMT 48.551144 13.646248 40,000 291 460 -64
2018-07-16 09:37:59 GMT 48.548950 13.655372 40,000 291 460 0
2018-07-16 09:37:56 GMT 48.546677 13.664824 40,000 291 460 0
2018-07-16 09:37:53 GMT 48.545326 13.670317 40,000 291 460 0
2018-07-16 09:37:50 GMT 48.542862 13.680443 40,000 291 460 0
2018-07-16 09:37:46 GMT 48.539555 13.694169 40,000 290 459 64
2018-07-16 09:37:42 GMT 48.537273 13.703565 40,000 291 460 0
2018-07-16 09:37:39 GMT 48.534302 13.715867 40,000 291 460 0
2018-07-16 09:37:34 GMT 48.531452 13.727706 40,000 290 459 0
2018-07-16 09:37:31 GMT 48.528938 13.738042 40,000 291 460 0
2018-07-16 09:37:28 GMT 48.526890 13.746499 40,000 291 460 64
2018-07-16 09:37:25 GMT 48.524239 13.757340 40,000 291 460 0
2018-07-16 09:37:21 GMT 48.520981 13.770799 40,000 291 460 0
2018-07-16 09:37:17 GMT 48.518047 13.782855 40,000 291 460 0
2018-07-16 09:37:12 GMT 48.515301 13.794202 40,000 291 460 0
2018-07-16 09:37:07 GMT 48.511551 13.809603 40,000 291 461 0
2018-07-16 09:37:02 GMT 48.508026 13.824040 40,000 291 461 -64
2018-07-16 09:36:59 GMT 48.505142 13.835872 40,000 291 460 0
2018-07-16 09:36:55 GMT 48.502533 13.846647 40,000 291 460 0
2018-07-16 09:36:50 GMT 48.499191 13.860337 40,000 291 460 -64
2018-07-16 09:36:47 GMT 48.497143 13.868794 40,000 291 460 0
2018-07-16 09:36:44 GMT 48.493744 13.882705 40,000 291 460 -64
2018-07-16 09:36:41 GMT 48.491512 13.891851 40,000 291 460 -64
2018-07-16 09:36:38 GMT 48.490128 13.897353 40,000 291 459 0
2018-07-16 09:36:35 GMT 48.487976 13.906227 40,000 291 459 0
2018-07-16 09:36:31 GMT 48.484360 13.921086 40,000 291 459 0
2018-07-16 09:36:28 GMT 48.482479 13.928713 40,000 291 459 0
2018-07-16 09:36:25 GMT 48.480377 13.937354 40,000 291 459 -64
2018-07-16 09:36:22 GMT 48.478382 13.945481 40,000 291 459 0
2018-07-16 09:36:19 GMT 48.476257 13.954116 40,000 291 458 0
2018-07-16 09:36:16 GMT 48.474007 13.963406 40,000 291 458 0
2018-07-16 09:36:12 GMT 48.471447 13.973670 40,000 291 458 0
2018-07-16 09:36:07 GMT 48.467651 13.989187 40,000 291 458 0
2018-07-16 09:36:04 GMT 48.465225 13.999258 40,000 291 458 0
2018-07-16 09:36:01 GMT 48.462341 14.010949 40,000 291 458 0
2018-07-16 09:35:55 GMT 48.459206 14.023542 40,000 291 458 64
2018-07-16 09:35:52 GMT 48.456345 14.035245 40,000 291 458 64
2018-07-16 09:35:49 GMT 48.454826 14.041467 40,000 291 458 0
2018-07-16 09:35:45 GMT 48.451767 14.053838 40,000 291 458 0
2018-07-16 09:35:42 GMT 48.449341 14.063627 40,000 291 458 64
2018-07-16 09:35:38 GMT 48.446171 14.076522 40,000 291 458 0
2018-07-16 09:35:35 GMT 48.443653 14.086786 40,000 291 458 0
2018-07-16 09:35:32 GMT 48.441513 14.095387 40,000 291 458 0
2018-07-16 09:35:29 GMT 48.438858 14.106093 40,000 291 458 0
2018-07-16 09:35:25 GMT 48.436348 14.116420 40,000 291 458 0
2018-07-16 09:35:21 GMT 48.433693 14.127117 40,000 291 458 64
2018-07-16 09:35:16 GMT 48.429642 14.143596 40,000 291 458 0
2018-07-16 09:35:12 GMT 48.427048 14.154053 40,000 291 457 0
2018-07-16 09:35:09 GMT 48.425407 14.160726 40,000 291 458 0
2018-07-16 09:35:06 GMT 48.422241 14.173375 40,000 291 458 0
2018-07-16 09:35:02 GMT 48.419495 14.184578 40,000 291 458 0
2018-07-16 09:34:59 GMT 48.416794 14.195604 40,000 291 458 0
2018-07-16 09:34:56 GMT 48.415352 14.201275 40,000 291 458 0
2018-07-16 09:34:52 GMT 48.412766 14.211801 40,000 291 456 0
2018-07-16 09:34:49 GMT 48.409698 14.224196 40,000 291 457 -64
2018-07-16 09:34:46 GMT 48.407410 14.233422 40,000 291 457 0
2018-07-16 09:34:43 GMT 48.405342 14.241751 40,000 291 457 0
2018-07-16 09:34:40 GMT 48.403519 14.249127 40,000 291 457 0
2018-07-16 09:34:37 GMT 48.401321 14.257930 40,000 291 456 0
2018-07-16 09:34:32 GMT 48.397614 14.272930 40,000 291 456 0
2018-07-16 09:34:29 GMT 48.395508 14.281241 40,000 291 456 0
2018-07-16 09:34:26 GMT 48.393311 14.290044 40,000 291 456 0
2018-07-16 09:34:22 GMT 48.389656 14.304777 40,000 291 456 0
2018-07-16 09:34:18 GMT 48.387131 14.314974 40,000 291 456 0
2018-07-16 09:34:12 GMT 48.382141 14.334905 40,000 291 456 0
2018-07-16 09:34:09 GMT 48.379852 14.344130 40,000 291 456 0
2018-07-16 09:34:06 GMT 48.378845 14.348145 40,000 291 456 0
2018-07-16 09:34:01 GMT 48.373966 14.367877 40,000 291 456 0
2018-07-16 09:33:57 GMT 48.371658 14.377089 40,000 291 456 0
2018-07-16 09:33:51 GMT 48.366425 14.397944 40,000 291 456 0
2018-07-16 09:33:47 GMT 48.364609 14.405317 40,000 291 456 0
2018-07-16 09:33:44 GMT 48.362091 14.415260 40,000 291 456 0
2018-07-16 09:33:40 GMT 48.359665 14.424978 40,000 291 457 0
2018-07-16 09:33:37 GMT 48.356697 14.436830 40,000 291 457 0
2018-07-16 09:33:33 GMT 48.353714 14.448923 40,000 291 457 0
2018-07-16 09:33:30 GMT 48.351151 14.459135 40,000 291 457 0
2018-07-16 09:33:27 GMT 48.349365 14.466248 40,000 291 456 -64
2018-07-16 09:33:24 GMT 48.347431 14.473837 40,000 291 456 0
2018-07-16 09:33:19 GMT 48.343521 14.489449 40,000 291 456 0
2018-07-16 09:33:16 GMT 48.340775 14.500363 40,000 291 456 0
2018-07-16 09:33:11 GMT 48.337097 14.515052 40,000 291 456 0
2018-07-16 09:33:08 GMT 48.335655 14.520673 40,000 291 456 0
2018-07-16 09:33:05 GMT 48.332394 14.533683 40,000 291 456 0
2018-07-16 09:33:01 GMT 48.329510 14.545103 40,000 291 456 0
2018-07-16 09:32:56 GMT 48.325974 14.558998 40,000 291 456 0
2018-07-16 09:32:53 GMT 48.324554 14.564702 40,000 291 456 0
2018-07-16 09:32:49 GMT 48.321316 14.577484 40,000 291 456 64
2018-07-16 09:32:46 GMT 48.319126 14.586230 40,000 291 457 0
2018-07-16 09:32:42 GMT 48.316360 14.597098 40,000 291 457 0
2018-07-16 09:32:37 GMT 48.312798 14.611310 40,000 291 457 -64
2018-07-16 09:32:34 GMT 48.309490 14.624393 40,000 291 457 -64
2018-07-16 09:32:31 GMT 48.308121 14.629775 40,000 291 455 0
2018-07-16 09:32:27 GMT 48.303909 14.646606 40,000 291 457 64
2018-07-16 09:32:24 GMT 48.301624 14.655617 40,000 291 457 0
2018-07-16 09:32:20 GMT 48.299515 14.664142 40,000 291 455 0
2018-07-16 09:32:17 GMT 48.296738 14.675060 40,000 291 456 0
2018-07-16 09:32:13 GMT 48.294205 14.685199 40,000 291 456 0
2018-07-16 09:32:09 GMT 48.291058 14.697466 40,000 291 456 0
2018-07-16 09:32:04 GMT 48.287426 14.711922 40,000 291 455 0
2018-07-16 09:32:01 GMT 48.284492 14.723487 40,000 291 455 0
2018-07-16 09:31:58 GMT 48.283081 14.729145 40,000 291 455 0
2018-07-16 09:31:54 GMT 48.280071 14.740906 40,000 291 455 0
2018-07-16 09:31:51 GMT 48.278320 14.747737 40,000 291 455 0
2018-07-16 09:31:48 GMT 48.276123 14.756470 40,000 291 455 0
2018-07-16 09:31:45 GMT 48.273739 14.765914 40,000 291 455 0
2018-07-16 09:31:42 GMT 48.270714 14.777696 40,000 291 454 0
2018-07-16 09:31:38 GMT 48.267548 14.790200 40,000 291 455 0
2018-07-16 09:31:34 GMT 48.265640 14.797668 40,000 291 454 0
2018-07-16 09:31:31 GMT 48.262802 14.808796 40,000 291 454 0
2018-07-16 09:31:27 GMT 48.259682 14.820990 40,000 291 455 0
2018-07-16 09:31:24 GMT 48.258099 14.827351 40,000 291 454 0
2018-07-16 09:31:21 GMT 48.254887 14.839783 40,000 291 454 0
2018-07-16 09:31:18 GMT 48.253052 14.847107 40,000 291 454 0
2018-07-16 09:31:15 GMT 48.250694 14.856262 40,000 291 455 0
2018-07-16 09:31:12 GMT 48.248337 14.865417 40,000 291 455 0
2018-07-16 09:31:07 GMT 48.244225 14.881632 40,000 291 455 0
2018-07-16 09:31:04 GMT 48.242641 14.887776 40,000 291 455 0
2018-07-16 09:31:01 GMT 48.240555 14.895982 40,000 291 455 0
2018-07-16 09:30:58 GMT 48.237762 14.906757 40,000 291 455 0
2018-07-16 09:30:55 GMT 48.236359 14.912423 40,000 291 455 0
2018-07-16 09:30:52 GMT 48.233147 14.924854 40,000 291 455 0
2018-07-16 09:30:48 GMT 48.230484 14.935209 40,000 291 455 0
2018-07-16 09:30:44 GMT 48.227509 14.946970 40,000 291 455 0
2018-07-16 09:30:41 GMT 48.225266 14.955632 40,000 292 454 0
2018-07-16 09:30:38 GMT 48.222519 14.966407 40,000 291 455 0
2018-07-16 09:30:34 GMT 48.219269 14.979084 40,000 292 454 0
2018-07-16 09:30:31 GMT 48.217735 14.984918 40,000 292 454 0
2018-07-16 09:30:28 GMT 48.214943 14.995976 40,000 292 454 0
2018-07-16 09:30:24 GMT 48.212105 15.007035 40,000 292 454 0
2018-07-16 09:30:21 GMT 48.210197 15.014480 40,000 292 454 0
2018-07-16 09:30:18 GMT 48.207542 15.024816 40,000 292 454 64
2018-07-16 09:30:15 GMT 48.205170 15.033923 40,000 292 454 0
2018-07-16 09:30:12 GMT 48.203724 15.039560 40,000 292 454 0
2018-07-16 09:30:08 GMT 48.200279 15.053149 40,000 292 454 0
2018-07-16 09:30:04 GMT 48.197433 15.064157 40,000 292 454 0
2018-07-16 09:30:01 GMT 48.195145 15.073031 40,000 292 454 0
2018-07-16 09:29:58 GMT 48.192833 15.081916 40,000 292 454 0
2018-07-16 09:29:54 GMT 48.190502 15.091095 40,000 292 452 0
2018-07-16 09:29:51 GMT 48.187618 15.102298 40,000 292 453 0
2018-07-16 09:29:48 GMT 48.185478 15.110466 40,000 292 453 0
2018-07-16 09:29:45 GMT 48.182419 15.122399 40,000 292 453 0
2018-07-16 09:29:40 GMT 48.179100 15.135257 40,000 292 452 0
2018-07-16 09:29:35 GMT 48.175701 15.148340 40,000 292 453 0
2018-07-16 09:29:32 GMT 48.174042 15.154865 40,000 292 452 0
2018-07-16 09:29:29 GMT 48.170765 15.167493 40,000 292 452 0
2018-07-16 09:29:26 GMT 48.168549 15.176063 40,000 292 452 0
2018-07-16 09:29:23 GMT 48.166077 15.185641 40,000 292 452 0
2018-07-16 09:29:20 GMT 48.164387 15.192140 40,000 292 452 0
2018-07-16 09:29:15 GMT 48.160080 15.208717 40,000 292 452 0
2018-07-16 09:29:12 GMT 48.158340 15.215446 40,000 292 452 0
2018-07-16 09:29:09 GMT 48.156475 15.222684 40,000 292 452 0
2018-07-16 09:29:06 GMT 48.154221 15.231308 40,000 292 452 0
2018-07-16 09:29:03 GMT 48.151447 15.241981 40,000 292 452 0
2018-07-16 09:29:00 GMT 48.149166 15.250854 40,000 292 452 0
2018-07-16 09:28:57 GMT 48.146278 15.262052 40,000 292 452 0
2018-07-16 09:28:54 GMT 48.144058 15.270653 40,000 292 451 0
2018-07-16 09:28:50 GMT 48.142227 15.277657 40,000 292 452 0
2018-07-16 09:28:47 GMT 48.139668 15.287405 40,000 292 452 0
2018-07-16 09:28:43 GMT 48.136272 15.300434 40,000 292 452 0
2018-07-16 09:28:38 GMT 48.132221 15.316068 40,000 292 452 0
2018-07-16 09:28:33 GMT 48.128403 15.330734 40,000 292 452 0
2018-07-16 09:28:30 GMT 48.126160 15.339317 40,000 292 453 64
2018-07-16 09:28:27 GMT 48.124538 15.345576 40,000 292 452 0
2018-07-16 09:28:22 GMT 48.120350 15.361704 40,000 292 452 64
2018-07-16 09:28:18 GMT 48.117279 15.373512 40,000 292 453 0
2018-07-16 09:28:15 GMT 48.114670 15.383537 40,000 292 453 64
2018-07-16 09:28:12 GMT 48.112289 15.392601 40,000 292 453 0
2018-07-16 09:28:08 GMT 48.110092 15.400978 40,000 292 453 0
2018-07-16 09:28:05 GMT 48.107849 15.409630 40,000 292 453 0
2018-07-16 09:28:01 GMT 48.104290 15.423114 40,000 292 453 0
2018-07-16 09:27:58 GMT 48.101730 15.432833 40,000 292 453 0
2018-07-16 09:27:53 GMT 48.099014 15.443344 40,000 292 451 0
2018-07-16 09:27:50 GMT 48.096085 15.454468 40,000 292 452 0
2018-07-16 09:27:47 GMT 48.093536 15.464243 40,000 292 452 0
2018-07-16 09:27:44 GMT 48.091625 15.471426 40,000 292 452 0
2018-07-16 09:27:41 GMT 48.089485 15.479525 40,000 292 451 0
2018-07-16 09:27:38 GMT 48.087570 15.486946 40,000 292 451 0
2018-07-16 09:27:34 GMT 48.083359 15.502945 40,000 292 450 64
2018-07-16 09:27:31 GMT 48.081436 15.510361 40,000 292 450 0
2018-07-16 09:27:28 GMT 48.079788 15.516541 40,000 292 450 0
2018-07-16 09:27:24 GMT 48.076904 15.527664 40,000 292 449 0
2018-07-16 09:27:21 GMT 48.074341 15.537415 40,000 292 449 0
2018-07-16 09:27:18 GMT 48.071411 15.548676 40,000 292 449 0
2018-07-16 09:27:14 GMT 48.069050 15.557697 40,000 292 446 0
2018-07-16 09:27:11 GMT 48.066513 15.567352 40,000 292 449 0
2018-07-16 09:27:07 GMT 48.063583 15.578407 40,000 292 448 0
2018-07-16 09:27:02 GMT 48.058994 15.595938 40,000 292 446 0
2018-07-16 09:26:59 GMT 48.057037 15.603264 40,000 292 447 -64
2018-07-16 09:26:56 GMT 48.054523 15.612910 40,000 292 447 -64
2018-07-16 09:26:52 GMT 48.052414 15.620911 40,000 292 447 -64
2018-07-16 09:26:48 GMT 48.048706 15.634918 40,000 292 447 0
2018-07-16 09:26:44 GMT 48.046658 15.642771 40,000 292 446 0
2018-07-16 09:26:41 GMT 48.043537 15.654391 40,000 292 446 0
2018-07-16 09:26:38 GMT 48.041210 15.663335 40,000 292 446 0
2018-07-16 09:26:35 GMT 48.039070 15.671293 40,000 292 446 0
2018-07-16 09:26:32 GMT 48.036804 15.679962 40,000 292 445 0
2018-07-16 09:26:29 GMT 48.034740 15.687772 40,000 292 445 0
2018-07-16 09:26:26 GMT 48.032738 15.695308 40,000 292 444 0
2018-07-16 09:26:23 GMT 48.030457 15.703900 40,000 292 445 0
2018-07-16 09:26:19 GMT 48.027512 15.715118 40,000 292 445 64
2018-07-16 09:26:15 GMT 48.024078 15.728126 40,000 292 444 0
2018-07-16 09:26:12 GMT 48.021332 15.738396 40,000 292 445 0
2018-07-16 09:26:08 GMT 48.018311 15.749794 40,000 292 445 64
2018-07-16 09:26:05 GMT 48.016937 15.755013 40,000 292 445 64
2018-07-16 09:26:02 GMT 48.014145 15.765518 40,000 292 445 64
2018-07-16 09:25:58 GMT 48.011650 15.774888 40,000 292 445 0
2018-07-16 09:25:54 GMT 48.008423 15.786942 40,000 292 445 0
2018-07-16 09:25:51 GMT 48.006203 15.795382 40,000 292 445 0
2018-07-16 09:25:48 GMT 48.003891 15.804039 40,000 292 445 0
2018-07-16 09:25:45 GMT 48.000229 15.817772 40,000 292 445 -64
2018-07-16 09:25:40 GMT 47.997826 15.826862 40,000 292 445 -64
2018-07-16 09:25:37 GMT 47.995125 15.836933 40,000 292 445 0
2018-07-16 09:25:33 GMT 47.991806 15.849426 40,000 292 445 64
2018-07-16 09:25:30 GMT 47.989380 15.858559 40,000 292 445 64
2018-07-16 09:25:27 GMT 47.988190 15.863131 40,000 292 445 64
2018-07-16 09:25:23 GMT 47.985489 15.873131 40,000 292 445 0
2018-07-16 09:25:20 GMT 47.982330 15.884995 40,000 292 445 -64
2018-07-16 09:25:17 GMT 47.980225 15.893028 40,000 292 445 -64
2018-07-16 09:25:14 GMT 47.977341 15.903671 40,000 292 445 -64
2018-07-16 09:25:11 GMT 47.975693 15.909851 40,000 292 445 0
2018-07-16 09:25:07 GMT 47.972080 15.923485 40,000 292 445 0
2018-07-16 09:25:02 GMT 47.969284 15.933952 40,000 292 444 0
2018-07-16 09:24:58 GMT 47.966400 15.944683 40,000 292 444 64
2018-07-16 09:24:55 GMT 47.964066 15.953522 40,000 292 444 64
2018-07-16 09:24:52 GMT 47.961639 15.962654 40,000 292 444 0
2018-07-16 09:24:48 GMT 47.957428 15.978310 40,000 292 444 0
2018-07-16 09:24:45 GMT 47.956238 15.982841 40,000 292 444 0
2018-07-16 09:24:42 GMT 47.953693 15.992432 40,000 292 444 0
2018-07-16 09:24:38 GMT 47.950668 16.003559 40,000 292 444 0
2018-07-16 09:24:34 GMT 47.947037 16.017151 40,000 292 444 0
2018-07-16 09:24:31 GMT 47.945080 16.024475 40,000 292 445 0
2018-07-16 09:24:27 GMT 47.941730 16.036940 40,000 292 445 -64
2018-07-16 09:24:23 GMT 47.939495 16.045391 40,000 292 444 0
2018-07-16 09:24:20 GMT 47.937214 16.053772 40,000 292 445 -64
2018-07-16 09:24:16 GMT 47.934093 16.065392 40,000 292 445 0
2018-07-16 09:24:13 GMT 47.931675 16.074408 40,000 292 445 0
2018-07-16 09:24:10 GMT 47.929718 16.081732 40,000 292 445 0
2018-07-16 09:24:07 GMT 47.926647 16.093069 40,000 292 445 0
2018-07-16 09:24:04 GMT 47.924690 16.100393 40,000 292 445 0
2018-07-16 09:24:00 GMT 47.922272 16.109478 40,000 292 445 0
2018-07-16 09:23:57 GMT 47.919937 16.118111 40,000 292 445 0
2018-07-16 09:23:54 GMT 47.916412 16.131020 40,000 292 445 0
2018-07-16 09:23:49 GMT 47.912384 16.146057 40,000 292 445 0
2018-07-16 09:23:44 GMT 47.909840 16.155325 40,000 292 445 64
2018-07-16 09:23:41 GMT 47.907093 16.165607 40,000 292 446 64
2018-07-16 09:23:37 GMT 47.904442 16.175325 40,000 292 446 64
2018-07-16 09:23:34 GMT 47.901367 16.186735 40,000 292 446 0
2018-07-16 09:23:30 GMT 47.898251 16.198284 40,000 292 446 0
2018-07-16 09:23:27 GMT 47.896820 16.203529 40,000 293 446 -64
2018-07-16 09:23:23 GMT 47.892700 16.218773 40,000 292 446 0
2018-07-16 09:23:17 GMT 47.888615 16.233780 40,000 292 446 0
2018-07-16 09:23:12 GMT 47.885262 16.246033 40,000 292 446 0
2018-07-16 09:23:09 GMT 47.882050 16.257864 40,000 292 446 0
2018-07-16 09:23:05 GMT 47.879425 16.267593 40,000 292 446 0
2018-07-16 09:23:02 GMT 47.877274 16.275558 40,000 292 446 0
2018-07-16 09:22:58 GMT 47.874088 16.287373 40,000 292 446 0
2018-07-16 09:22:55 GMT 47.871807 16.295822 40,000 292 446 0
2018-07-16 09:22:52 GMT 47.868736 16.307161 40,000 292 446 0
2018-07-16 09:22:49 GMT 47.867153 16.312866 40,000 292 446 0
2018-07-16 09:22:45 GMT 47.864090 16.324173 40,000 292 446 0
2018-07-16 09:22:41 GMT 47.860962 16.335754 40,000 292 446 0
2018-07-16 09:22:38 GMT 47.859283 16.341951 40,000 292 446 0
2018-07-16 09:22:35 GMT 47.856304 16.352797 40,000 293 445 0
2018-07-16 09:22:32 GMT 47.853466 16.363291 40,000 293 445 0
2018-07-16 09:22:29 GMT 47.852280 16.367775 40,000 293 445 0
2018-07-16 09:22:26 GMT 47.848846 16.380272 40,000 293 445 0
2018-07-16 09:22:23 GMT 47.846558 16.388649 40,000 293 445 0
2018-07-16 09:22:19 GMT 47.843903 16.398399 40,000 293 444 0
2018-07-16 09:22:16 GMT 47.841686 16.406532 40,000 293 444 0
2018-07-16 09:22:13 GMT 47.838593 16.417831 40,000 293 444 0
2018-07-16 09:22:10 GMT 47.836941 16.423927 40,000 293 444 0
2018-07-16 09:22:07 GMT 47.834801 16.431885 40,000 293 444 0
2018-07-16 09:22:01 GMT 47.829620 16.450859 40,000 293 443 0
2018-07-16 09:21:57 GMT 47.826141 16.463507 40,000 293 443 0
2018-07-16 09:21:52 GMT 47.823254 16.474070 40,000 293 443 0
2018-07-16 09:21:49 GMT 47.820969 16.482445 40,000 293 443 0
2018-07-16 09:21:46 GMT 47.818924 16.489845 40,000 293 443 0
2018-07-16 09:21:41 GMT 47.814362 16.506535 40,000 293 442 0
2018-07-16 09:21:38 GMT 47.812500 16.513296 40,000 293 442 0
2018-07-16 09:21:35 GMT 47.810593 16.520267 40,000 293 442 0
2018-07-16 09:21:32 GMT 47.807659 16.531042 40,000 293 442 0
2018-07-16 09:21:29 GMT 47.804493 16.542452 40,000 293 441 0
2018-07-16 09:21:26 GMT 47.802212 16.550762 40,000 293 441 0
2018-07-16 09:21:21 GMT 47.799885 16.559284 40,000 293 441 0
2018-07-16 09:21:18 GMT 47.796890 16.570267 40,000 293 441 0
2018-07-16 09:21:14 GMT 47.792995 16.584354 40,000 293 440 0
2018-07-16 09:21:10 GMT 47.791225 16.590904 40,000 293 440 0
2018-07-16 09:21:07 GMT 47.788010 16.602539 40,000 293 440 0
2018-07-16 09:21:03 GMT 47.785732 16.610765 40,000 293 440 0
2018-07-16 09:21:00 GMT 47.782986 16.620836 40,000 293 440 0
2018-07-16 09:20:57 GMT 47.780731 16.629112 40,000 293 439 0
2018-07-16 09:20:53 GMT 47.778030 16.638931 40,000 293 439 0
2018-07-16 09:20:50 GMT 47.774734 16.650742 40,000 293 439 0
2018-07-16 09:20:47 GMT 47.772793 16.657879 40,000 293 439 0
2018-07-16 09:20:42 GMT 47.768646 16.672880 40,000 293 439 0
2018-07-16 09:20:38 GMT 47.766220 16.681778 40,000 293 439 0
2018-07-16 09:20:35 GMT 47.763947 16.689993 40,000 293 439 0
2018-07-16 09:20:29 GMT 47.759262 16.706909 40,000 293 438 0
2018-07-16 09:20:25 GMT 47.756195 16.718102 40,000 293 438 0
2018-07-16 09:20:20 GMT 47.752625 16.731010 40,000 293 439 0
2018-07-16 09:20:17 GMT 47.750259 16.739643 40,000 293 439 0
2018-07-16 09:20:14 GMT 47.748001 16.747696 40,000 293 439 0
2018-07-16 09:20:10 GMT 47.744209 16.761475 40,000 293 439 -64
2018-07-16 09:20:07 GMT 47.741928 16.769644 40,000 293 439 0
2018-07-16 09:20:04 GMT 47.739944 16.776810 40,000 293 439 0
2018-07-16 09:19:57 GMT 47.735317 16.793447 40,000 293 439 0
2018-07-16 09:19:53 GMT 47.731686 16.806547 40,000 293 439 0
2018-07-16 09:19:46 GMT 47.725864 16.827463 40,000 293 439 0
2018-07-16 09:19:42 GMT 47.723259 16.836830 40,000 293 439 0
2018-07-16 09:19:37 GMT 47.719208 16.851479 40,000 293 439 0
2018-07-16 09:19:33 GMT 47.715858 16.863522 40,000 293 439 0
2018-07-16 09:19:30 GMT 47.713482 16.871971 40,000 293 439 0
2018-07-16 09:19:27 GMT 47.711151 16.880424 40,000 293 439 0
2018-07-16 09:19:23 GMT 47.707672 16.892853 40,000 293 440 0
2018-07-16 09:19:20 GMT 47.705475 16.900635 40,000 293 440 0
2018-07-16 09:19:16 GMT 47.702450 16.911551 40,000 293 440 0
2018-07-16 09:19:13 GMT 47.700485 16.918671 40,000 293 440 0
2018-07-16 09:19:10 GMT 47.697609 16.928946 40,000 293 440 0
2018-07-16 09:19:06 GMT 47.694771 16.939157 40,000 295 438 0
2018-07-16 09:19:03 GMT 47.692978 16.945587 40,000 293 440 0
2018-07-16 09:18:58 GMT 47.689499 16.958084 40,000 293 439 0
2018-07-16 09:18:55 GMT 47.686432 16.969208 40,000 293 439 0
2018-07-16 09:18:52 GMT 47.684063 16.977680 40,000 293 439 0
2018-07-16 09:18:48 GMT 47.681454 16.987045 40,000 293 439 0
2018-07-16 09:18:44 GMT 47.677917 16.999969 40,000 293 440 0
2018-07-16 09:18:41 GMT 47.675995 17.006905 40,000 293 440 0
2018-07-16 09:18:37 GMT 47.672935 17.018034 40,000 293 440 0
2018-07-16 09:18:34 GMT 47.670868 17.025650 40,000 293 440 0
2018-07-16 09:18:31 GMT 47.668945 17.032516 40,000 293 440 0
2018-07-16 09:18:28 GMT 47.665604 17.044807 40,000 293 439 0
2018-07-16 09:18:25 GMT 47.663223 17.053528 40,000 293 440 0
2018-07-16 09:18:21 GMT 47.660660 17.062866 40,000 293 439 0
2018-07-16 09:18:14 GMT 47.655151 17.082895 40,000 293 439 0
2018-07-16 09:18:11 GMT 47.652966 17.090923 40,000 295 438 0
2018-07-16 09:18:08 GMT 47.650543 17.099586 40,000 294 439 0
2018-07-16 09:18:04 GMT 47.647797 17.109587 40,000 293 439 0
2018-07-16 09:18:01 GMT 47.644913 17.119995 40,000 294 438 0
2018-07-16 09:17:57 GMT 47.642536 17.128389 40,000 294 439 0
2018-07-16 09:17:54 GMT 47.639374 17.139427 40,000 294 439 0
2018-07-16 09:17:50 GMT 47.636902 17.148079 40,000 294 438 0
2018-07-16 09:17:47 GMT 47.634430 17.156662 40,000 294 439 0
2018-07-16 09:17:42 GMT 47.629738 17.172476 40,000 294 438 0
2018-07-16 09:17:37 GMT 47.626099 17.184471 40,000 295 438 0
2018-07-16 09:17:31 GMT 47.621124 17.200928 40,000 295 438 0
2018-07-16 09:17:28 GMT 47.618980 17.207899 40,000 295 438 0
2018-07-16 09:17:22 GMT 47.612976 17.227760 40,000 295 438 0
2018-07-16 09:17:18 GMT 47.609764 17.238253 40,000 295 438 0
2018-07-16 09:17:14 GMT 47.607285 17.246544 40,000 295 437 0
2018-07-16 09:17:10 GMT 47.603897 17.257690 40,000 295 437 0
2018-07-16 09:17:06 GMT 47.600548 17.268606 40,000 295 437 0
2018-07-16 09:17:02 GMT 47.596592 17.281706 40,000 295 437 0
2018-07-16 09:16:59 GMT 47.595287 17.286001 40,000 295 437 0
2018-07-16 09:16:55 GMT 47.590214 17.302622 40,000 295 437 0
2018-07-16 09:16:49 GMT 47.586365 17.315208 40,000 295 437 0
2018-07-16 09:16:46 GMT 47.583557 17.324383 40,000 295 437 0
2018-07-16 09:16:43 GMT 47.581375 17.331551 40,000 295 437 0
2018-07-16 09:16:38 GMT 47.577576 17.343979 40,000 295 437 0
2018-07-16 09:16:33 GMT 47.573128 17.358540 40,000 295 436 0
2018-07-16 09:16:28 GMT 47.569359 17.370934 40,000 295 436 0
2018-07-16 09:16:23 GMT 47.564751 17.385935 40,000 295 436 0
2018-07-16 09:16:20 GMT 47.562420 17.393541 40,000 295 436 0
2018-07-16 09:16:17 GMT 47.558884 17.405090 40,000 295 436 0
2018-07-16 09:16:12 GMT 47.556137 17.414246 40,000 295 436 0
2018-07-16 09:16:09 GMT 47.553532 17.422697 40,000 295 436 0
2018-07-16 09:16:06 GMT 47.550411 17.432907 40,000 295 436 0
2018-07-16 09:16:02 GMT 47.547108 17.443754 40,000 295 436 0
2018-07-16 09:15:55 GMT 47.541752 17.461149 40,000 295 435 0
2018-07-16 09:15:52 GMT 47.539101 17.469810 40,000 295 436 0
2018-07-16 09:15:49 GMT 47.535702 17.480938 40,000 295 436 0
2018-07-16 09:15:45 GMT 47.532852 17.490234 40,000 295 435 0
2018-07-16 09:15:41 GMT 47.529877 17.499779 40,000 295 436 0
2018-07-16 09:15:36 GMT 47.525784 17.513264 40,000 295 435 0
2018-07-16 09:15:33 GMT 47.523376 17.521065 40,000 295 435 0
2018-07-16 09:15:30 GMT 47.521225 17.528000 40,000 295 436 0
2018-07-16 09:15:27 GMT 47.518295 17.537544 40,000 295 436 0
2018-07-16 09:15:24 GMT 47.515732 17.545990 40,000 295 436 0
2018-07-16 09:15:20 GMT 47.511795 17.558830 40,000 295 436 0
2018-07-16 09:15:13 GMT 47.506577 17.575722 40,000 295 436 0
2018-07-16 09:15:10 GMT 47.503647 17.585266 40,000 295 436 0
2018-07-16 09:15:04 GMT 47.499298 17.599323 40,000 295 436 0
2018-07-16 09:15:01 GMT 47.496037 17.609957 40,000 295 436 0
2018-07-16 09:14:58 GMT 47.493942 17.616646 40,000 295 436 0
2018-07-16 09:14:54 GMT 47.490967 17.626396 40,000 295 436 0
2018-07-16 09:14:51 GMT 47.487473 17.637634 40,000 295 436 0
2018-07-16 09:14:48 GMT 47.485840 17.642876 40,000 295 436 0
2018-07-16 09:14:41 GMT 47.478439 17.666931 40,000 295 436 0
2018-07-16 09:14:38 GMT 47.476673 17.672495 40,000 295 438 0
2018-07-16 09:14:32 GMT 47.472015 17.687494 40,000 295 437 0
2018-07-16 09:14:29 GMT 47.469269 17.696365 40,000 295 437 0
2018-07-16 09:14:26 GMT 47.467712 17.701378 40,000 295 438 0
2018-07-16 09:14:21 GMT 47.462940 17.716791 40,000 295 438 0
2018-07-16 09:14:18 GMT 47.460705 17.723976 40,000 295 438 0
2018-07-16 09:14:15 GMT 47.458099 17.732428 40,000 295 438 0
2018-07-16 09:14:10 GMT 47.453583 17.746935 40,000 295 438 0
2018-07-16 09:14:07 GMT 47.451302 17.754330 40,000 295 438 0
2018-07-16 09:14:04 GMT 47.448257 17.764137 40,000 295 438 0
2018-07-16 09:14:01 GMT 47.446648 17.769329 40,000 295 438 0
2018-07-16 09:13:58 GMT 47.442875 17.781513 40,000 295 438 0
2018-07-16 09:13:54 GMT 47.440018 17.790642 40,000 295 438 0
2018-07-16 09:13:51 GMT 47.438080 17.796936 40,000 295 437 64
2018-07-16 09:13:46 GMT 47.433517 17.811655 40,000 295 437 64
2018-07-16 09:13:42 GMT 47.429398 17.824905 40,000 295 437 0
2018-07-16 09:13:38 GMT 47.426163 17.835318 40,000 295 437 64
2018-07-16 09:13:35 GMT 47.424088 17.842003 40,000 295 437 0
2018-07-16 09:13:31 GMT 47.421181 17.851303 40,000 295 436 0
2018-07-16 09:13:28 GMT 47.417908 17.861916 40,000 295 437 0
2018-07-16 09:13:24 GMT 47.415253 17.870361 40,000 295 436 0
2018-07-16 09:13:19 GMT 47.410995 17.883957 40,000 295 436 0
2018-07-16 09:13:16 GMT 47.407974 17.893707 40,000 295 436 0
2018-07-16 09:13:13 GMT 47.406052 17.899967 40,000 295 436 0
2018-07-16 09:13:10 GMT 47.403397 17.908401 40,000 295 435 0
2018-07-16 09:13:06 GMT 47.400372 17.918139 40,000 295 435 0
2018-07-16 09:13:02 GMT 47.396275 17.931236 40,000 295 435 0
2018-07-16 09:12:59 GMT 47.394470 17.937103 40,000 295 435 0
2018-07-16 09:12:55 GMT 47.391155 17.947645 40,000 295 435 0
2018-07-16 09:12:52 GMT 47.388084 17.957577 40,000 295 435 -64
2018-07-16 09:12:49 GMT 47.385757 17.964899 40,000 295 435 0
2018-07-16 09:12:45 GMT 47.382076 17.976732 40,000 295 435 0
2018-07-16 09:12:42 GMT 47.379051 17.986380 40,000 295 435 0
2018-07-16 09:12:39 GMT 47.376938 17.993065 40,000 295 434 0
2018-07-16 09:12:35 GMT 47.373596 18.003777 40,000 295 434 -64
2018-07-16 09:12:31 GMT 47.370438 18.013870 40,000 295 434 0
2018-07-16 09:12:28 GMT 47.367321 18.023775 40,000 295 435 0
2018-07-16 09:12:24 GMT 47.364075 18.034058 40,000 295 435 0
2018-07-16 09:12:20 GMT 47.361191 18.043327 40,000 295 435 0
2018-07-16 09:12:17 GMT 47.359177 18.049782 40,000 295 436 0
2018-07-16 09:12:12 GMT 47.354279 18.065231 40,000 295 436 0
2018-07-16 09:12:08 GMT 47.351532 18.074089 40,000 295 436 0
2018-07-16 09:12:04 GMT 47.347687 18.086311 40,000 295 437 64
2018-07-16 09:12:00 GMT 47.343384 18.099907 40,000 295 436 64
2018-07-16 09:11:57 GMT 47.341644 18.105469 39,975 295 437 0
2018-07-16 09:11:54 GMT 47.339172 18.113228 40,000 295 437 0
2018-07-16 09:11:50 GMT 47.335247 18.125751 40,000 295 437 0
2018-07-16 09:11:47 GMT 47.332947 18.133072 40,000 295 437 0
2018-07-16 09:11:42 GMT 47.328030 18.148640 40,000 295 437 0
2018-07-16 09:11:38 GMT 47.324585 18.159697 40,000 295 438 0
2018-07-16 09:11:33 GMT 47.321236 18.170259 40,000 295 438 0
2018-07-16 09:11:25 GMT 47.314682 18.191025 40,000 295 438 0
2018-07-16 09:11:22 GMT 47.312531 18.197891 40,000 295 437 0
2018-07-16 09:11:16 GMT 47.306385 18.217304 40,000 295 437 0
2018-07-16 09:11:12 GMT 47.303310 18.227022 40,000 295 437 0
2018-07-16 09:11:05 GMT 47.297493 18.245544 40,000 295 436 0
2018-07-16 09:11:02 GMT 47.294979 18.253502 40,000 295 436 0
2018-07-16 09:10:55 GMT 47.289185 18.271774 40,000 295 436 0
2018-07-16 09:10:52 GMT 47.286163 18.281250 40,000 295 436 -64
2018-07-16 09:10:47 GMT 47.281860 18.294777 40,000 295 436 0
2018-07-16 09:10:44 GMT 47.278404 18.305758 40,000 295 436 0
2018-07-16 09:10:41 GMT 47.276688 18.311119 40,000 295 436 0
2018-07-16 09:10:37 GMT 47.273163 18.322311 40,000 296 437 0
2018-07-16 09:10:34 GMT 47.270233 18.331581 40,000 296 437 0
2018-07-16 09:10:31 GMT 47.268585 18.336676 40,000 296 437 0
2018-07-16 09:10:28 GMT 47.266068 18.344696 40,000 296 439 0
2018-07-16 09:10:23 GMT 47.261833 18.358013 40,000 296 437 0
2018-07-16 09:10:20 GMT 47.259293 18.365982 40,000 296 437 0
2018-07-16 09:10:14 GMT 47.253689 18.383577 40,000 296 438 0
2018-07-16 09:10:10 GMT 47.250641 18.393036 40,000 296 438 0
2018-07-16 09:10:02 GMT 47.243912 18.414185 40,000 296 438 0
2018-07-16 09:09:58 GMT 47.240570 18.424759 40,000 296 438 0
2018-07-16 09:09:53 GMT 47.235394 18.440905 40,000 296 439 0
2018-07-16 09:09:49 GMT 47.232227 18.450834 40,000 296 439 0
2018-07-16 09:09:41 GMT 47.225464 18.472000 40,000 296 440 0
2018-07-16 09:09:38 GMT 47.223083 18.479347 40,000 296 440 0
2018-07-16 09:09:34 GMT 47.219833 18.489510 40,000 296 440 0
2018-07-16 09:09:31 GMT 47.216400 18.500359 40,000 296 440 0
2018-07-16 09:09:27 GMT 47.213093 18.510695 40,000 296 440 0
2018-07-16 09:09:24 GMT 47.211277 18.516329 40,000 296 440 0
2018-07-16 09:09:18 GMT 47.205086 18.535837 40,000 296 438 0
2018-07-16 09:09:10 GMT 47.199223 18.554148 40,000 296 439 0
2018-07-16 09:09:07 GMT 47.196716 18.561951 40,000 296 439 0
2018-07-16 09:09:04 GMT 47.192516 18.575064 40,000 296 437 0
2018-07-16 09:08:57 GMT 47.187534 18.590628 40,000 296 438 0
2018-07-16 09:08:53 GMT 47.184090 18.601332 40,000 296 438 0
2018-07-16 09:08:49 GMT 47.180927 18.611261 40,000 296 437 0
2018-07-16 09:08:46 GMT 47.178406 18.619217 40,000 296 437 0
2018-07-16 09:08:42 GMT 47.174873 18.630136 40,000 296 436 0
2018-07-16 09:08:36 GMT 47.169708 18.646202 40,000 296 436 0
2018-07-16 09:08:33 GMT 47.166046 18.657532 40,000 296 434 0
2018-07-16 09:08:28 GMT 47.162678 18.668024 40,000 296 436 0
2018-07-16 09:08:22 GMT 47.157532 18.684036 40,000 296 434 0
2018-07-16 09:08:18 GMT 47.154114 18.694715 40,000 296 435 0
2018-07-16 09:08:15 GMT 47.151085 18.704153 40,000 296 435 0
2018-07-16 09:08:11 GMT 47.147221 18.716055 40,000 296 433 0
2018-07-16 09:08:08 GMT 47.144939 18.723099 40,000 296 434 0
2018-07-16 09:08:04 GMT 47.141602 18.733543 40,000 296 434 0
2018-07-16 09:08:00 GMT 47.137863 18.745001 40,000 296 433 0
2018-07-16 09:07:56 GMT 47.135330 18.752907 40,000 296 434 0
2018-07-16 09:07:53 GMT 47.132744 18.760986 40,000 296 434 0
2018-07-16 09:07:48 GMT 47.127716 18.776480 40,000 296 432 0
2018-07-16 09:07:44 GMT 47.125202 18.784367 40,000 296 433 0
2018-07-16 09:07:41 GMT 47.121899 18.794510 40,000 296 433 0
2018-07-16 09:07:38 GMT 47.120178 18.799873 40,000 296 433 0
2018-07-16 09:07:34 GMT 47.116219 18.812115 40,000 296 433 0
2018-07-16 09:07:31 GMT 47.112728 18.822960 40,000 296 436 0
2018-07-16 09:07:25 GMT 47.108398 18.836342 40,000 296 433 0
2018-07-16 09:07:22 GMT 47.105511 18.845215 40,000 296 433 0
2018-07-16 09:07:16 GMT 47.100437 18.860920 40,000 296 432 0
2018-07-16 09:07:11 GMT 47.096203 18.874020 40,000 296 433 0
2018-07-16 09:07:07 GMT 47.092754 18.884653 40,000 296 433 0
2018-07-16 09:07:03 GMT 47.090057 18.892914 40,000 296 433 0
2018-07-16 09:07:00 GMT 47.086624 18.903488 40,000 296 433 0
2018-07-16 09:06:52 GMT 47.080700 18.921698 40,000 296 434 0
2018-07-16 09:06:48 GMT 47.076553 18.934456 40,000 296 434 0
2018-07-16 09:06:43 GMT 47.072506 18.946909 40,000 296 434 0
2018-07-16 09:06:39 GMT 47.068501 18.959232 40,000 296 434 0
2018-07-16 09:06:34 GMT 47.064651 18.971123 40,000 296 435 0
2018-07-16 09:06:31 GMT 47.062500 18.977715 40,000 296 434 0
2018-07-16 09:06:26 GMT 47.056816 18.995081 40,000 296 435 0
2018-07-16 09:06:21 GMT 47.053371 19.005714 40,000 296 435 0
2018-07-16 09:06:14 GMT 47.046661 19.026329 40,000 296 435 0
2018-07-16 09:06:10 GMT 47.044109 19.034166 40,000 296 435 0
2018-07-16 09:06:05 GMT 47.039658 19.047752 40,000 296 435 0
2018-07-16 09:06:02 GMT 47.036892 19.056278 40,000 296 436 0
2018-07-16 09:05:59 GMT 47.034805 19.062653 40,000 296 436 0
2018-07-16 09:05:49 GMT 47.025906 19.089872 40,000 296 436 0
2018-07-16 09:05:38 GMT 47.015991 19.120155 40,000 296 436 0
2018-07-16 09:05:28 GMT 47.007519 19.146141 40,000 296 436 0
2018-07-16 09:05:17 GMT 46.997929 19.175299 40,000 296 436 0
2018-07-16 09:05:07 GMT 46.989037 19.202271 40,000 296 436 0
2018-07-16 09:04:56 GMT 46.979542 19.231215 40,000 296 436 0
2018-07-16 09:04:45 GMT 46.970322 19.259245 40,000 296 436 -64
2018-07-16 09:04:36 GMT 46.960964 19.287626 40,000 296 435 64
2018-07-16 09:04:33 GMT 46.958454 19.295301 40,000 296 435 64
2018-07-16 09:04:28 GMT 46.954262 19.307980 40,000 296 435 0
2018-07-16 09:04:25 GMT 46.951584 19.316025 40,000 296 435 0
2018-07-16 09:04:13 GMT 46.942390 19.343897 40,000 296 434 0
2018-07-16 09:04:08 GMT 46.936527 19.361643 40,000 296 434 0
2018-07-16 09:04:04 GMT 46.933914 19.369446 40,000 296 434 0
2018-07-16 09:04:00 GMT 46.929611 19.382492 40,000 296 432 64
2018-07-16 09:03:52 GMT 46.923843 19.400002 40,000 296 432 0
2018-07-16 09:03:49 GMT 46.921280 19.407761 40,000 296 432 0
2018-07-16 09:03:41 GMT 46.913345 19.431717 40,000 296 431 0
2018-07-16 09:03:30 GMT 46.904079 19.459675 40,000 296 432 0
2018-07-16 09:03:26 GMT 46.901566 19.467211 40,000 296 432 0
2018-07-16 09:03:21 GMT 46.897202 19.480408 40,000 296 432 0
2018-07-16 09:03:18 GMT 46.893654 19.491156 40,000 296 432 0
2018-07-16 09:03:10 GMT 46.887772 19.508904 40,000 296 431 0
2018-07-16 09:03:07 GMT 46.885071 19.517075 40,000 296 430 64
2018-07-16 09:03:00 GMT 46.878387 19.537125 40,000 296 430 64
2018-07-16 09:02:56 GMT 46.873901 19.550446 40,000 296 430 0
2018-07-16 09:02:49 GMT 46.869461 19.563835 40,000 296 430 0
2018-07-16 09:02:45 GMT 46.865395 19.576126 40,000 296 430 0
2018-07-16 09:02:39 GMT 46.860088 19.591988 40,000 296 430 0
2018-07-16 09:02:34 GMT 46.855804 19.604897 40,000 296 429 0
2018-07-16 09:02:27 GMT 46.850372 19.621113 40,000 296 429 0
2018-07-16 09:02:24 GMT 46.847076 19.630827 40,000 296 428 -64
2018-07-16 09:02:18 GMT 46.842026 19.646027 40,000 296 428 0
2018-07-16 09:02:11 GMT 46.836346 19.663055 40,000 296 428 0
2018-07-16 09:02:07 GMT 46.832481 19.674660 40,000 296 428 0
2018-07-16 09:02:04 GMT 46.830013 19.682144 40,000 296 428 0
2018-07-16 09:02:01 GMT 46.827038 19.691071 40,000 296 428 0
2018-07-16 09:01:53 GMT 46.820423 19.710777 40,000 297 428 0
2018-07-16 09:01:50 GMT 46.817917 19.718182 40,000 297 428 0
2018-07-16 09:01:41 GMT 46.810501 19.740355 40,000 297 428 0
2018-07-16 09:01:30 GMT 46.800549 19.770035 40,000 297 428 64
2018-07-16 09:01:20 GMT 46.792099 19.795086 40,000 297 428 0
2018-07-16 09:01:10 GMT 46.782806 19.822618 40,000 296 429 0
2018-07-16 09:00:59 GMT 46.773193 19.851223 40,000 297 428 0
2018-07-16 09:00:47 GMT 46.762932 19.881683 40,000 297 428 0
2018-07-16 09:00:38 GMT 46.755341 19.904280 40,000 297 427 0
2018-07-16 09:00:33 GMT 46.750645 19.918213 40,000 297 427 0
2018-07-16 09:00:28 GMT 46.746140 19.931477 40,000 297 429 0
2018-07-16 09:00:25 GMT 46.743523 19.939087 40,000 297 429 0
2018-07-16 09:00:16 GMT 46.734489 19.965866 40,000 297 427 0
2018-07-16 09:00:04 GMT 46.725540 19.992304 40,000 297 427 64
2018-07-16 09:00:00 GMT 46.721920 20.003082 40,000 297 427 64
2018-07-16 08:59:55 GMT 46.717941 20.014812 40,000 297 427 0
2018-07-16 08:59:52 GMT 46.714565 20.024712 40,000 297 427 0
2018-07-16 08:59:45 GMT 46.708561 20.042496 40,000 297 427 0
2018-07-16 08:59:42 GMT 46.706139 20.049706 40,000 297 427 0
2018-07-16 08:59:34 GMT 46.699715 20.068588 40,000 297 427 0
2018-07-16 08:59:28 GMT 46.693817 20.085888 40,000 297 427 -64
2018-07-16 08:59:24 GMT 46.690475 20.095736 40,000 297 427 0
2018-07-16 08:59:20 GMT 46.687180 20.105383 40,000 297 427 -64
2018-07-16 08:59:13 GMT 46.680954 20.123657 40,000 297 426 -128
2018-07-16 08:59:10 GMT 46.677975 20.132515 40,000 297 426 0
2018-07-16 08:59:03 GMT 46.671879 20.150368 40,000 297 426 0
2018-07-16 08:58:58 GMT 46.668137 20.161453 40,000 297 426 0
2018-07-16 08:58:52 GMT 46.662735 20.177261 40,000 297 426 0
2018-07-16 08:58:46 GMT 46.656654 20.195068 40,000 297 426 64
2018-07-16 08:58:42 GMT 46.653488 20.204338 40,000 297 427 0
2018-07-16 08:58:36 GMT 46.648743 20.218346 40,000 297 426 0
2018-07-16 08:58:31 GMT 46.644104 20.231859 40,000 297 427 0
2018-07-16 08:58:24 GMT 46.637287 20.251854 40,000 297 426 0
2018-07-16 08:58:20 GMT 46.634308 20.260437 40,000 297 427 0
2018-07-16 08:58:17 GMT 46.631004 20.270119 40,000 297 428 0
2018-07-16 08:58:09 GMT 46.624741 20.288399 40,000 297 427 0
2018-07-16 08:58:02 GMT 46.617924 20.308365 40,000 297 427 0
2018-07-16 08:57:59 GMT 46.616245 20.313309 40,000 297 427 0
2018-07-16 08:57:55 GMT 46.611591 20.326836 40,000 297 427 -64
2018-07-16 08:57:48 GMT 46.606796 20.340775 40,000 297 427 -64
2018-07-16 08:57:42 GMT 46.600605 20.358833 40,000 297 427 64
2018-07-16 08:57:38 GMT 46.597641 20.367447 40,000 297 427 64
2018-07-16 08:57:33 GMT 46.592365 20.382797 40,000 297 426 0
2018-07-16 08:57:25 GMT 46.586220 20.400581 40,000 297 427 0
2018-07-16 08:57:21 GMT 46.581425 20.414452 40,000 297 426 64
2018-07-16 08:57:17 GMT 46.578773 20.422279 40,000 297 426 -64
2018-07-16 08:57:09 GMT 46.570904 20.445145 40,000 297 424 0
2018-07-16 08:57:06 GMT 46.569122 20.450314 40,000 297 425 0
2018-07-16 08:56:59 GMT 46.562119 20.470678 40,000 297 424 64
2018-07-16 08:56:55 GMT 46.559780 20.477417 40,000 297 425 0
2018-07-16 08:56:47 GMT 46.551262 20.501999 40,000 297 423 0
2018-07-16 08:56:44 GMT 46.550079 20.505512 40,000 297 424 0
2018-07-16 08:56:36 GMT 46.542694 20.526855 40,000 297 423 0
2018-07-16 08:56:33 GMT 46.540600 20.532967 40,000 297 423 -64
2018-07-16 08:56:26 GMT 46.534313 20.551025 40,000 297 423 64
2018-07-16 08:56:22 GMT 46.530823 20.561188 40,000 297 423 0
2018-07-16 08:56:16 GMT 46.524914 20.578217 40,000 297 423 0
2018-07-16 08:56:10 GMT 46.519699 20.593254 40,000 297 423 0
2018-07-16 08:56:05 GMT 46.515507 20.605270 40,000 297 423 0
2018-07-16 08:56:00 GMT 46.511505 20.616806 40,000 297 424 0
2018-07-16 08:55:55 GMT 46.505688 20.633698 40,000 297 425 -64
2018-07-16 08:55:52 GMT 46.503078 20.641182 40,000 297 425 -64
2018-07-16 08:55:44 GMT 46.496155 20.661131 40,000 297 424 128
2018-07-16 08:55:26 GMT 46.481369 20.703735 40,000 297 425 0
2018-07-16 08:55:22 GMT 46.477242 20.715477 40,000 297 424 0
2018-07-16 08:55:17 GMT 46.473145 20.727219 40,000 297 424 0
2018-07-16 08:55:10 GMT 46.467186 20.744522 40,000 297 424 0
2018-07-16 08:55:06 GMT 46.463562 20.754848 40,000 297 424 0
2018-07-16 08:54:59 GMT 46.457737 20.771713 40,000 297 424 0
2018-07-16 08:54:55 GMT 46.454338 20.781464 40,000 297 424 0
2018-07-16 08:54:51 GMT 46.450104 20.793617 40,000 297 424 0
2018-07-16 08:54:44 GMT 46.443832 20.811455 40,000 297 424 0
2018-07-16 08:54:40 GMT 46.439953 20.822594 40,025 297 424 0
2018-07-16 08:54:34 GMT 46.435673 20.834747 40,000 297 424 0
2018-07-16 08:54:30 GMT 46.430504 20.849579 40,000 297 423 0
2018-07-16 08:54:20 GMT 46.423241 20.870384 40,000 297 424 0
2018-07-16 08:54:13 GMT 46.417053 20.887957 40,000 297 423 0
2018-07-16 08:54:06 GMT 46.410736 20.905977 40,000 297 423 64
2018-07-16 08:53:55 GMT 46.401222 20.933006 40,000 297 421 0
2018-07-16 08:53:46 GMT 46.392609 20.957657 40,000 297 421 0
2018-07-16 08:53:40 GMT 46.387257 20.972900 40,000 297 422 0
2018-07-16 08:53:36 GMT 46.383392 20.983749 40,000 297 422 0
2018-07-16 08:53:33 GMT 46.381714 20.988644 40,000 297 422 0
2018-07-16 08:53:23 GMT 46.372730 21.014168 40,000 297 422 0
2018-07-16 08:53:12 GMT 46.363190 21.041290 40,000 297 421 -64
2018-07-16 08:53:02 GMT 46.353088 21.069992 40,000 298 422 0
2018-07-16 08:52:52 GMT 46.344383 21.094643 40,000 298 422 0
2018-07-16 08:52:42 GMT 46.336514 21.116890 40,000 298 421 0
2018-07-16 08:52:31 GMT 46.326458 21.145317 40,000 298 422 0
2018-07-16 08:52:26 GMT 46.321198 21.160149 40,000 298 422 0
2018-07-16 08:52:16 GMT 46.313278 21.182577 40,000 298 422 -64
2018-07-16 08:52:10 GMT 46.307281 21.199493 40,000 298 422 0
2018-07-16 08:52:07 GMT 46.305313 21.205088 40,000 298 422 0
2018-07-16 08:51:58 GMT 46.296204 21.230743 40,000 298 423 0
2018-07-16 08:51:49 GMT 46.288845 21.251404 40,000 298 423 0
2018-07-16 08:51:38 GMT 46.279350 21.278183 40,000 298 424 0
2018-07-16 08:51:33 GMT 46.275238 21.289829 40,000 298 424 0
2018-07-16 08:51:27 GMT 46.269432 21.306198 40,000 298 424 0
2018-07-16 08:51:08 GMT 46.251091 21.357628 40,000 298 426 0
2018-07-16 08:50:59 GMT 46.244480 21.376167 40,000 298 426 0
2018-07-16 08:50:45 GMT 46.231796 21.411551 40,000 298 426 0
2018-07-16 08:50:12 GMT 46.201492 21.496292 40,000 298 427 0
2018-07-16 08:50:00 GMT 46.191319 21.524620 40,000 298 428 0
2018-07-16 08:49:37 GMT 46.170044 21.583740 40,000 298 428 64
2018-07-16 08:49:25 GMT 46.159199 21.613884 40,000 298 428 -64
2018-07-16 08:49:20 GMT 46.154728 21.626244 40,000 298 428 64
2018-07-16 08:48:46 GMT 46.123718 21.712267 40,000 298 428 0
2018-07-16 08:48:36 GMT 46.114182 21.738716 40,000 298 428 0
2018-07-16 08:47:58 GMT 46.080139 21.832581 40,000 298 429 64
2018-07-16 08:47:35 GMT 46.058643 21.891769 40,000 297 429 0
2018-07-16 08:47:13 GMT 46.036652 21.952156 40,000 297 430 0
2018-07-16 08:46:44 GMT 46.011612 22.020620 40,000 297 430 0
2018-07-16 08:45:58 GMT 45.967438 22.141336 40,000 297 429 0
2018-07-16 08:45:25 GMT 45.938644 22.219515 40,000 297 428 0
2018-07-16 08:44:55 GMT 45.911133 22.294140 40,000 298 428 0
2018-07-16 08:44:50 GMT 45.905869 22.308342 40,000 298 429 0
2018-07-16 08:44:38 GMT 45.894733 22.338432 40,000 299 429 0
2018-07-16 08:44:28 GMT 45.884399 22.366379 40,000 298 429 64
2018-07-16 08:44:19 GMT 45.877029 22.386251 40,000 298 430 0
2018-07-16 08:44:06 GMT 45.864853 22.419008 40,000 298 430 0
2018-07-16 08:43:52 GMT 45.852585 22.452169 40,000 298 430 0
2018-07-16 08:43:48 GMT 45.847733 22.465233 40,000 298 429 0
2018-07-16 08:43:31 GMT 45.832535 22.506096 40,000 299 428 0
2018-07-16 08:43:26 GMT 45.828003 22.518288 40,000 299 428 0
2018-07-16 08:43:17 GMT 45.819763 22.540462 40,000 299 427 0
2018-07-16 08:43:06 GMT 45.809738 22.567392 40,000 299 427 0
2018-07-16 08:42:56 GMT 45.800373 22.592491 40,000 299 426 0
2018-07-16 08:42:47 GMT 45.790409 22.619133 40,000 299 426 0
2018-07-16 08:42:35 GMT 45.781128 22.643961 40,000 299 426 0
2018-07-16 08:42:25 GMT 45.771790 22.668777 40,000 299 426 0
2018-07-16 08:42:15 GMT 45.761642 22.695831 40,000 299 426 64
2018-07-16 08:42:04 GMT 45.751400 22.723022 40,000 299 426 0
2018-07-16 08:41:54 GMT 45.742401 22.747059 40,000 299 427 0
2018-07-16 08:41:45 GMT 45.733570 22.770538 40,000 299 427 0
2018-07-16 08:41:35 GMT 45.723888 22.796425 40,000 299 428 0
2018-07-16 08:41:24 GMT 45.713924 22.822861 40,000 299 428 0
2018-07-16 08:41:14 GMT 45.704681 22.847342 40,000 299 428 0
2018-07-16 08:41:03 GMT 45.694748 22.873735 40,000 299 428 0
2018-07-16 08:40:53 GMT 45.685295 22.898804 40,000 299 428 -64
2018-07-16 08:40:43 GMT 45.675613 22.924446 40,000 299 428 64
2018-07-16 08:40:32 GMT 45.665863 22.950237 40,000 299 428 -64
2018-07-16 08:40:23 GMT 45.656296 22.975494 40,000 299 427 0
2018-07-16 08:40:12 GMT 45.646610 23.001045 40,000 299 426 -64
2018-07-16 08:40:02 GMT 45.637161 23.025902 40,000 299 425 -64
2018-07-16 08:39:51 GMT 45.627430 23.051514 40,000 299 425 0
2018-07-16 08:39:41 GMT 45.618027 23.076313 40,000 299 423 0
2018-07-16 08:39:31 GMT 45.608391 23.101570 40,025 299 423 -64
2018-07-16 08:39:20 GMT 45.598755 23.127045 40,000 299 421 0
2018-07-16 08:39:10 GMT 45.588932 23.152794 40,000 299 421 64
2018-07-16 08:39:00 GMT 45.579529 23.177467 40,000 299 419 64
2018-07-16 08:38:50 GMT 45.570236 23.201920 40,000 299 418 -64
2018-07-16 08:38:39 GMT 45.560349 23.227777 40,025 299 417 -64
2018-07-16 08:38:30 GMT 45.551689 23.250504 40,000 299 415 64
2018-07-16 08:38:19 GMT 45.542007 23.275808 40,000 299 414 128
2018-07-16 08:38:09 GMT 45.532230 23.301197 40,000 299 414 0
2018-07-16 08:37:58 GMT 45.522812 23.325741 40,000 299 414 0
2018-07-16 08:37:49 GMT 45.513798 23.349230 40,000 299 414 64
2018-07-16 08:37:38 GMT 45.504162 23.374285 40,000 299 414 64
2018-07-16 08:37:28 GMT 45.494713 23.398802 39,975 299 416 0
2018-07-16 08:37:18 GMT 45.484982 23.424124 40,000 299 416 -64
2018-07-16 08:37:07 GMT 45.475937 23.447506 40,000 299 415 -64
2018-07-16 08:36:56 GMT 45.466175 23.473026 40,025 299 415 0
2018-07-16 08:36:46 GMT 45.456539 23.498081 40,000 299 415 0
2018-07-16 08:36:36 GMT 45.446915 23.522970 40,000 299 416 0
2018-07-16 08:36:25 GMT 45.437576 23.547167 40,000 299 417 0
2018-07-16 08:36:15 GMT 45.427414 23.573521 40,000 299 417 -64
2018-07-16 08:36:05 GMT 45.418179 23.597361 40,000 299 418 0
2018-07-16 08:35:55 GMT 45.408920 23.621195 40,000 299 418 64
2018-07-16 08:35:50 GMT 45.404213 23.633333 40,000 299 419 64
2018-07-16 08:35:44 GMT 45.398952 23.646797 40,000 299 419 64
2018-07-16 08:35:37 GMT 45.392204 23.664148 39,975 299 420 64
2018-07-16 08:35:33 GMT 45.388710 23.673058 39,975 299 421 64
2018-07-16 08:35:27 GMT 45.382553 23.689009 39,975 299 422 64
2018-07-16 08:35:24 GMT 45.379822 23.695969 39,975 299 423 0
2018-07-16 08:35:13 GMT 45.369949 23.721357 40,000 299 425 -64
2018-07-16 08:35:04 GMT 45.360077 23.746752 40,000 299 426 -64
2018-07-16 08:34:52 GMT 45.349869 23.772909 40,025 299 424 -64
2018-07-16 08:34:46 GMT 45.344112 23.787678 40,025 299 422 0
2018-07-16 08:34:41 GMT 45.339413 23.799736 40,000 299 422 0
2018-07-16 08:34:28 GMT 45.327354 23.830620 40,000 300 418 -64
2018-07-16 08:34:21 GMT 45.319954 23.849644 40,000 300 418 -64
2018-07-16 08:34:12 GMT 45.312378 23.868975 40,000 300 418 64
2018-07-16 08:34:07 GMT 45.307709 23.880877 40,000 300 418 64
2018-07-16 08:33:41 GMT 45.282806 23.944233 40,000 300 418 -64
2018-07-16 08:33:31 GMT 45.273514 23.967983 40,000 300 418 -64
2018-07-16 08:33:21 GMT 45.264130 23.991917 40,000 300 418 -64
2018-07-16 08:33:12 GMT 45.255619 24.013769 40,000 299 418 -64
2018-07-16 08:33:05 GMT 45.249298 24.029781 40,025 300 416 0
2018-07-16 08:33:01 GMT 45.245518 24.039291 39,975 300 416 0
2018-07-16 08:32:57 GMT 45.241791 24.048811 40,025 300 416 64
2018-07-16 08:32:48 GMT 45.232433 24.072453 40,000 300 417 64
2018-07-16 08:32:39 GMT 45.223404 24.095295 39,975 300 416 0
2018-07-16 08:32:34 GMT 45.220379 24.102932 39,975 300 417 0
2018-07-16 08:32:29 GMT 45.214977 24.116598 39,975 300 417 64
2018-07-16 08:32:25 GMT 45.211254 24.125977 39,975 300 418 64
2018-07-16 08:32:18 GMT 45.204849 24.142195 39,975 300 418 64
2018-07-16 08:32:14 GMT 45.200966 24.152103 39,975 300 419 64
2018-07-16 08:32:08 GMT 45.195286 24.166506 40,000 300 419 0
2018-07-16 08:32:03 GMT 45.190632 24.178364 40,000 300 419 0
2018-07-16 08:31:58 GMT 45.185989 24.190063 40,000 300 420 0
2018-07-16 08:31:54 GMT 45.181831 24.200603 40,000 300 420 0
2018-07-16 08:31:48 GMT 45.176147 24.214979 40,000 300 420 0
2018-07-16 08:31:44 GMT 45.172337 24.224586 40,000 300 421 -64
2018-07-16 08:31:37 GMT 45.166168 24.240156 40,000 300 421 -64
2018-07-16 08:31:33 GMT 45.161907 24.250914 40,000 300 421 -64
2018-07-16 08:31:27 GMT 45.156418 24.264744 40,000 300 423 0
2018-07-16 08:31:22 GMT 45.151611 24.276909 40,000 300 423 0
2018-07-16 08:31:17 GMT 45.146267 24.290371 40,000 300 423 64
2018-07-16 08:31:11 GMT 45.141052 24.303499 40,000 300 423 0
2018-07-16 08:31:06 GMT 45.136047 24.316013 40,000 300 423 0
2018-07-16 08:31:01 GMT 45.131695 24.327013 40,000 300 423 0
2018-07-16 08:30:56 GMT 45.126343 24.340342 40,000 300 424 0
2018-07-16 08:30:53 GMT 45.123962 24.346292 40,000 300 424 0
2018-07-16 08:30:50 GMT 45.121174 24.353273 40,000 300 424 0
2018-07-16 08:30:46 GMT 45.116474 24.365063 40,000 300 424 0
2018-07-16 08:30:43 GMT 45.114471 24.370087 40,000 300 425 0
2018-07-16 08:30:40 GMT 45.110916 24.378988 40,000 300 425 0
2018-07-16 08:30:33 GMT 45.104557 24.394808 40,000 300 425 0
2018-07-16 08:30:30 GMT 45.101250 24.403179 40,000 300 425 -64
2018-07-16 08:30:25 GMT 45.096634 24.414825 40,000 300 426 -64
2018-07-16 08:30:20 GMT 45.091278 24.428165 40,000 300 426 -64
2018-07-16 08:30:14 GMT 45.085796 24.441967 40,000 300 425 -64
2018-07-16 08:30:08 GMT 45.080536 24.455097 40,025 300 425 0
2018-07-16 08:30:05 GMT 45.076672 24.464811 40,000 300 425 0
2018-07-16 08:29:59 GMT 45.071045 24.478912 40,000 300 425 64
2018-07-16 08:29:54 GMT 45.066662 24.489931 40,000 300 425 64
2018-07-16 08:29:47 GMT 45.060471 24.505398 40,000 300 425 64
2018-07-16 08:29:42 GMT 45.055069 24.518934 40,000 300 425 0
2018-07-16 08:29:37 GMT 45.050262 24.530968 40,000 300 425 0
2018-07-16 08:29:31 GMT 45.045319 24.543325 40,000 300 425 -64
2018-07-16 08:29:27 GMT 45.040009 24.556667 40,000 300 425 -64
2018-07-16 08:29:23 GMT 45.037010 24.564224 40,000 300 425 0
2018-07-16 08:29:20 GMT 45.034149 24.571316 40,000 300 425 0
2018-07-16 08:29:15 GMT 45.029709 24.582302 40,025 300 424 64
2018-07-16 08:29:11 GMT 45.025513 24.592695 40,000 300 424 64
2018-07-16 08:29:06 GMT 45.019913 24.606564 40,000 300 425 0
2018-07-16 08:29:02 GMT 45.016804 24.614265 40,000 300 425 0
2018-07-16 08:28:58 GMT 45.012726 24.624285 40,000 300 425 0
2018-07-16 08:28:53 GMT 45.006912 24.638803 40,000 300 426 0
2018-07-16 08:28:45 GMT 44.999439 24.657339 40,000 300 426 0
2018-07-16 08:28:42 GMT 44.996975 24.663570 40,000 300 426 -64
2018-07-16 08:28:31 GMT 44.986732 24.688892 40,000 300 426 0
2018-07-16 08:28:21 GMT 44.976746 24.713614 40,000 300 426 0
2018-07-16 08:28:11 GMT 44.966675 24.738594 40,000 300 428 0
2018-07-16 08:28:03 GMT 44.958942 24.757824 40,000 300 429 0
2018-07-16 08:28:00 GMT 44.956512 24.763838 40,000 300 429 0
2018-07-16 08:27:51 GMT 44.946671 24.788164 40,000 300 430 0
2018-07-16 08:27:40 GMT 44.936462 24.813473 40,000 300 430 -64
2018-07-16 08:27:33 GMT 44.929504 24.830606 40,000 300 430 0
2018-07-16 08:27:30 GMT 44.926117 24.838976 40,000 300 430 0
2018-07-16 08:27:20 GMT 44.916000 24.863892 40,000 300 431 0
2018-07-16 08:27:09 GMT 44.906113 24.888285 40,000 300 433 0
2018-07-16 08:26:59 GMT 44.895721 24.913853 40,000 300 433 64
2018-07-16 08:26:55 GMT 44.891674 24.923824 40,000 300 433 0
2018-07-16 08:26:47 GMT 44.883945 24.942783 40,000 300 433 0
2018-07-16 08:26:36 GMT 44.872868 24.970116 40,000 300 433 0
2018-07-16 08:26:28 GMT 44.863789 24.992422 40,000 300 434 64
2018-07-16 08:26:17 GMT 44.853546 25.017611 40,000 300 433 -64
2018-07-16 08:26:08 GMT 44.845165 25.038177 40,000 300 434 64
2018-07-16 08:26:05 GMT 44.842190 25.045412 40,000 300 434 64
2018-07-16 08:25:56 GMT 44.832600 25.068857 40,000 300 433 64
2018-07-16 08:25:49 GMT 44.826824 25.082926 40,000 300 434 0
2018-07-16 08:25:44 GMT 44.821289 25.096436 40,000 300 435 0
2018-07-16 08:25:35 GMT 44.811695 25.119970 40,000 300 435 -64
2018-07-16 08:25:29 GMT 44.805359 25.135475 40,000 300 435 -64
2018-07-16 08:25:26 GMT 44.803501 25.139935 40,000 300 434 0
2018-07-16 08:25:22 GMT 44.797729 25.154070 40,000 300 434 0
2018-07-16 08:25:14 GMT 44.790253 25.172163 40,000 300 434 -64
2018-07-16 08:25:03 GMT 44.780273 25.196541 40,000 300 432 0
2018-07-16 08:25:00 GMT 44.777115 25.204142 40,000 300 432 0
2018-07-16 08:24:53 GMT 44.769379 25.223001 40,000 300 432 0
2018-07-16 08:24:41 GMT 44.757294 25.252533 40,000 300 432 -64
2018-07-16 08:24:32 GMT 44.748245 25.274517 40,000 301 431 0
2018-07-16 08:24:29 GMT 44.746429 25.278938 40,000 301 431 0
2018-07-16 08:24:24 GMT 44.741543 25.290794 40,000 301 431 0
2018-07-16 08:24:18 GMT 44.735352 25.305868 40,000 301 431 0
2018-07-16 08:24:10 GMT 44.726074 25.328325 40,000 301 430 64
2018-07-16 08:24:05 GMT 44.722595 25.336817 40,000 301 431 0
2018-07-16 08:24:00 GMT 44.717056 25.350080 40,000 301 430 0
2018-07-16 08:23:56 GMT 44.712982 25.359978 40,000 301 431 0
2018-07-16 08:23:52 GMT 44.709000 25.369656 40,000 301 431 0
2018-07-16 08:23:48 GMT 44.703415 25.383192 40,000 301 431 0
2018-07-16 08:23:44 GMT 44.701412 25.387999 40,000 301 431 0
2018-07-16 08:23:37 GMT 44.694851 25.403873 40,000 301 431 0
2018-07-16 08:23:34 GMT 44.692474 25.409678 40,000 301 431 0
2018-07-16 08:23:29 GMT 44.685150 25.427464 40,000 301 431 0
2018-07-16 08:23:24 GMT 44.681164 25.437168 40,000 301 431 0
2018-07-16 08:23:16 GMT 44.673065 25.456696 40,000 301 431 0
2018-07-16 08:23:12 GMT 44.669151 25.466175 40,000 301 431 0
2018-07-16 08:23:06 GMT 44.662170 25.482985 40,000 301 431 0
2018-07-16 08:23:00 GMT 44.657318 25.494755 40,000 301 431 0
2018-07-16 08:22:55 GMT 44.652393 25.506569 40,000 301 431 0
2018-07-16 08:22:50 GMT 44.648071 25.516991 40,000 301 431 0
2018-07-16 08:22:46 GMT 44.643131 25.528944 40,000 301 431 0
2018-07-16 08:22:41 GMT 44.637955 25.541250 40,000 301 431 0
2018-07-16 08:22:35 GMT 44.631119 25.557684 40,000 301 430 0
2018-07-16 08:22:31 GMT 44.627609 25.566166 40,000 301 431 0
2018-07-16 08:22:23 GMT 44.620148 25.584085 40,000 301 431 0
2018-07-16 08:22:19 GMT 44.615898 25.594326 40,000 301 431 0
2018-07-16 08:22:15 GMT 44.611359 25.605272 40,000 301 430 0
2018-07-16 08:22:12 GMT 44.608841 25.611288 40,000 301 430 0
2018-07-16 08:22:08 GMT 44.606216 25.617640 40,000 301 430 0
2018-07-16 08:22:02 GMT 44.598766 25.635525 40,000 301 429 0
2018-07-16 08:21:58 GMT 44.594856 25.644903 40,000 301 430 0
2018-07-16 08:21:52 GMT 44.588524 25.660110 40,000 301 429 0
2018-07-16 08:21:48 GMT 44.584705 25.669153 40,000 301 429 0
2018-07-16 08:21:42 GMT 44.578857 25.683159 40,000 301 429 0
2018-07-16 08:21:36 GMT 44.573227 25.696564 40,000 301 429 0
2018-07-16 08:21:33 GMT 44.569859 25.704659 40,000 301 429 0
2018-07-16 08:21:25 GMT 44.562737 25.721741 40,000 301 430 0
2018-07-16 08:21:22 GMT 44.557846 25.733463 40,000 301 430 0
2018-07-16 08:21:16 GMT 44.552399 25.746527 40,000 301 430 0
2018-07-16 08:21:13 GMT 44.550537 25.750948 40,000 301 430 0
2018-07-16 08:21:10 GMT 44.546951 25.759604 40,000 301 431 0
2018-07-16 08:21:05 GMT 44.542206 25.770910 40,000 301 431 0
2018-07-16 08:21:01 GMT 44.537178 25.782835 40,000 301 431 64
2018-07-16 08:20:54 GMT 44.530567 25.798578 40,000 301 431 0
2018-07-16 08:20:49 GMT 44.526051 25.809362 40,000 301 431 0
2018-07-16 08:20:43 GMT 44.519859 25.824100 40,000 301 431 0
2018-07-16 08:20:40 GMT 44.515858 25.833748 40,000 301 430 0
2018-07-16 08:20:31 GMT 44.506733 25.855385 40,000 301 430 0
2018-07-16 08:20:28 GMT 44.504700 25.860182 40,000 301 430 0
2018-07-16 08:20:21 GMT 44.497700 25.876888 40,000 301 430 0
2018-07-16 08:20:18 GMT 44.494816 25.883789 40,000 301 430 0
2018-07-16 08:20:11 GMT 44.487167 25.901970 40,000 301 430 0
2018-07-16 08:20:08 GMT 44.484386 25.908442 40,000 301 430 64
2018-07-16 08:19:59 GMT 44.475403 25.929762 40,000 301 430 0
2018-07-16 08:19:56 GMT 44.472610 25.936432 40,000 301 430 0
2018-07-16 08:19:49 GMT 44.464737 25.955004 40,000 301 431 64
2018-07-16 08:19:46 GMT 44.462585 25.960236 40,000 301 431 0
2018-07-16 08:19:39 GMT 44.453522 25.981728 40,000 301 431 0
2018-07-16 08:19:35 GMT 44.451614 25.986282 40,000 301 431 0
2018-07-16 08:19:28 GMT 44.443420 26.005711 40,000 301 431 0
2018-07-16 08:19:24 GMT 44.440441 26.012812 40,000 301 431 0
2018-07-16 08:19:17 GMT 44.432419 26.031778 40,000 301 431 0
2018-07-16 08:19:12 GMT 44.428337 26.041349 40,000 301 431 0
2018-07-16 08:19:07 GMT 44.422424 26.055349 40,000 301 432 0
2018-07-16 08:19:04 GMT 44.419121 26.063189 40,000 301 431 0
2018-07-16 08:19:01 GMT 44.416840 26.068613 40,000 301 432 0
2018-07-16 08:18:55 GMT 44.410324 26.083887 40,000 301 431 0
2018-07-16 08:18:48 GMT 44.403763 26.099396 40,000 301 431 0
2018-07-16 08:18:44 GMT 44.400146 26.108028 40,000 301 430 -64
2018-07-16 08:18:40 GMT 44.395893 26.117985 40,000 301 430 0
2018-07-16 08:18:34 GMT 44.390072 26.131784 40,000 301 430 0
2018-07-16 08:18:29 GMT 44.384720 26.144386 40,000 301 431 0
2018-07-16 08:18:23 GMT 44.378723 26.158579 40,000 301 431 0
2018-07-16 08:18:17 GMT 44.371964 26.174391 40,000 301 431 0
2018-07-16 08:18:14 GMT 44.368561 26.182447 40,000 301 431 0
2018-07-16 08:18:07 GMT 44.362652 26.196363 40,000 301 430 0
2018-07-16 08:18:03 GMT 44.357906 26.207417 40,000 301 430 0
2018-07-16 08:17:53 GMT 44.347057 26.233007 40,000 301 430 0
2018-07-16 08:17:45 GMT 44.340134 26.249214 40,000 301 430 0
2018-07-16 08:17:42 GMT 44.336380 26.257978 40,000 301 430 0
2018-07-16 08:17:37 GMT 44.331528 26.269423 40,000 301 431 64
2018-07-16 08:17:34 GMT 44.328762 26.275881 40,000 301 431 0
2018-07-16 08:17:31 GMT 44.325851 26.282763 40,000 301 431 0
2018-07-16 08:17:21 GMT 44.315094 26.307940 40,000 301 431 0
2018-07-16 08:17:13 GMT 44.307037 26.326839 40,000 301 431 0
2018-07-16 08:17:10 GMT 44.304508 26.332754 40,000 301 431 0
2018-07-16 08:17:03 GMT 44.296188 26.352213 40,000 301 431 0
2018-07-16 08:17:00 GMT 44.293617 26.358345 40,000 301 431 0
2018-07-16 08:16:52 GMT 44.285095 26.378174 40,000 301 430 -64
2018-07-16 08:16:49 GMT 44.282444 26.384403 40,000 301 430 -64
2018-07-16 08:16:38 GMT 44.271458 26.410128 40,000 301 429 0
2018-07-16 08:16:27 GMT 44.260483 26.435720 40,000 301 429 0
2018-07-16 08:16:22 GMT 44.255676 26.446905 40,000 301 429 0
2018-07-16 08:16:17 GMT 44.249809 26.460571 40,000 301 428 0
2018-07-16 08:16:12 GMT 44.243713 26.474773 40,000 301 428 0
2018-07-16 08:16:08 GMT 44.241165 26.480646 40,000 301 428 0
2018-07-16 08:16:05 GMT 44.238327 26.487251 40,000 301 428 0
2018-07-16 08:16:00 GMT 44.232494 26.500832 40,000 301 427 0
2018-07-16 08:15:55 GMT 44.228024 26.511215 40,000 301 427 0
2018-07-16 08:15:51 GMT 44.223633 26.521454 40,000 301 427 -64
2018-07-16 08:15:45 GMT 44.217224 26.536364 40,000 301 427 -64
2018-07-16 08:15:40 GMT 44.212105 26.548195 40,025 301 427 0
2018-07-16 08:15:35 GMT 44.206749 26.560654 40,000 301 426 0
2018-07-16 08:15:32 GMT 44.203678 26.567755 40,000 301 426 64
2018-07-16 08:15:24 GMT 44.196945 26.583384 40,000 301 426 64
2018-07-16 08:15:20 GMT 44.192505 26.593748 40,000 301 427 64
2018-07-16 08:15:15 GMT 44.186825 26.606924 40,000 301 427 0
2018-07-16 08:15:11 GMT 44.182915 26.616014 40,000 301 427 0
2018-07-16 08:15:04 GMT 44.176117 26.631840 40,000 301 428 0
2018-07-16 08:15:00 GMT 44.172272 26.640760 40,000 301 429 0
2018-07-16 08:14:54 GMT 44.165680 26.656027 40,000 301 429 0
2018-07-16 08:14:49 GMT 44.161037 26.666761 40,000 301 429 0
2018-07-16 08:14:43 GMT 44.154938 26.680952 40,000 301 429 0
2018-07-16 08:14:39 GMT 44.150848 26.690454 40,000 301 430 0
2018-07-16 08:14:33 GMT 44.144321 26.705540 40,000 301 429 0
2018-07-16 08:14:28 GMT 44.139481 26.716722 40,000 301 429 -64
2018-07-16 08:14:23 GMT 44.133499 26.730503 40,000 302 429 0
2018-07-16 08:14:19 GMT 44.129658 26.739414 40,000 302 429 0
2018-07-16 08:14:15 GMT 44.126312 26.747110 40,000 302 429 0
2018-07-16 08:14:11 GMT 44.122284 26.756372 40,000 302 429 0
2018-07-16 08:14:06 GMT 44.116951 26.768646 40,000 302 429 0
2018-07-16 08:14:02 GMT 44.112167 26.779621 40,000 302 430 0
2018-07-16 08:13:57 GMT 44.108047 26.789011 40,000 302 430 64
2018-07-16 08:13:54 GMT 44.104939 26.796177 40,000 302 430 64
2018-07-16 08:13:50 GMT 44.100952 26.805235 40,000 302 430 64
2018-07-16 08:13:47 GMT 44.096466 26.815454 40,000 302 431 0
2018-07-16 08:13:44 GMT 44.094406 26.820183 40,000 302 431 0
2018-07-16 08:13:41 GMT 44.090286 26.829380 40,000 302 431 -64
2018-07-16 08:13:35 GMT 44.085617 26.839983 40,000 302 431 -64
2018-07-16 08:13:30 GMT 44.079475 26.853725 40,000 302 432 0
2018-07-16 08:13:26 GMT 44.074776 26.864187 40,000 303 431 0
2018-07-16 08:13:20 GMT 44.067654 26.879948 40,000 303 432 0
2018-07-16 08:13:15 GMT 44.063461 26.889170 40,000 303 431 0
2018-07-16 08:13:11 GMT 44.059708 26.897406 40,000 303 431 0
2018-07-16 08:13:08 GMT 44.056641 26.904112 40,000 303 431 0
2018-07-16 08:13:03 GMT 44.051685 26.914934 40,000 303 431 -64
2018-07-16 08:12:58 GMT 44.045288 26.928959 40,000 303 431 0
2018-07-16 08:12:54 GMT 44.040802 26.938860 40,000 302 430 0
2018-07-16 08:12:47 GMT 44.033810 26.954695 40,000 299 428 0
2018-07-16 08:12:42 GMT 44.029724 26.964409 40,000 300 430 0
2018-07-16 08:12:38 GMT 44.024689 26.976673 40,000 299 428 0
2018-07-16 08:12:32 GMT 44.019424 26.990023 40,000 299 429 0
2018-07-16 08:12:28 GMT 44.014481 27.002798 40,000 299 429 0
2018-07-16 08:12:22 GMT 44.009460 27.015774 40,000 299 429 0
2018-07-16 08:12:15 GMT 44.003410 27.031467 40,000 299 429 0
2018-07-16 08:12:10 GMT 43.999546 27.041277 40,000 299 429 0
2018-07-16 08:12:06 GMT 43.995125 27.052721 40,000 299 429 0
2018-07-16 08:12:00 GMT 43.989075 27.068396 40,000 299 429 0
2018-07-16 08:11:55 GMT 43.984222 27.080978 40,000 299 429 0
2018-07-16 08:11:50 GMT 43.979553 27.093052 40,000 299 429 64
2018-07-16 08:11:44 GMT 43.974426 27.106211 40,000 299 430 0
2018-07-16 08:11:38 GMT 43.969254 27.119623 40,000 299 430 0
2018-07-16 08:11:33 GMT 43.964073 27.133026 40,000 299 430 0
2018-07-16 08:11:26 GMT 43.957321 27.150290 40,000 299 430 0
2018-07-16 08:11:22 GMT 43.954010 27.158842 40,000 299 430 0
2018-07-16 08:11:17 GMT 43.949112 27.171425 40,000 299 430 0
2018-07-16 08:11:11 GMT 43.943684 27.185408 40,000 299 430 0
2018-07-16 08:11:07 GMT 43.939362 27.196465 40,000 299 430 -64
2018-07-16 08:11:04 GMT 43.935471 27.206556 40,000 299 430 0
2018-07-16 08:11:00 GMT 43.933487 27.211565 40,000 299 430 0
2018-07-16 08:10:57 GMT 43.929485 27.221832 40,000 299 430 0
2018-07-16 08:10:49 GMT 43.922928 27.238749 40,000 299 430 0
2018-07-16 08:10:46 GMT 43.919540 27.247435 40,000 299 430 0
2018-07-16 08:10:43 GMT 43.915924 27.256762 40,000 299 430 0
2018-07-16 08:10:38 GMT 43.912399 27.265907 40,000 299 430 0
2018-07-16 08:10:35 GMT 43.909374 27.273624 40,000 299 430 0
2018-07-16 08:10:28 GMT 43.903091 27.289713 40,000 299 430 0
2018-07-16 08:10:25 GMT 43.899353 27.299173 40,000 299 430 0
2018-07-16 08:10:22 GMT 43.896240 27.307093 40,000 299 430 0
2018-07-16 08:10:14 GMT 43.889420 27.324467 40,000 299 430 0
2018-07-16 08:10:10 GMT 43.885586 27.334114 40,000 299 430 0
2018-07-16 08:10:06 GMT 43.882095 27.343010 40,000 299 430 0
2018-07-16 08:10:03 GMT 43.878937 27.351103 40,000 299 430 0
2018-07-16 08:10:00 GMT 43.876041 27.358442 40,000 299 430 0
2018-07-16 08:09:55 GMT 43.871841 27.369307 40,000 299 429 0
2018-07-16 08:09:51 GMT 43.867401 27.380676 40,000 299 429 -64
2018-07-16 08:09:44 GMT 43.861588 27.395559 40,000 299 429 -64
2018-07-16 08:09:41 GMT 43.858913 27.402517 40,000 299 428 0
2018-07-16 08:09:34 GMT 43.851322 27.421810 40,000 299 428 0
2018-07-16 08:09:30 GMT 43.847488 27.431583 40,000 299 428 0
2018-07-16 08:09:22 GMT 43.840759 27.448702 40,000 299 428 0
2018-07-16 08:09:19 GMT 43.837189 27.457771 40,000 299 428 -64
2018-07-16 08:09:09 GMT 43.828884 27.478899 40,000 299 428 0
2018-07-16 08:09:06 GMT 43.825195 27.488304 40,000 299 428 0
2018-07-16 08:09:00 GMT 43.818924 27.504272 40,000 299 428 0
2018-07-16 08:08:48 GMT 43.806911 27.534813 40,000 299 428 0
2018-07-16 08:08:38 GMT 43.798580 27.556000 40,000 299 428 0
2018-07-16 08:08:34 GMT 43.794754 27.565592 40,000 299 428 0
2018-07-16 08:08:28 GMT 43.788666 27.581177 40,000 299 428 0
2018-07-16 08:08:23 GMT 43.784409 27.591908 40,000 299 428 0
2018-07-16 08:08:17 GMT 43.778046 27.608068 40,000 299 428 0
2018-07-16 08:08:05 GMT 43.767624 27.634409 40,000 299 429 64
2018-07-16 08:07:55 GMT 43.757675 27.659550 40,000 299 429 0
2018-07-16 08:07:49 GMT 43.752728 27.672075 40,000 299 429 0
2018-07-16 08:07:45 GMT 43.748165 27.683584 40,000 299 429 0
2018-07-16 08:07:34 GMT 43.737877 27.709547 40,000 299 429 0
2018-07-16 08:07:24 GMT 43.727783 27.734921 40,000 299 430 0
2018-07-16 08:07:13 GMT 43.718140 27.759180 40,000 299 430 0
2018-07-16 08:07:05 GMT 43.710735 27.777819 40,000 299 430 0
2018-07-16 08:07:01 GMT 43.705994 27.789789 40,000 299 430 0
2018-07-16 08:06:50 GMT 43.696289 27.814190 40,000 299 430 0
2018-07-16 08:06:42 GMT 43.687553 27.836151 40,000 299 430 0
2018-07-16 08:06:39 GMT 43.685715 27.840761 40,000 299 430 0
2018-07-16 08:06:31 GMT 43.677731 27.860741 40,000 299 430 0
2018-07-16 08:06:27 GMT 43.674271 27.869375 40,000 299 430 0
2018-07-16 08:06:21 GMT 43.667397 27.886702 40,000 299 430 0
2018-07-16 08:06:18 GMT 43.664928 27.892847 40,000 299 430 0
2018-07-16 08:06:10 GMT 43.657333 27.911852 40,000 299 430 0
2018-07-16 08:06:07 GMT 43.654964 27.917830 40,000 299 430 0
2018-07-16 08:05:56 GMT 43.644539 27.943922 40,000 299 430 64
2018-07-16 08:05:49 GMT 43.636688 27.963528 40,000 299 430 0
2018-07-16 08:05:46 GMT 43.634308 27.969467 40,000 299 430 0
2018-07-16 08:05:37 GMT 43.626480 27.989012 40,000 299 430 0
2018-07-16 08:05:34 GMT 43.623638 27.996107 40,000 299 430 0
2018-07-16 08:05:27 GMT 43.616409 28.014114 40,000 299 430 64
2018-07-16 08:05:22 GMT 43.611649 28.025995 40,000 299 430 0
2018-07-16 08:05:17 GMT 43.606201 28.039663 40,000 299 430 0
2018-07-16 08:05:12 GMT 43.601349 28.051737 40,000 299 430 -64
2018-07-16 08:05:06 GMT 43.595753 28.065687 40,000 299 430 -64
2018-07-16 08:05:01 GMT 43.591469 28.076412 40,000 299 429 0
2018-07-16 08:04:51 GMT 43.581619 28.100857 40,000 300 428 0
2018-07-16 08:04:43 GMT 43.574020 28.119762 40,000 300 428 0
2018-07-16 08:04:40 GMT 43.571320 28.126469 40,000 300 428 0
2018-07-16 08:04:33 GMT 43.565506 28.140905 40,000 299 428 0
2018-07-16 08:04:29 GMT 43.560883 28.152338 40,000 299 427 0
2018-07-16 08:04:23 GMT 43.554016 28.169456 40,000 299 427 0
2018-07-16 08:04:20 GMT 43.551865 28.174822 40,000 299 427 0
2018-07-16 08:04:16 GMT 43.548706 28.182613 40,000 299 427 0
2018-07-16 08:04:10 GMT 43.542114 28.198965 40,000 299 427 0
2018-07-16 08:04:07 GMT 43.539890 28.204454 40,000 299 427 0
2018-07-16 08:04:04 GMT 43.535980 28.214169 40,000 299 427 0
2018-07-16 08:04:00 GMT 43.531975 28.224073 40,000 299 427 0
2018-07-16 08:03:56 GMT 43.528107 28.233776 40,000 299 427 0
2018-07-16 08:03:49 GMT 43.522339 28.248020 40,000 299 427 0
2018-07-16 08:03:45 GMT 43.518848 28.256704 40,000 299 427 0
2018-07-16 08:03:42 GMT 43.515747 28.264309 40,000 300 426 0
2018-07-16 08:03:38 GMT 43.512268 28.273060 40,000 300 426 0
2018-07-16 08:03:34 GMT 43.508282 28.282928 40,000 300 426 0
2018-07-16 08:03:29 GMT 43.502602 28.296923 40,000 300 426 0
2018-07-16 08:03:23 GMT 43.497295 28.310001 40,000 300 425 0
2018-07-16 08:03:17 GMT 43.492172 28.322626 40,000 300 425 0
2018-07-16 08:03:13 GMT 43.487640 28.333803 40,000 300 425 0
2018-07-16 08:03:08 GMT 43.482834 28.345684 40,000 300 425 0
2018-07-16 08:03:02 GMT 43.477463 28.358917 40,000 300 425 64
2018-07-16 08:02:58 GMT 43.472626 28.370787 40,000 300 425 64
2018-07-16 08:02:51 GMT 43.466755 28.385338 40,000 300 425 64
2018-07-16 08:02:47 GMT 43.463058 28.394421 40,000 300 425 0
2018-07-16 08:02:40 GMT 43.456100 28.411604 40,000 300 426 0
2018-07-16 08:02:36 GMT 43.452698 28.419931 40,000 300 426 0
2018-07-16 08:02:27 GMT 43.443146 28.443348 40,000 300 427 0
2018-07-16 08:02:19 GMT 43.435753 28.461521 40,000 300 427 -64
2018-07-16 08:02:15 GMT 43.432308 28.470022 40,000 300 427 0
2018-07-16 08:02:07 GMT 43.423782 28.490997 40,000 300 427 0
2018-07-16 08:02:03 GMT 43.420715 28.498535 40,000 300 427 0
2018-07-16 08:01:56 GMT 43.413025 28.517443 40,000 300 426 0
2018-07-16 08:01:53 GMT 43.410095 28.524660 40,000 300 426 0
2018-07-16 08:01:45 GMT 43.403072 28.541826 40,000 300 426 0
2018-07-16 08:01:39 GMT 43.397579 28.555231 40,000 300 427 64
2018-07-16 08:01:35 GMT 43.393478 28.565283 40,000 300 427 0
2018-07-16 08:01:28 GMT 43.387291 28.580408 40,000 300 427 0
2018-07-16 08:01:23 GMT 43.381798 28.593815 40,000 300 427 0
2018-07-16 08:01:17 GMT 43.376358 28.607058 40,000 300 428 0
2018-07-16 08:01:13 GMT 43.372581 28.616377 40,000 300 428 0
2018-07-16 08:01:06 GMT 43.365280 28.634205 40,000 300 428 0
2018-07-16 08:01:02 GMT 43.361641 28.643124 40,000 300 428 0
2018-07-16 08:00:52 GMT 43.351677 28.667385 40,000 300 428 -64
2018-07-16 08:00:42 GMT 43.341660 28.691753 40,000 300 428 0
2018-07-16 08:00:31 GMT 43.330917 28.718000 40,000 300 427 0
2018-07-16 08:00:23 GMT 43.323235 28.736704 40,000 300 426 64
2018-07-16 08:00:19 GMT 43.320953 28.742327 40,000 300 426 64
2018-07-16 08:00:10 GMT 43.310944 28.766615 40,000 300 426 0
2018-07-16 08:00:02 GMT 43.303345 28.785074 40,000 300 427 0
2018-07-16 07:59:59 GMT 43.300423 28.792223 40,000 300 427 0
2018-07-16 07:59:51 GMT 43.293346 28.809357 40,000 300 425 0
2018-07-16 07:59:47 GMT 43.289021 28.819885 40,000 300 425 0
2018-07-16 07:59:41 GMT 43.283058 28.834337 40,000 300 425 0
2018-07-16 07:59:35 GMT 43.277344 28.848181 40,000 300 424 0
2018-07-16 07:59:31 GMT 43.273453 28.857571 40,000 300 424 0
2018-07-16 07:59:28 GMT 43.270119 28.865597 40,000 300 424 0
2018-07-16 07:59:24 GMT 43.266720 28.873837 40,000 300 424 0
2018-07-16 07:59:21 GMT 43.263554 28.881554 40,000 300 424 0
2018-07-16 07:59:14 GMT 43.257706 28.895767 40,000 300 424 0
2018-07-16 07:59:11 GMT 43.253548 28.905813 40,000 300 424 0
2018-07-16 07:59:07 GMT 43.249588 28.915361 40,000 300 424 0
2018-07-16 07:59:04 GMT 43.247269 28.920998 40,000 300 424 -64
2018-07-16 07:59:00 GMT 43.243469 28.930132 40,000 300 424 0
2018-07-16 07:58:56 GMT 43.239674 28.939297 40,000 300 424 0
2018-07-16 07:58:52 GMT 43.235687 28.948975 40,000 300 424 0
2018-07-16 07:58:45 GMT 43.228958 28.965261 40,000 300 424 0
2018-07-16 07:58:40 GMT 43.223286 28.978926 40,000 300 424 0
2018-07-16 07:58:34 GMT 43.219299 28.988640 40,000 300 424 0
2018-07-16 07:58:29 GMT 43.213394 29.002819 40,000 300 424 0
2018-07-16 07:58:24 GMT 43.208530 29.014566 40,000 300 425 0
2018-07-16 07:58:19 GMT 43.203415 29.026901 40,000 300 425 0
2018-07-16 07:58:12 GMT 43.198151 29.039612 40,000 300 425 0
2018-07-16 07:58:09 GMT 43.193390 29.051044 40,000 300 425 0
2018-07-16 07:58:06 GMT 43.192017 29.054367 40,000 300 425 0
2018-07-16 07:58:03 GMT 43.188560 29.062632 40,000 300 425 0
2018-07-16 07:57:58 GMT 43.183823 29.074039 40,000 300 425 0
2018-07-16 07:57:53 GMT 43.178284 29.087326 40,000 300 426 0
2018-07-16 07:57:46 GMT 43.172592 29.101019 40,000 300 427 0
2018-07-16 07:57:42 GMT 43.167889 29.112265 40,000 300 426 0
2018-07-16 07:57:36 GMT 43.162025 29.126326 40,000 300 428 0
2018-07-16 07:57:32 GMT 43.158020 29.135939 40,000 300 428 0
2018-07-16 07:57:24 GMT 43.150246 29.154510 40,000 300 428 0
2018-07-16 07:57:20 GMT 43.145966 29.164907 40,000 300 429 0
2018-07-16 07:57:14 GMT 43.140701 29.177517 40,000 300 429 -64
2018-07-16 07:57:10 GMT 43.136673 29.187098 40,000 300 429 -64
2018-07-16 07:57:03 GMT 43.130089 29.202904 40,000 300 429 0
2018-07-16 07:56:59 GMT 43.126690 29.211012 40,000 300 429 0
2018-07-16 07:56:54 GMT 43.121429 29.223633 40,000 300 429 0
2018-07-16 07:56:50 GMT 43.116531 29.235258 40,000 300 429 0
2018-07-16 07:56:41 GMT 43.108521 29.254419 40,000 300 429 0
2018-07-16 07:56:38 GMT 43.105682 29.261190 40,000 300 429 0
2018-07-16 07:56:29 GMT 43.095596 29.285234 40,000 300 428 0
2018-07-16 07:56:19 GMT 43.086639 29.306669 40,000 300 429 0
2018-07-16 07:56:16 GMT 43.082703 29.316057 40,000 300 429 0
2018-07-16 07:56:07 GMT 43.074879 29.334869 40,000 300 428 0
2018-07-16 07:56:04 GMT 43.071854 29.341991 40,000 300 428 0
2018-07-16 07:55:57 GMT 43.064171 29.360373 40,000 300 428 0
2018-07-16 07:55:52 GMT 43.060226 29.369778 40,000 300 428 0
2018-07-16 07:55:46 GMT 43.053452 29.385874 40,000 300 428 0
2018-07-16 07:55:43 GMT 43.051231 29.391109 40,000 300 427 0
2018-07-16 07:55:40 GMT 43.048019 29.398760 40,000 300 427 0
2018-07-16 07:55:36 GMT 43.043594 29.409288 40,000 300 427 0
2018-07-16 07:55:32 GMT 43.040726 29.416212 40,000 300 427 0
2018-07-16 07:55:27 GMT 43.035736 29.427965 40,000 300 427 0
2018-07-16 07:55:24 GMT 43.030930 29.439400 40,000 300 427 0
2018-07-16 07:55:15 GMT 43.023533 29.456961 40,000 300 427 0
2018-07-16 07:55:11 GMT 43.020126 29.465014 40,000 300 427 0
2018-07-16 07:55:07 GMT 43.015961 29.474913 40,000 300 427 0
2018-07-16 07:55:02 GMT 43.010777 29.487240 40,000 300 427 0
2018-07-16 07:54:53 GMT 43.001633 29.508894 40,000 300 428 0
2018-07-16 07:54:43 GMT 42.991333 29.533167 40,000 300 428 0
2018-07-16 07:54:31 GMT 42.980377 29.559174 40,000 300 429 -64
2018-07-16 07:54:22 GMT 42.970650 29.582193 40,000 300 428 0
2018-07-16 07:54:19 GMT 42.968414 29.587423 40,000 300 428 0
2018-07-16 07:54:13 GMT 42.961075 29.604834 40,000 300 428 0
2018-07-16 07:54:10 GMT 42.959381 29.608744 40,000 300 428 0
2018-07-16 07:53:58 GMT 42.947838 29.636011 40,000 300 428 0
2018-07-16 07:53:48 GMT 42.937683 29.659956 40,000 300 428 0
2018-07-16 07:53:36 GMT 42.925873 29.687805 40,000 300 428 -64
2018-07-16 07:53:29 GMT 42.918182 29.705881 40,000 300 428 0
2018-07-16 07:53:26 GMT 42.915482 29.712206 40,000 300 428 0
2018-07-16 07:53:16 GMT 42.906219 29.734039 40,000 301 427 64
2018-07-16 07:53:13 GMT 42.903214 29.741076 40,000 301 427 64
2018-07-16 07:53:07 GMT 42.897125 29.755447 40,000 300 428 0
2018-07-16 07:53:04 GMT 42.893692 29.763432 40,000 301 427 0
2018-07-16 07:52:55 GMT 42.884537 29.785021 40,000 300 428 0
2018-07-16 07:52:51 GMT 42.881516 29.792110 40,000 300 428 0
2018-07-16 07:52:45 GMT 42.875076 29.807217 40,000 301 428 0
2018-07-16 07:52:42 GMT 42.872314 29.813765 40,000 301 428 0
2018-07-16 07:52:35 GMT 42.865128 29.830500 40,000 301 428 0
2018-07-16 07:52:31 GMT 42.861065 29.840044 40,000 301 428 0
2018-07-16 07:52:24 GMT 42.853893 29.856785 40,000 301 429 0
2018-07-16 07:52:19 GMT 42.849426 29.867249 40,000 301 429 0
2018-07-16 07:52:09 GMT 42.839279 29.890987 40,000 301 430 0
2018-07-16 07:52:02 GMT 42.833038 29.905569 40,000 301 430 0
2018-07-16 07:51:58 GMT 42.828552 29.916027 40,000 301 431 0
2018-07-16 07:51:52 GMT 42.821548 29.932507 40,000 301 431 0
2018-07-16 07:51:46 GMT 42.816978 29.943172 40,000 301 431 0
2018-07-16 07:51:41 GMT 42.811813 29.955206 40,000 301 431 0
2018-07-16 07:51:37 GMT 42.806644 29.967382 40,000 301 431 0
2018-07-16 07:51:31 GMT 42.801338 29.979710 40,000 301 432 0
2018-07-16 07:51:24 GMT 42.794632 29.995298 40,000 301 432 64
2018-07-16 07:51:20 GMT 42.790028 30.006025 39,975 301 432 64
2018-07-16 07:51:14 GMT 42.783829 30.020454 40,000 301 433 0
2018-07-16 07:51:09 GMT 42.780018 30.029276 40,000 301 433 0
2018-07-16 07:51:04 GMT 42.774033 30.043175 40,000 301 434 -64
2018-07-16 07:51:00 GMT 42.769135 30.054661 40,000 301 433 -64
2018-07-16 07:50:53 GMT 42.762886 30.069134 40,000 301 433 0
2018-07-16 07:50:48 GMT 42.757416 30.081940 40,000 301 433 0
2018-07-16 07:50:42 GMT 42.751572 30.095449 40,000 301 433 0
2018-07-16 07:50:39 GMT 42.748081 30.103497 40,000 301 434 64
2018-07-16 07:50:30 GMT 42.740250 30.121765 40,000 301 434 64
2018-07-16 07:50:27 GMT 42.736679 30.130005 40,000 301 434 0
2018-07-16 07:50:20 GMT 42.729366 30.146931 40,000 301 434 -64
2018-07-16 07:50:16 GMT 42.725784 30.155235 40,000 301 434 -64
2018-07-16 07:50:07 GMT 42.715729 30.178549 40,000 301 434 0
2018-07-16 07:49:54 GMT 42.703484 30.206972 40,000 301 434 0
2018-07-16 07:49:46 GMT 42.694336 30.228008 40,000 301 434 0
2018-07-16 07:49:43 GMT 42.691799 30.233864 40,000 301 434 0
2018-07-16 07:49:35 GMT 42.683746 30.252451 40,000 301 434 0
2018-07-16 07:49:28 GMT 42.676903 30.268229 40,000 301 434 0
2018-07-16 07:49:23 GMT 42.671455 30.280811 40,000 301 434 0
2018-07-16 07:49:20 GMT 42.668060 30.288668 40,000 301 434 0
2018-07-16 07:49:14 GMT 42.661514 30.303726 40,000 301 434 0
2018-07-16 07:49:02 GMT 42.650757 30.328508 40,000 301 435 0
2018-07-16 07:48:57 GMT 42.643665 30.344877 40,000 301 435 0
2018-07-16 07:48:52 GMT 42.639267 30.355038 40,000 301 435 0
2018-07-16 07:48:42 GMT 42.629929 30.376448 40,000 301 434 0
2018-07-16 07:48:32 GMT 42.618713 30.402300 40,000 301 434 0
2018-07-16 07:48:18 GMT 42.605587 30.432512 40,000 301 433 0
2018-07-16 07:48:11 GMT 42.597439 30.451227 40,000 301 433 0
2018-07-16 07:47:58 GMT 42.585526 30.478445 40,000 301 433 0
2018-07-16 07:47:49 GMT 42.575180 30.502167 40,000 301 432 0
2018-07-16 07:47:45 GMT 42.572117 30.509226 40,000 301 432 0
2018-07-16 07:47:37 GMT 42.563549 30.528770 40,000 301 432 0
2018-07-16 07:47:29 GMT 42.555405 30.547361 40,000 301 432 0
2018-07-16 07:47:26 GMT 42.552246 30.554602 40,000 301 431 0
2018-07-16 07:47:18 GMT 42.543438 30.574696 40,000 301 431 0
2018-07-16 07:47:15 GMT 42.541344 30.579487 40,000 301 431 0
2018-07-16 07:47:06 GMT 42.532730 30.599159 40,000 301 430 0
2018-07-16 07:47:01 GMT 42.527206 30.611780 40,000 301 430 0
2018-07-16 07:46:53 GMT 42.519104 30.630257 40,000 301 429 0
2018-07-16 07:46:45 GMT 42.510201 30.650642 40,000 301 429 -64
2018-07-16 07:46:42 GMT 42.507843 30.655975 40,000 301 429 0
2018-07-16 07:46:35 GMT 42.500427 30.672768 40,000 301 429 0
2018-07-16 07:46:31 GMT 42.496811 30.681068 40,000 301 429 0
2018-07-16 07:46:20 GMT 42.485229 30.707411 40,000 301 429 0
2018-07-16 07:46:15 GMT 42.479382 30.720713 40,000 301 429 64
2018-07-16 07:46:09 GMT 42.474308 30.732273 40,000 301 429 64
2018-07-16 07:46:03 GMT 42.469116 30.744116 40,000 301 429 64
2018-07-16 07:45:56 GMT 42.461552 30.761208 40,000 301 429 0
2018-07-16 07:45:52 GMT 42.456524 30.772640 40,000 301 429 0
2018-07-16 07:45:47 GMT 42.451996 30.782942 40,000 301 429 -64
2018-07-16 07:45:42 GMT 42.447308 30.793655 40,000 301 429 0
2018-07-16 07:45:35 GMT 42.438538 30.813528 40,000 301 429 0
2018-07-16 07:45:32 GMT 42.436523 30.818150 40,000 301 429 0
2018-07-16 07:45:22 GMT 42.425995 30.841930 40,000 301 429 0
2018-07-16 07:45:13 GMT 42.417801 30.860533 40,000 301 430 0
2018-07-16 07:45:10 GMT 42.414768 30.867367 40,000 301 430 0
2018-07-16 07:45:03 GMT 42.407085 30.884741 40,000 301 432 0
2018-07-16 07:45:00 GMT 42.403610 30.892555 40,000 301 432 0
2018-07-16 07:44:50 GMT 42.393173 30.916088 40,000 301 433 0
2018-07-16 07:44:41 GMT 42.384789 30.935009 40,000 301 433 0
2018-07-16 07:44:38 GMT 42.382416 30.940371 40,000 301 433 64
2018-07-16 07:44:29 GMT 42.371288 30.965477 40,000 301 433 0
2018-07-16 07:44:17 GMT 42.360115 30.990707 40,000 301 434 64
2018-07-16 07:44:07 GMT 42.349640 31.014277 40,000 301 434 0
2018-07-16 07:43:56 GMT 42.338188 31.040146 40,000 301 434 0
2018-07-16 07:43:46 GMT 42.327576 31.063908 40,000 301 435 0
2018-07-16 07:43:37 GMT 42.317596 31.086376 40,000 302 434 0
2018-07-16 07:43:34 GMT 42.315445 31.091246 40,000 302 434 0
2018-07-16 07:43:23 GMT 42.304020 31.116795 40,000 302 435 64
2018-07-16 07:43:13 GMT 42.293793 31.139687 40,000 302 436 0
2018-07-16 07:43:02 GMT 42.282234 31.165401 40,000 302 437 64
2018-07-16 07:42:52 GMT 42.272873 31.186378 40,000 302 438 -64
2018-07-16 07:42:41 GMT 42.259235 31.216885 40,000 302 439 -64
2018-07-16 07:42:26 GMT 42.245319 31.247992 40,000 302 438 0
2018-07-16 07:42:18 GMT 42.236938 31.266706 40,000 302 438 0
2018-07-16 07:41:14 GMT 42.169601 31.416716 40,000 301 435 0
2018-07-16 07:41:03 GMT 42.157516 31.443684 40,000 301 435 0
We lost coverage of the aircraft here for a total of 8 minutes
2018-07-16 07:33:32 GMT 41.847748 32.564789 40,025 288 427 0
2018-07-16 07:33:24 GMT 41.843445 32.582703 40,000 288 427 64
2018-07-16 07:33:17 GMT 41.838730 32.602303 40,000 288 428 0
2018-07-16 07:33:14 GMT 41.837173 32.608734 40,000 288 428 0
2018-07-16 07:33:05 GMT 41.831001 32.634121 40,000 288 428 0
2018-07-16 07:32:53 GMT 41.824631 32.660606 40,000 288 428 0
2018-07-16 07:32:43 GMT 41.818405 32.686199 40,000 289 429 -64
2018-07-16 07:32:33 GMT 41.811905 32.712852 40,000 289 429 0
2018-07-16 07:32:23 GMT 41.806190 32.736256 40,000 289 430 64
2018-07-16 07:32:13 GMT 41.799812 32.762318 40,000 289 430 -64
2018-07-16 07:31:34 GMT 41.776291 32.858673 40,000 289 429 0
We lost coverage of the aircraft here for a total of 74 minutes
2018-07-16 06:17:16 GMT 37.347107 43.178722 36,000 310 456 0
2018-07-16 06:14:35 GMT 37.069427 43.428661 36,000 329 475 0
2018-07-16 06:14:04 GMT 37.009495 43.473679 36,000 330 472 0
2018-07-16 06:13:45 GMT 36.972610 43.501301 36,000 330 472 0
2018-07-16 06:13:13 GMT 36.910805 43.547535 36,000 329 473 64
2018-07-16 06:12:59 GMT 36.887154 43.565151 36,000 330 474 0
2018-07-16 06:12:41 GMT 36.852493 43.591003 36,000 330 474 0
2018-07-16 06:12:36 GMT 36.843018 43.598099 36,000 330 475 0
2018-07-16 06:12:18 GMT 36.808548 43.623791 36,000 330 475 0
2018-07-16 06:12:10 GMT 36.794037 43.634605 36,000 330 476 0
2018-07-16 06:11:55 GMT 36.766022 43.655434 36,000 330 477 0
2018-07-16 06:11:28 GMT 36.713936 43.694145 36,000 330 480 0
2018-07-16 06:11:19 GMT 36.695297 43.707962 36,000 330 480 0
2018-07-16 06:11:09 GMT 36.676830 43.721729 36,000 330 479 64
2018-07-16 06:10:41 GMT 36.624481 43.760548 36,000 330 479 0
2018-07-16 06:10:23 GMT 36.590149 43.785954 36,000 330 479 0
2018-07-16 06:10:17 GMT 36.579632 43.793781 36,000 330 479 0
2018-07-16 06:10:01 GMT 36.549232 43.816223 36,000 330 480 0
2018-07-16 06:09:20 GMT 36.470398 43.874416 36,000 330 481 0
2018-07-16 06:09:15 GMT 36.461201 43.881207 36,000 330 482 0
2018-07-16 06:08:23 GMT 36.360992 43.954983 36,000 330 482 0
2018-07-16 06:08:12 GMT 36.339466 43.970791 36,000 330 482 0
2018-07-16 06:07:41 GMT 36.279190 44.015064 36,000 330 481 64
2018-07-16 06:07:33 GMT 36.264633 44.025764 36,000 330 481 0
2018-07-16 06:07:23 GMT 36.245667 44.039688 36,000 330 480 0
2018-07-16 06:07:09 GMT 36.216431 44.061077 36,000 330 480 0
2018-07-16 06:06:58 GMT 36.198395 44.074287 36,000 330 480 0
2018-07-16 06:06:41 GMT 36.163219 44.099998 36,000 330 480 0
2018-07-16 06:06:32 GMT 36.148838 44.110516 36,000 330 481 0
2018-07-16 06:06:16 GMT 36.116947 44.133774 36,000 330 481 0
2018-07-16 06:06:01 GMT 36.088646 44.154404 36,000 330 482 0
2018-07-16 06:05:57 GMT 36.078964 44.161434 36,000 330 483 0
2018-07-16 06:05:20 GMT 36.010670 44.211205 36,000 330 483 0
2018-07-16 06:05:15 GMT 36.000477 44.218628 36,000 330 483 0
2018-07-16 06:03:22 GMT 35.783730 44.375591 36,000 330 484 0
2018-07-16 06:02:59 GMT 35.736012 44.409718 36,000 330 484 0
2018-07-16 06:02:43 GMT 35.704193 44.432602 36,000 330 483 0
We lost coverage of the aircraft here for a total of 7 minutes
2018-07-16 05:56:13 GMT 34.862087 44.681568 36,000 359 496 0
2018-07-16 05:56:03 GMT 34.840206 44.682255 36,000 359 497 0
2018-07-16 05:55:48 GMT 34.804733 44.683399 36,000 359 497 0
2018-07-16 05:55:29 GMT 34.761860 44.684772 36,000 359 497 0
We lost coverage of the aircraft here for a total of 29 minutes
2018-07-16 05:26:34 GMT 31.231478 46.297428 36,000 322 491 0
2018-07-16 05:26:16 GMT 31.201824 46.327095 36,000 319 491 0
2018-07-16 05:22:42 GMT 30.883209 46.756359 36,000 311 488 0
2018-07-16 05:22:39 GMT 30.878752 46.762428 36,000 311 488 0
2018-07-16 05:20:52 GMT 30.722488 46.975868 36,000 311 490 0
2018-07-16 05:20:43 GMT 30.709534 46.993523 36,000 311 490 0
2018-07-16 05:20:27 GMT 30.686304 47.025166 36,000 311 490 0
2018-07-16 05:20:17 GMT 30.670715 47.046364 36,000 311 492 0
2018-07-16 05:20:05 GMT 30.652863 47.070599 36,000 311 492 0
2018-07-16 05:19:49 GMT 30.629517 47.102322 36,000 311 493 0
2018-07-16 05:19:38 GMT 30.612518 47.125305 36,000 311 493 0
2018-07-16 05:19:23 GMT 30.591291 47.154144 36,000 311 494 0
2018-07-16 05:19:05 GMT 30.564291 47.190674 36,000 311 494 0
2018-07-16 05:18:55 GMT 30.548836 47.211601 36,000 311 494 64
2018-07-16 05:17:59 GMT 30.466671 47.322727 36,000 311 493 64
2018-07-16 05:17:43 GMT 30.441719 47.356457 36,000 311 493 0
2018-07-16 05:17:29 GMT 30.421783 47.383389 36,000 311 492 0
2018-07-16 05:16:57 GMT 30.373856 47.447960 36,000 311 491 0
2018-07-16 05:16:34 GMT 30.339935 47.493519 36,000 311 491 -64
2018-07-16 05:16:20 GMT 30.319702 47.520771 36,000 311 491 0
2018-07-16 05:16:07 GMT 30.300385 47.546726 36,000 311 491 0
2018-07-16 05:15:53 GMT 30.278870 47.575596 36,000 311 491 0
2018-07-16 05:15:39 GMT 30.257629 47.604137 36,000 311 492 0
2018-07-16 05:15:25 GMT 30.237726 47.630730 36,000 311 492 0
2018-07-16 05:15:11 GMT 30.216778 47.658745 36,000 311 492 0
2018-07-16 05:14:57 GMT 30.195784 47.686760 36,000 311 492 0
2018-07-16 05:14:43 GMT 30.175301 47.713898 36,000 311 492 0
2018-07-16 05:14:10 GMT 30.126234 47.779102 36,000 311 492 0
2018-07-16 05:14:00 GMT 30.110546 47.800415 36,000 311 491 0
2018-07-16 05:13:44 GMT 30.086899 47.832054 36,000 312 491 0
2018-07-16 05:13:33 GMT 30.070139 47.852764 36,000 315 492 0
2018-07-16 05:13:20 GMT 30.048203 47.877720 36,000 317 491 0
2018-07-16 05:13:12 GMT 30.035086 47.891655 36,000 319 491 0
2018-07-16 05:13:05 GMT 30.023438 47.903404 36,000 320 492 0
2018-07-16 05:12:50 GMT 29.996979 47.928127 36,000 326 490 0
2018-07-16 05:12:34 GMT 29.966700 47.953289 36,000 326 491 0
2018-07-16 05:12:20 GMT 29.941589 47.971695 36,000 329 490 0
2018-07-16 05:12:09 GMT 29.916983 47.988281 36,000 330 483 0
2018-07-16 05:12:06 GMT 29.913208 47.990810 36,000 330 489 0
2018-07-16 05:11:49 GMT 29.879601 48.013107 36,000 330 488 0
2018-07-16 05:11:37 GMT 29.856766 48.028267 36,000 330 483 0
2018-07-16 05:11:27 GMT 29.836864 48.041435 36,000 330 483 0
2018-07-16 05:11:24 GMT 29.831419 48.045044 36,000 331 486 0
2018-07-16 05:11:10 GMT 29.804279 48.063030 36,000 331 486 0
2018-07-16 05:11:01 GMT 29.786495 48.074825 36,000 330 483 0
2018-07-16 05:10:57 GMT 29.777185 48.080963 36,000 330 483 0
2018-07-16 05:10:54 GMT 29.773132 48.083672 36,000 330 483 0
2018-07-16 05:10:51 GMT 29.767090 48.087685 36,000 330 483 0
2018-07-16 05:10:41 GMT 29.748137 48.100189 36,000 331 482 0
2018-07-16 05:10:28 GMT 29.723007 48.116840 36,000 331 482 0
2018-07-16 05:10:17 GMT 29.700235 48.131859 36,000 331 482 0
2018-07-16 05:10:12 GMT 29.690319 48.138374 36,000 331 482 0
2018-07-16 05:10:05 GMT 29.677322 48.146950 36,000 331 482 0
2018-07-16 05:09:57 GMT 29.662582 48.156670 36,000 331 482 0
2018-07-16 05:09:51 GMT 29.650517 48.164654 36,000 331 482 0
2018-07-16 05:09:43 GMT 29.635483 48.174522 36,000 331 482 0
2018-07-16 05:09:31 GMT 29.611179 48.190613 36,000 330 481 0
2018-07-16 05:09:25 GMT 29.599310 48.198475 36,000 330 482 -64
2018-07-16 05:09:14 GMT 29.576065 48.213871 36,000 331 482 0
2018-07-16 05:09:02 GMT 29.554852 48.227879 36,000 331 482 0
2018-07-16 05:08:58 GMT 29.544479 48.234734 36,000 331 482 0
2018-07-16 05:08:53 GMT 29.537813 48.239136 36,000 331 482 0
2018-07-16 05:08:36 GMT 29.506027 48.259930 36,000 330 480 0
2018-07-16 05:08:28 GMT 29.489227 48.270756 36,000 330 480 0
2018-07-16 05:08:20 GMT 29.474899 48.279896 36,000 331 480 0
2018-07-16 05:08:08 GMT 29.451553 48.295143 36,000 330 480 0
2018-07-16 05:07:54 GMT 29.425461 48.314121 36,000 326 478 0
2018-07-16 05:07:47 GMT 29.412636 48.324013 36,000 326 478 0
2018-07-16 05:07:43 GMT 29.402069 48.332237 36,000 326 478 0
2018-07-16 05:07:29 GMT 29.378885 48.350185 36,000 326 478 0
2018-07-16 05:07:26 GMT 29.373596 48.354317 36,000 326 478 0
2018-07-16 05:07:15 GMT 29.351761 48.371220 36,000 326 477 0
2018-07-16 05:07:11 GMT 29.346483 48.375336 36,000 326 477 0
2018-07-16 05:07:00 GMT 29.323395 48.393215 36,000 326 476 0
2018-07-16 05:06:49 GMT 29.305239 48.407269 36,000 326 476 0
2018-07-16 05:06:44 GMT 29.297186 48.413517 36,000 326 475 0
2018-07-16 05:06:30 GMT 29.270603 48.434090 36,000 326 475 0
2018-07-16 05:06:16 GMT 29.246071 48.453045 36,000 326 475 0
2018-07-16 05:06:10 GMT 29.234991 48.461662 36,000 326 475 0
2018-07-16 05:06:02 GMT 29.220373 48.472919 36,000 326 475 0
2018-07-16 05:05:50 GMT 29.198273 48.489956 36,000 326 476 0
2018-07-16 05:05:47 GMT 29.192871 48.494129 36,000 326 476 0
2018-07-16 05:05:33 GMT 29.166979 48.514118 36,000 326 476 0
2018-07-16 05:05:20 GMT 29.142700 48.532845 36,000 326 476 0
2018-07-16 05:05:06 GMT 29.117661 48.552124 36,000 326 476 0
2018-07-16 05:04:52 GMT 29.092346 48.571667 36,000 326 476 0
2018-07-16 05:04:38 GMT 29.066574 48.591526 36,000 326 476 0
2018-07-16 05:04:24 GMT 29.040730 48.611378 36,000 326 478 0
2018-07-16 05:04:10 GMT 29.015076 48.631142 36,000 327 477 0
2018-07-16 05:03:56 GMT 28.989990 48.650417 36,000 327 477 0
2018-07-16 05:03:50 GMT 28.977493 48.659981 36,000 327 477 0
2018-07-16 05:03:42 GMT 28.963852 48.670490 36,000 327 477 0
2018-07-16 05:03:32 GMT 28.945358 48.684647 36,000 327 477 0
2018-07-16 05:03:28 GMT 28.938034 48.690273 36,000 327 477 0
2018-07-16 05:03:13 GMT 28.910248 48.711529 36,000 327 477 0
2018-07-16 05:03:06 GMT 28.896698 48.721882 36,000 327 477 0
2018-07-16 05:03:00 GMT 28.886719 48.729488 36,000 327 477 0
2018-07-16 05:02:53 GMT 28.873234 48.739822 36,000 327 477 0
2018-07-16 05:02:47 GMT 28.861736 48.748600 36,000 327 477 0
2018-07-16 05:02:42 GMT 28.853531 48.754894 36,000 327 477 0
2018-07-16 05:02:31 GMT 28.833572 48.770142 36,000 326 476 0
2018-07-16 05:02:28 GMT 28.828032 48.774448 36,000 326 476 0
2018-07-16 05:02:22 GMT 28.816906 48.783012 36,000 326 476 0
2018-07-16 05:02:18 GMT 28.809597 48.788670 36,000 326 476 0
2018-07-16 05:02:11 GMT 28.796284 48.798954 36,000 326 476 0
2018-07-16 05:02:04 GMT 28.784180 48.808292 36,000 326 476 0
2018-07-16 05:02:01 GMT 28.777588 48.813419 36,000 326 476 0
2018-07-16 05:01:50 GMT 28.758762 48.827927 36,000 326 476 0
2018-07-16 05:01:47 GMT 28.751871 48.833260 36,000 326 476 0
2018-07-16 05:01:39 GMT 28.738037 48.843948 36,000 326 476 0
2018-07-16 05:01:28 GMT 28.718445 48.859055 36,000 326 475 0
2018-07-16 05:01:22 GMT 28.707642 48.867348 36,000 326 476 -64
2018-07-16 05:01:18 GMT 28.699173 48.873894 36,000 326 476 64
2018-07-16 05:01:07 GMT 28.679855 48.888729 36,000 326 477 0
2018-07-16 05:00:56 GMT 28.659979 48.904022 36,000 326 477 0
2018-07-16 05:00:45 GMT 28.639309 48.919910 36,000 326 477 0
2018-07-16 05:00:40 GMT 28.631104 48.926239 36,000 326 477 0
2018-07-16 05:00:35 GMT 28.620596 48.934345 36,000 326 477 0
2018-07-16 05:00:26 GMT 28.605652 48.945835 36,000 326 477 0
2018-07-16 05:00:23 GMT 28.598465 48.951382 36,000 326 477 0
2018-07-16 05:00:13 GMT 28.580746 48.964989 36,000 326 477 0
2018-07-16 05:00:02 GMT 28.560682 48.980446 36,000 326 477 0
2018-07-16 04:59:57 GMT 28.552071 48.987068 36,000 326 477 0
2018-07-16 04:59:48 GMT 28.535248 49.000027 36,000 326 477 0
2018-07-16 04:59:44 GMT 28.527910 49.005699 36,000 326 477 0
2018-07-16 04:59:38 GMT 28.517202 49.013943 36,000 326 477 0
2018-07-16 04:59:29 GMT 28.499931 49.027245 36,000 326 478 0
2018-07-16 04:59:17 GMT 28.479355 49.043022 36,000 326 478 0
2018-07-16 04:59:07 GMT 28.460449 49.057335 36,000 327 478 0
2018-07-16 04:59:01 GMT 28.448456 49.066368 36,000 327 479 -64
2018-07-16 04:58:53 GMT 28.434082 49.077091 36,000 327 480 0
2018-07-16 04:58:46 GMT 28.421036 49.086914 36,000 327 479 0
2018-07-16 04:58:36 GMT 28.401985 49.102100 36,000 324 480 0
2018-07-16 04:58:24 GMT 28.382401 49.119240 36,000 322 480 0
2018-07-16 04:58:20 GMT 28.375443 49.125526 36,000 321 481 64
2018-07-16 04:58:13 GMT 28.363541 49.136459 36,000 321 481 0
2018-07-16 04:58:06 GMT 28.351196 49.147770 36,000 321 481 0
2018-07-16 04:58:02 GMT 28.344309 49.154125 36,000 321 481 0
2018-07-16 04:57:51 GMT 28.325180 49.171688 36,000 321 481 0
2018-07-16 04:57:41 GMT 28.307858 49.187569 36,000 321 481 0
2018-07-16 04:57:29 GMT 28.285978 49.207603 36,000 321 480 0
2018-07-16 04:57:24 GMT 28.277664 49.215263 36,000 321 480 0
2018-07-16 04:57:17 GMT 28.266333 49.225643 36,000 321 480 0
2018-07-16 04:57:09 GMT 28.251251 49.239456 36,000 321 480 -64
2018-07-16 04:56:56 GMT 28.230057 49.258839 36,000 322 479 0
2018-07-16 04:56:47 GMT 28.213217 49.274273 36,000 322 479 0
2018-07-16 04:56:42 GMT 28.204790 49.281975 36,000 322 479 0
2018-07-16 04:56:35 GMT 28.193024 49.292747 36,000 322 479 0
2018-07-16 04:56:28 GMT 28.180862 49.303841 36,000 322 479 0
2018-07-16 04:56:25 GMT 28.175928 49.308365 36,000 321 479 0
2018-07-16 04:56:15 GMT 28.158096 49.324654 36,000 322 478 0
2018-07-16 04:56:03 GMT 28.137289 49.343693 36,000 322 478 0
2018-07-16 04:55:59 GMT 28.131472 49.348969 36,000 322 478 0
2018-07-16 04:55:52 GMT 28.119370 49.360043 36,000 322 478 0
2018-07-16 04:55:42 GMT 28.101151 49.376678 36,000 321 479 0
2018-07-16 04:55:31 GMT 28.082916 49.393345 36,000 322 479 0
2018-07-16 04:55:21 GMT 28.065125 49.409637 36,000 322 479 0
2018-07-16 04:55:14 GMT 28.051027 49.422535 36,000 321 480 0
2018-07-16 04:55:10 GMT 28.045761 49.427334 36,000 321 480 0
2018-07-16 04:55:03 GMT 28.034729 49.437473 36,000 321 480 0
2018-07-16 04:54:59 GMT 28.027542 49.444077 36,000 321 480 0
2018-07-16 04:54:48 GMT 28.008453 49.461559 36,000 321 480 0
2018-07-16 04:54:37 GMT 27.989914 49.478512 36,000 321 481 0
2018-07-16 04:54:27 GMT 27.971695 49.495098 36,000 322 482 0
2018-07-16 04:54:21 GMT 27.960951 49.504772 36,000 322 481 0
2018-07-16 04:54:15 GMT 27.949493 49.515011 36,000 322 481 0
2018-07-16 04:54:04 GMT 27.931948 49.530594 36,000 322 482 0
2018-07-16 04:53:54 GMT 27.912964 49.547405 36,000 322 482 0
2018-07-16 04:53:43 GMT 27.894613 49.563709 36,000 322 482 0
2018-07-16 04:53:37 GMT 27.885071 49.572109 36,000 322 481 0
2018-07-16 04:53:33 GMT 27.875807 49.580296 36,000 322 480 0
2018-07-16 04:53:25 GMT 27.863749 49.590965 36,000 322 480 0
2018-07-16 04:53:22 GMT 27.858536 49.595551 36,000 322 480 0
2018-07-16 04:53:11 GMT 27.839630 49.612289 36,000 322 480 0
2018-07-16 04:53:00 GMT 27.820450 49.629234 36,000 322 480 0
2018-07-16 04:52:57 GMT 27.814032 49.634964 36,000 322 479 0
2018-07-16 04:52:49 GMT 27.800577 49.646847 36,000 322 479 0
2018-07-16 04:52:43 GMT 27.790104 49.656143 36,000 322 479 0
2018-07-16 04:52:39 GMT 27.783417 49.662090 36,000 322 479 0
2018-07-16 04:52:28 GMT 27.764557 49.678776 36,000 322 479 0
2018-07-16 04:52:18 GMT 27.745560 49.695618 36,000 322 479 -64
2018-07-16 04:52:07 GMT 27.726419 49.712555 36,000 322 479 0
2018-07-16 04:52:01 GMT 27.716784 49.721111 36,000 322 479 0
2018-07-16 04:51:56 GMT 27.707706 49.729137 36,000 322 479 0
2018-07-16 04:51:45 GMT 27.688843 49.745834 36,000 322 479 0
2018-07-16 04:51:37 GMT 27.674423 49.758583 36,000 322 480 0
2018-07-16 04:51:34 GMT 27.669113 49.763298 36,000 322 480 0
2018-07-16 04:51:27 GMT 27.657623 49.773457 36,000 322 480 0
2018-07-16 04:51:23 GMT 27.650620 49.779621 36,000 322 480 0
2018-07-16 04:51:19 GMT 27.642471 49.786827 36,000 322 480 0
2018-07-16 04:51:13 GMT 27.631966 49.796112 36,000 322 482 0
2018-07-16 04:51:05 GMT 27.617889 49.808487 36,000 322 482 -64
2018-07-16 04:51:02 GMT 27.613403 49.812477 36,000 322 482 0
2018-07-16 04:50:55 GMT 27.601288 49.823158 36,000 322 482 0
2018-07-16 04:50:51 GMT 27.593124 49.830357 36,000 322 482 -64
2018-07-16 04:50:44 GMT 27.581589 49.840515 36,000 322 482 0
2018-07-16 04:50:41 GMT 27.575544 49.845867 36,000 322 482 0
2018-07-16 04:50:37 GMT 27.568747 49.851837 36,000 322 482 0
2018-07-16 04:50:34 GMT 27.564697 49.855431 36,000 322 482 0
2018-07-16 04:50:30 GMT 27.556086 49.862984 36,000 322 482 0
2018-07-16 04:50:19 GMT 27.537918 49.879017 36,000 322 483 0
2018-07-16 04:50:08 GMT 27.518517 49.896152 36,000 322 482 0
2018-07-16 04:50:00 GMT 27.504877 49.908249 36,000 322 482 0
2018-07-16 04:49:57 GMT 27.499664 49.912842 36,000 322 482 0
2018-07-16 04:49:52 GMT 27.489422 49.921928 36,000 322 482 0
2018-07-16 04:49:47 GMT 27.481018 49.929440 36,000 322 481 0
2018-07-16 04:49:41 GMT 27.471685 49.937824 36,000 322 482 0
2018-07-16 04:49:36 GMT 27.461609 49.946800 36,000 322 481 0
2018-07-16 04:49:25 GMT 27.443104 49.963444 36,000 322 480 0
2018-07-16 04:49:17 GMT 27.429520 49.975719 36,000 322 480 0
2018-07-16 04:49:14 GMT 27.424347 49.980331 36,000 322 480 0
2018-07-16 04:49:04 GMT 27.405807 49.996811 36,000 322 479 0
2018-07-16 04:48:59 GMT 27.398529 50.003185 36,000 323 479 0
2018-07-16 04:48:53 GMT 27.386536 50.013496 36,000 323 479 0
2018-07-16 04:48:42 GMT 27.367409 50.029469 36,000 324 480 0
2018-07-16 04:48:31 GMT 27.347672 50.045841 36,000 324 480 0
2018-07-16 04:48:18 GMT 27.322578 50.066704 36,000 324 481 -64
2018-07-16 04:48:10 GMT 27.309998 50.077187 36,000 324 481 0
2018-07-16 04:48:06 GMT 27.302841 50.083183 36,000 324 481 0
2018-07-16 04:47:59 GMT 27.290634 50.093304 36,000 324 482 0
2018-07-16 04:47:55 GMT 27.281473 50.100983 36,000 324 482 0
2018-07-16 04:47:48 GMT 27.271278 50.109436 36,000 324 482 0
2018-07-16 04:47:45 GMT 27.265972 50.113819 36,000 324 482 0
2018-07-16 04:47:37 GMT 27.251402 50.125809 36,000 324 482 0
2018-07-16 04:47:33 GMT 27.241858 50.133625 36,000 324 482 0
2018-07-16 04:47:25 GMT 27.229195 50.143768 36,000 325 482 0
2018-07-16 04:47:16 GMT 27.212952 50.156891 36,000 324 482 0
2018-07-16 04:47:07 GMT 27.194794 50.172077 36,000 324 482 0
2018-07-16 04:47:04 GMT 27.190044 50.176304 36,000 322 481 0
2018-07-16 04:46:53 GMT 27.171099 50.193840 36,000 320 480 64
2018-07-16 04:46:42 GMT 27.146393 50.219128 36,000 316 480 0
2018-07-16 04:46:33 GMT 27.140186 50.226006 36,000 315 480 0
2018-07-16 04:46:28 GMT 27.130505 50.237152 36,000 314 480 0
2018-07-16 04:46:22 GMT 27.123093 50.245972 36,000 313 479 0
2018-07-16 04:46:17 GMT 27.114990 50.255768 36,000 313 479 0
2018-07-16 04:46:11 GMT 27.106903 50.265568 36,000 313 479 0
2018-07-16 04:46:07 GMT 27.099426 50.274681 36,000 313 480 0
2018-07-16 04:46:00 GMT 27.090143 50.285904 36,000 313 480 0
2018-07-16 04:45:55 GMT 27.082649 50.294987 36,000 313 480 0
2018-07-16 04:45:49 GMT 27.073059 50.306503 36,000 313 481 0
2018-07-16 04:45:46 GMT 27.067472 50.313210 36,000 314 480 0
2018-07-16 04:45:39 GMT 27.057495 50.325104 36,000 314 480 0
2018-07-16 04:45:35 GMT 27.051407 50.332413 36,000 313 481 0
2018-07-16 04:45:28 GMT 27.041565 50.344173 36,000 313 481 0
2018-07-16 04:45:25 GMT 27.035477 50.351482 36,000 313 481 0
2018-07-16 04:45:17 GMT 27.024878 50.364182 36,000 313 481 0
2018-07-16 04:45:14 GMT 27.019384 50.370731 36,000 313 481 0
2018-07-16 04:45:04 GMT 27.003464 50.389797 36,000 314 481 0
2018-07-16 04:44:55 GMT 26.990662 50.405067 36,000 314 481 0
2018-07-16 04:44:52 GMT 26.986238 50.410343 36,000 314 481 0
2018-07-16 04:44:43 GMT 26.971296 50.427986 36,000 314 482 0
2018-07-16 04:44:32 GMT 26.955139 50.446938 36,000 314 482 -64
2018-07-16 04:44:22 GMT 26.938990 50.465858 36,000 314 482 0
2018-07-16 04:44:11 GMT 26.923553 50.484768 36,000 311 483 0
2018-07-16 04:44:01 GMT 26.908264 50.505207 36,000 310 483 -64
2018-07-16 04:43:49 GMT 26.892670 50.526649 36,000 310 483 64
2018-07-16 04:43:40 GMT 26.878784 50.545555 36,000 310 484 0
2018-07-16 04:43:29 GMT 26.863482 50.565948 36,000 311 484 0
2018-07-16 04:43:18 GMT 26.848492 50.586178 36,000 309 484 0
2018-07-16 04:43:07 GMT 26.833511 50.607899 36,000 307 484 0
2018-07-16 04:42:57 GMT 26.820648 50.628162 36,000 305 484 0
2018-07-16 04:42:47 GMT 26.807877 50.650238 36,000 302 485 0
2018-07-16 04:42:36 GMT 26.795746 50.673660 36,000 299 485 0
2018-07-16 04:42:25 GMT 26.784622 50.698849 36,000 295 485 0
2018-07-16 04:42:14 GMT 26.775358 50.724354 36,000 291 486 0
2018-07-16 04:42:06 GMT 26.768747 50.745216 36,000 290 486 0
2018-07-16 04:42:03 GMT 26.767410 50.749580 36,000 290 486 0
2018-07-16 04:41:53 GMT 26.759623 50.774635 36,000 290 486 0
2018-07-16 04:41:45 GMT 26.753059 50.795712 36,000 290 486 0
2018-07-16 04:41:41 GMT 26.750839 50.802959 36,000 290 486 0
2018-07-16 04:41:31 GMT 26.743750 50.825764 36,000 290 486 -64
2018-07-16 04:41:24 GMT 26.737556 50.845730 36,000 289 486 0
2018-07-16 04:41:19 GMT 26.735046 50.853897 36,000 289 486 0
2018-07-16 04:41:13 GMT 26.730011 50.870224 36,000 289 486 0
2018-07-16 04:41:09 GMT 26.727631 50.877995 36,000 289 486 0
2018-07-16 04:41:03 GMT 26.722183 50.895721 36,000 289 486 0
2018-07-16 04:40:59 GMT 26.720007 50.902721 36,000 289 486 0
2018-07-16 04:40:51 GMT 26.714607 50.920418 36,000 289 486 0
2018-07-16 04:40:48 GMT 26.711884 50.929146 36,000 289 486 0
2018-07-16 04:40:42 GMT 26.706345 50.947025 36,000 290 487 64
2018-07-16 04:40:37 GMT 26.703899 50.954800 36,000 290 486 -64
2018-07-16 04:40:30 GMT 26.698380 50.972210 36,000 290 486 64
2018-07-16 04:40:26 GMT 26.695614 50.980736 36,000 290 486 0
2018-07-16 04:40:20 GMT 26.690186 50.997341 36,000 291 486 0
2018-07-16 04:40:15 GMT 26.687164 51.006618 36,000 291 486 0
2018-07-16 04:40:09 GMT 26.682159 51.021881 36,000 291 486 0
2018-07-16 04:40:05 GMT 26.678947 51.031494 36,000 291 486 0
2018-07-16 04:39:59 GMT 26.674072 51.046417 36,000 291 487 0
2018-07-16 04:39:52 GMT 26.669540 51.060204 36,000 291 487 0
2018-07-16 04:39:47 GMT 26.665634 51.072113 36,000 291 487 0
2018-07-16 04:39:41 GMT 26.660843 51.086685 36,000 291 487 0
2018-07-16 04:39:32 GMT 26.653484 51.108978 36,000 291 487 0
2018-07-16 04:39:26 GMT 26.649387 51.121445 36,000 291 487 0
2018-07-16 04:39:20 GMT 26.644686 51.135654 36,000 291 487 0
2018-07-16 04:39:15 GMT 26.640793 51.147526 36,000 291 487 0
2018-07-16 04:39:10 GMT 26.636772 51.159634 36,000 291 487 0
2018-07-16 04:39:03 GMT 26.630068 51.180019 36,000 291 487 0
2018-07-16 04:39:00 GMT 26.628485 51.184776 36,000 291 487 0
2018-07-16 04:38:54 GMT 26.623581 51.199711 36,000 291 487 0
2018-07-16 04:38:49 GMT 26.620010 51.210487 36,000 291 487 0
2018-07-16 04:38:43 GMT 26.615311 51.224651 36,000 291 487 0
2018-07-16 04:38:37 GMT 26.610983 51.237911 36,000 291 487 0
2018-07-16 04:38:32 GMT 26.607010 51.249821 36,000 291 488 0
2018-07-16 04:38:26 GMT 26.602602 51.263210 36,000 291 488 0
2018-07-16 04:38:22 GMT 26.599274 51.273247 36,000 291 488 0
2018-07-16 04:38:17 GMT 26.594879 51.286461 36,000 291 488 0
2018-07-16 04:38:11 GMT 26.590872 51.298546 36,000 291 488 0
2018-07-16 04:38:02 GMT 26.582611 51.323460 36,000 291 488 0
2018-07-16 04:37:50 GMT 26.574326 51.348595 36,000 291 486 0
2018-07-16 04:37:43 GMT 26.568466 51.366264 36,000 291 485 0
2018-07-16 04:37:39 GMT 26.565628 51.374763 36,000 291 486 0
2018-07-16 04:37:32 GMT 26.560007 51.391720 36,000 291 485 64
2018-07-16 04:37:29 GMT 26.558029 51.397720 36,000 291 485 0
2018-07-16 04:37:22 GMT 26.552605 51.414062 36,000 291 485 0
2018-07-16 04:37:19 GMT 26.549906 51.422142 36,000 291 485 0
2018-07-16 04:37:12 GMT 26.544388 51.438816 36,000 291 485 64
2018-07-16 04:37:08 GMT 26.541153 51.448551 36,000 291 484 0
2018-07-16 04:37:01 GMT 26.535847 51.464451 36,000 291 484 0
2018-07-16 04:36:58 GMT 26.533676 51.471001 36,000 291 483 0
2018-07-16 04:36:48 GMT 26.525558 51.495457 36,000 291 480 64
2018-07-16 04:36:37 GMT 26.517059 51.520851 36,000 291 478 0
2018-07-16 04:36:26 GMT 26.509172 51.544525 36,000 291 476 64
2018-07-16 04:36:16 GMT 26.500839 51.569454 36,000 291 473 0
2018-07-16 04:36:06 GMT 26.493073 51.592834 36,000 291 471 -64
2018-07-16 04:35:55 GMT 26.485062 51.616825 36,025 291 468 -64
2018-07-16 04:35:45 GMT 26.477190 51.640442 36,025 291 465 -128
2018-07-16 04:35:33 GMT 26.469044 51.664845 36,050 291 462 -64
2018-07-16 04:35:23 GMT 26.460617 51.689999 36,000 291 461 256
2018-07-16 04:35:13 GMT 26.453634 51.710903 35,850 291 464 1600
2018-07-16 04:35:03 GMT 26.445210 51.735992 35,525 291 467 2240
2018-07-16 04:34:51 GMT 26.437088 51.760014 35,050 291 475 3200
2018-07-16 04:34:40 GMT 26.428776 51.784691 34,575 291 486 1856
2018-07-16 04:34:30 GMT 26.420303 51.809727 34,350 291 488 1088
2018-07-16 04:34:21 GMT 26.412552 51.832977 33,950 290 493 832
2018-07-16 04:34:13 GMT 26.407059 51.849457 34,025 291 491 1152
2018-07-16 04:34:08 GMT 26.403219 51.861069 33,950 290 492 1152
2018-07-16 04:33:57 GMT 26.394608 51.887585 33,775 290 493 704
2018-07-16 04:33:45 GMT 26.385111 51.916370 33,600 291 492 832
2018-07-16 04:33:35 GMT 26.376617 51.939732 33,475 294 492 896
2018-07-16 04:33:16 GMT 26.357271 51.985931 33,125 296 493 1024
2018-07-16 04:33:13 GMT 26.355240 51.990673 33,075 296 493 1088
2018-07-16 04:33:03 GMT 26.345774 52.012550 32,875 296 495 1408
2018-07-16 04:32:52 GMT 26.334824 52.037933 32,625 296 496 1216
2018-07-16 04:32:42 GMT 26.324312 52.062359 32,425 296 497 1088
2018-07-16 04:32:31 GMT 26.313446 52.087528 32,250 296 498 896
2018-07-16 04:32:19 GMT 26.301550 52.115128 32,075 296 498 768
2018-07-16 04:32:11 GMT 26.292709 52.135674 31,925 296 498 896
2018-07-16 04:32:08 GMT 26.290558 52.140697 31,900 296 498 896
2018-07-16 04:31:58 GMT 26.280396 52.164379 31,725 296 498 960
2018-07-16 04:31:44 GMT 26.266663 52.196461 31,475 296 499 1280
2018-07-16 04:31:36 GMT 26.259109 52.214130 31,300 296 500 1088
2018-07-16 04:31:17 GMT 26.239792 52.258904 31,125 296 500 768
2018-07-16 04:31:10 GMT 26.232977 52.274429 30,950 297 499 1024
2018-07-16 04:31:04 GMT 26.226837 52.288239 30,825 297 499 960
2018-07-16 04:30:53 GMT 26.215622 52.313267 30,650 297 499 1088
2018-07-16 04:30:41 GMT 26.202765 52.341984 30,425 297 499 1216
2018-07-16 04:30:28 GMT 26.189804 52.370945 30,150 297 502 1280
2018-07-16 04:30:05 GMT 26.166361 52.423218 29,825 297 500 704
2018-07-16 04:29:47 GMT 26.147552 52.465054 29,625 297 496 832
2018-07-16 04:29:25 GMT 26.124756 52.515892 29,300 297 495 832
2018-07-16 04:29:16 GMT 26.115509 52.536518 29,175 297 495 512
2018-07-16 04:29:05 GMT 26.104156 52.561546 29,075 297 492 704
2018-07-16 04:28:55 GMT 26.093834 52.584053 28,950 297 491 704
2018-07-16 04:28:44 GMT 26.082321 52.609016 28,800 298 490 960
2018-07-16 04:28:25 GMT 26.062180 52.651875 28,525 298 489 832
2018-07-16 04:28:21 GMT 26.058655 52.659336 28,475 298 488 896
2018-07-16 04:28:11 GMT 26.048447 52.681206 28,325 297 487 896
2018-07-16 04:27:58 GMT 26.035172 52.710953 28,125 295 485 1024
2018-07-16 04:27:48 GMT 26.026052 52.732895 27,975 295 485 1152
2018-07-16 04:27:39 GMT 26.017302 52.754551 27,800 295 485 832
2018-07-16 04:27:28 GMT 26.007477 52.778889 27,650 295 483 640
2018-07-16 04:27:17 GMT 25.997589 52.803299 27,425 295 479 640
2018-07-16 04:27:05 GMT 25.986374 52.830921 27,425 295 477 576
2018-07-16 04:26:54 GMT 25.976669 52.855019 27,275 295 475 1024
2018-07-16 04:26:45 GMT 25.967560 52.877506 27,075 295 474 1280
2018-07-16 04:26:17 GMT 25.942120 52.940315 26,525 295 474 1152
2018-07-16 04:26:13 GMT 25.938814 52.948502 26,450 295 474 1216
2018-07-16 04:25:44 GMT 25.913443 53.011253 26,075 295 468 704
2018-07-16 04:25:39 GMT 25.908648 53.023136 26,000 295 466 1216
2018-07-16 04:25:29 GMT 25.900223 53.043961 25,800 295 466 1152
2018-07-16 04:25:13 GMT 25.886215 53.078632 25,550 295 464 832
2018-07-16 04:24:47 GMT 25.862869 53.134857 25,075 295 459 1344
2018-07-16 04:24:37 GMT 25.853670 53.157139 24,850 294 458 1216
2018-07-16 04:24:26 GMT 25.845152 53.180115 24,650 291 457 1024
2018-07-16 04:24:18 GMT 25.838974 53.198910 24,500 289 455 1152
2018-07-16 04:24:14 GMT 25.836365 53.207409 24,425 289 455 1216
2018-07-16 04:24:08 GMT 25.831976 53.222736 24,275 288 454 1280
2018-07-16 04:24:03 GMT 25.828949 53.233593 24,175 288 454 1280
2018-07-16 04:23:56 GMT 25.825365 53.246380 24,050 288 452 1280
2018-07-16 04:23:53 GMT 25.823730 53.252209 24,000 288 452 1344
2018-07-16 04:23:45 GMT 25.818056 53.272602 23,800 288 452 1280
2018-07-16 04:23:41 GMT 25.816223 53.279163 23,750 288 452 1344
2018-07-16 04:23:36 GMT 25.812052 53.294212 23,600 288 451 1024
2018-07-16 04:23:33 GMT 25.811417 53.296509 23,600 288 451 960
2018-07-16 04:23:25 GMT 25.806000 53.315872 23,450 288 447 960
2018-07-16 04:23:22 GMT 25.804232 53.322247 23,400 288 448 960
2018-07-16 04:23:13 GMT 25.798553 53.342590 23,225 288 446 640
2018-07-16 04:23:10 GMT 25.796219 53.350983 23,225 288 446 640
2018-07-16 04:23:02 GMT 25.791988 53.365986 23,150 288 445 832
2018-07-16 04:22:51 GMT 25.785141 53.390400 22,975 288 445 896
2018-07-16 04:22:40 GMT 25.778673 53.413403 22,750 288 445 896
2018-07-16 04:22:35 GMT 25.775482 53.424732 22,725 288 445 640
2018-07-16 04:22:30 GMT 25.772552 53.435162 22,675 288 445 640
2018-07-16 04:22:20 GMT 25.765915 53.458862 22,600 288 442 448
2018-07-16 04:22:10 GMT 25.760239 53.478905 22,450 288 440 512
2018-07-16 04:22:04 GMT 25.756842 53.491188 22,450 288 440 512
2018-07-16 04:21:57 GMT 25.752411 53.507030 22,400 288 439 704
2018-07-16 04:21:49 GMT 25.747252 53.525440 22,250 288 438 704
2018-07-16 04:21:44 GMT 25.743994 53.537102 22,250 288 438 704
2018-07-16 04:21:36 GMT 25.739756 53.552181 22,125 288 437 960
2018-07-16 04:21:27 GMT 25.734077 53.572392 21,950 288 437 1216
2018-07-16 04:21:24 GMT 25.732727 53.577221 21,900 288 438 1216
2018-07-16 04:21:15 GMT 25.726639 53.598988 21,725 288 438 1024
2018-07-16 04:21:06 GMT 25.721695 53.616703 21,525 288 438 832
2018-07-16 04:20:56 GMT 25.714945 53.640694 21,450 288 437 896
2018-07-16 04:20:51 GMT 25.712198 53.650436 21,375 288 437 704
2018-07-16 04:20:44 GMT 25.708603 53.663280 21,250 288 435 832
2018-07-16 04:20:41 GMT 25.706726 53.669941 21,250 288 435 832
2018-07-16 04:20:33 GMT 25.702011 53.686626 21,150 288 435 832
2018-07-16 04:20:28 GMT 25.698257 53.699902 21,050 288 434 1088
2018-07-16 04:20:23 GMT 25.695740 53.708954 20,925 288 434 1088
2018-07-16 04:20:17 GMT 25.691940 53.722534 20,850 288 432 1216
2018-07-16 04:20:12 GMT 25.689331 53.731689 20,800 288 433 960
2018-07-16 04:20:01 GMT 25.682871 53.754547 20,600 288 432 1152
2018-07-16 04:19:51 GMT 25.676376 53.777363 20,400 288 432 1216
2018-07-16 04:19:39 GMT 25.670021 53.799633 20,200 288 430 960
2018-07-16 04:19:28 GMT 25.662827 53.824970 20,000 288 428 704
2018-07-16 04:19:25 GMT 25.661636 53.829144 20,000 288 428 704
2018-07-16 04:19:20 GMT 25.657684 53.842957 19,875 288 424 384
2018-07-16 04:19:16 GMT 25.655403 53.850937 19,875 288 424 384
2018-07-16 04:19:09 GMT 25.651382 53.865101 19,825 288 420 1088
2018-07-16 04:19:06 GMT 25.650375 53.868713 19,775 288 420 1152
2018-07-16 04:18:56 GMT 25.643579 53.892708 19,425 288 420 2048
2018-07-16 04:18:46 GMT 25.637714 53.913589 18,950 288 425 3264
2018-07-16 04:18:37 GMT 25.632500 53.932041 18,450 288 433 3328
2018-07-16 04:18:34 GMT 25.630590 53.938671 18,300 288 437 2304
2018-07-16 04:18:26 GMT 25.626028 53.954945 18,000 288 439 2112
2018-07-16 04:18:23 GMT 25.624540 53.960075 17,900 288 439 1984
2018-07-16 04:18:14 GMT 25.619326 53.978680 17,325 288 433 1216
2018-07-16 04:18:11 GMT 25.617743 53.984173 17,550 288 440 1920
2018-07-16 04:18:05 GMT 25.613113 54.000549 17,350 288 440 1408
2018-07-16 04:17:58 GMT 25.609409 54.013557 17,225 288 439 1152
2018-07-16 04:17:54 GMT 25.606850 54.022469 17,125 288 437 1408
2018-07-16 04:17:49 GMT 25.603592 54.033714 17,000 288 436 1536
2018-07-16 04:17:43 GMT 25.600006 54.046154 16,825 288 435 1408
2018-07-16 04:17:39 GMT 25.597137 54.055988 16,750 288 435 1280
2018-07-16 04:17:33 GMT 25.593475 54.068501 16,625 288 432 1216
2018-07-16 04:17:27 GMT 25.589905 54.080616 16,525 288 431 1152
2018-07-16 04:17:21 GMT 25.586884 54.091034 16,425 288 429 1088
2018-07-16 04:17:15 GMT 25.583313 54.103191 16,325 289 426 1152
2018-07-16 04:17:10 GMT 25.580063 54.114124 16,225 288 425 1088
2018-07-16 04:17:04 GMT 25.576405 54.126686 16,125 288 423 960
2018-07-16 04:17:01 GMT 25.573706 54.135910 16,050 288 421 832
2018-07-16 04:16:53 GMT 25.570026 54.148502 15,975 288 417 960
2018-07-16 04:16:49 GMT 25.567108 54.158375 15,875 288 416 1152
2018-07-16 04:16:38 GMT 25.560974 54.179333 15,625 288 413 1664
2018-07-16 04:16:34 GMT 25.557877 54.189804 15,475 288 412 1664
2018-07-16 04:16:28 GMT 25.554520 54.201355 15,325 288 411 1472
2018-07-16 04:16:23 GMT 25.551407 54.211933 15,200 288 409 1408
2018-07-16 04:16:18 GMT 25.548431 54.221954 15,075 288 408 1344
2018-07-16 04:16:06 GMT 25.542004 54.243855 14,850 288 405 1280
2018-07-16 04:15:58 GMT 25.536741 54.261734 14,650 288 402 1152
2018-07-16 04:15:55 GMT 25.535889 54.264729 14,625 288 401 1088
2018-07-16 04:15:44 GMT 25.529434 54.286652 14,400 288 397 1088
2018-07-16 04:15:35 GMT 25.523895 54.305523 14,200 288 393 1472
2018-07-16 04:15:24 GMT 25.517624 54.326885 13,950 288 389 1344
2018-07-16 04:15:12 GMT 25.511789 54.346722 13,675 289 387 1536
2018-07-16 04:15:03 GMT 25.505924 54.366673 13,425 289 384 1408
2018-07-16 04:14:52 GMT 25.499817 54.387409 13,150 288 381 1472
2018-07-16 04:14:44 GMT 25.495514 54.402058 12,975 288 379 1472
2018-07-16 04:14:41 GMT 25.494003 54.407196 12,900 289 378 1472
2018-07-16 04:14:32 GMT 25.489958 54.420982 12,200 289 374 1600
2018-07-16 04:14:28 GMT 25.487211 54.430206 12,575 289 375 1536
2018-07-16 04:14:22 GMT 25.484070 54.440868 12,425 289 374 1600
2018-07-16 04:14:19 GMT 25.482330 54.446667 12,325 288 372 1728
2018-07-16 04:14:12 GMT 25.478785 54.458710 12,150 288 372 1664
2018-07-16 04:14:08 GMT 25.476883 54.465229 12,025 289 369 1600
2018-07-16 04:14:01 GMT 25.473083 54.478046 11,850 289 370 1664
2018-07-16 04:13:58 GMT 25.471390 54.483692 11,775 289 369 1600
2018-07-16 04:13:51 GMT 25.467407 54.497021 11,575 289 368 1344
2018-07-16 04:13:48 GMT 25.465471 54.503433 11,500 289 367 1408
2018-07-16 04:13:40 GMT 25.461746 54.515820 11,325 289 365 1664
2018-07-16 04:13:37 GMT 25.459652 54.522919 11,200 289 364 1728
2018-07-16 04:13:28 GMT 25.454903 54.538776 10,950 289 363 1792
2018-07-16 04:13:25 GMT 25.454159 54.541161 10,900 289 363 1792
2018-07-16 04:13:20 GMT 25.451134 54.551369 10,750 289 363 1664
2018-07-16 04:13:16 GMT 25.448479 54.560074 10,600 289 362 1536
2018-07-16 04:13:08 GMT 25.444702 54.572754 10,425 289 360 1664
2018-07-16 04:13:05 GMT 25.442780 54.579315 10,325 289 360 1728
2018-07-16 04:12:58 GMT 25.439255 54.591267 10,125 288 359 1600
2018-07-16 04:12:53 GMT 25.437469 54.597424 10,050 288 358 1472
2018-07-16 04:12:49 GMT 25.434793 54.606766 9,900 288 357 1536
2018-07-16 04:12:46 GMT 25.433853 54.609985 9,850 288 357 1664
2018-07-16 04:12:43 GMT 25.431793 54.617207 9,750 288 356 1664
2018-07-16 04:12:38 GMT 25.429113 54.626511 9,575 288 356 1728
2018-07-16 04:12:35 GMT 25.428370 54.629051 9,550 288 356 1728
2018-07-16 04:12:32 GMT 25.426319 54.636097 9,425 288 355 1792
2018-07-16 04:12:22 GMT 25.421310 54.653473 9,125 288 355 1728
2018-07-16 04:12:15 GMT 25.417786 54.665630 8,900 288 355 1792
2018-07-16 04:12:09 GMT 25.415176 54.674530 8,750 288 355 1792
2018-07-16 04:12:05 GMT 25.412704 54.682922 8,625 288 355 1728
2018-07-16 04:12:01 GMT 25.410398 54.690823 8,475 288 355 1792
2018-07-16 04:11:56 GMT 25.408072 54.698700 8,350 288 355 1664
2018-07-16 04:11:50 GMT 25.404999 54.709167 8,175 288 354 1600
2018-07-16 04:11:44 GMT 25.402300 54.718288 8,025 288 354 1600
2018-07-16 04:11:38 GMT 25.399506 54.727928 7,875 288 354 1728
2018-07-16 04:11:27 GMT 25.394060 54.746635 7,575 288 353 1792
2018-07-16 04:11:18 GMT 25.389032 54.764877 7,275 287 353 1536
2018-07-16 04:11:07 GMT 25.384050 54.783379 7,050 287 351 1216
2018-07-16 04:10:55 GMT 25.379105 54.801838 6,900 287 345 576
2018-07-16 04:10:48 GMT 25.376038 54.813282 6,825 287 340 512
2018-07-16 04:10:45 GMT 25.374275 54.819756 6,800 287 337 512
2018-07-16 04:10:40 GMT 25.371689 54.829205 6,750 287 333 448
2018-07-16 04:10:35 GMT 25.369619 54.836857 6,700 287 329 448
2018-07-16 04:10:23 GMT 25.364824 54.854374 6,650 287 322 448
2018-07-16 04:10:18 GMT 25.362682 54.861938 6,550 288 313 960
2018-07-16 04:10:12 GMT 25.360077 54.870907 6,550 288 313 960
2018-07-16 04:10:06 GMT 25.357424 54.879974 6,325 289 306 896
2018-07-16 04:10:03 GMT 25.355421 54.886658 6,300 289 305 896
2018-07-16 04:09:55 GMT 25.352280 54.896851 6,200 287 300 768
2018-07-16 04:09:52 GMT 25.350719 54.902672 6,150 280 298 576
2018-07-16 04:09:46 GMT 25.349230 54.910912 6,100 280 297 576
2018-07-16 04:09:40 GMT 25.348618 54.918468 6,050 273 294 640
2018-07-16 04:09:33 GMT 25.348251 54.928635 5,950 272 290 640
2018-07-16 04:09:24 GMT 25.347794 54.942627 5,825 273 283 1024
2018-07-16 04:09:20 GMT 25.347610 54.949646 5,725 272 279 1216
2018-07-16 04:09:14 GMT 25.347321 54.957966 5,600 272 277 1280
2018-07-16 04:09:09 GMT 25.347136 54.965530 5,500 272 275 1152
2018-07-16 04:09:02 GMT 25.346903 54.973618 5,375 272 273 896
2018-07-16 04:08:57 GMT 25.346741 54.980621 5,300 272 273 960
2018-07-16 04:08:46 GMT 25.346329 54.997608 5,125 272 273 896
2018-07-16 04:08:40 GMT 25.346157 55.004711 5,050 272 273 960
2018-07-16 04:08:14 GMT 25.345505 55.041248 4,575 272 273 960
2018-07-16 04:07:55 GMT 25.345047 55.067242 4,575 272 275 64
2018-07-16 04:07:45 GMT 25.344854 55.080994 4,575 271 276 64
2018-07-16 04:07:35 GMT 25.344681 55.095875 4,550 271 277 128
2018-07-16 04:07:26 GMT 25.344574 55.107578 4,525 271 277 256
2018-07-16 04:07:14 GMT 25.344406 55.125072 4,375 271 275 1088
2018-07-16 04:07:05 GMT 25.344360 55.138092 4,175 271 271 1152
2018-07-16 04:06:54 GMT 25.344315 55.152180 4,000 271 267 1088
2018-07-16 04:06:44 GMT 25.344177 55.166828 3,800 272 264 1088
2018-07-16 04:06:39 GMT 25.344040 55.173443 3,700 273 262 1088
2018-07-16 04:06:31 GMT 25.343719 55.183056 3,575 273 262 1088
2018-07-16 04:06:22 GMT 25.343224 55.195621 3,400 273 262 960
2018-07-16 04:06:11 GMT 25.341084 55.210548 3,175 288 259 1664
2018-07-16 04:06:01 GMT 25.335754 55.222370 2,925 302 257 1472
2018-07-16 04:05:50 GMT 25.328979 55.234375 2,675 303 253 1216
2018-07-16 04:05:38 GMT 25.321716 55.247082 2,525 303 243 704
2018-07-16 04:05:32 GMT 25.318176 55.253246 2,475 303 238 704
2018-07-16 04:05:27 GMT 25.315155 55.258533 2,425 303 233 576
2018-07-16 04:05:24 GMT 25.313059 55.262215 2,400 303 229 384
2018-07-16 04:05:17 GMT 25.309662 55.268147 2,350 303 222 384
2018-07-16 04:05:14 GMT 25.307285 55.272270 2,325 303 217 384
2018-07-16 04:05:07 GMT 25.303940 55.278118 2,275 302 212 512
2018-07-16 04:05:02 GMT 25.301746 55.281960 2,225 302 208 576
2018-07-16 04:04:56 GMT 25.298674 55.287502 2,125 302 200 512
2018-07-16 04:04:53 GMT 25.296432 55.291546 2,125 302 198 512
2018-07-16 04:04:46 GMT 25.293732 55.296478 2,075 302 192 512
2018-07-16 04:04:42 GMT 25.291552 55.300510 2,050 301 188 384
2018-07-16 04:04:35 GMT 25.288879 55.305378 2,000 302 182 384
2018-07-16 04:04:30 GMT 25.286757 55.309219 1,975 301 178 448
2018-07-16 04:04:25 GMT 25.284485 55.313519 1,900 301 173 576
2018-07-16 04:04:21 GMT 25.282379 55.317333 1,850 301 169 896
2018-07-16 04:04:14 GMT 25.280146 55.321396 1,750 302 166 1344
2018-07-16 04:04:03 GMT 25.275833 55.329388 1,475 301 168 1536
2018-07-16 04:03:53 GMT 25.271721 55.337151 1,225 301 169 1344
2018-07-16 04:03:42 GMT 25.267502 55.345154 975 301 170 1408
2018-07-16 04:03:31 GMT 25.263062 55.353317 750 302 170 1344
2018-07-16 04:03:17 GMT 25.257431 55.363464 575 302 152 0
2018-07-16 04:03:09 GMT 25.254456 55.368805 575 302 131 0
2018-07-16 04:02:59 GMT 25.251329 55.374409 600 302 109 0
2018-07-16 04:02:48 GMT 25.249084 55.378387 0 300 74
2018-07-16 04:02:38 GMT 25.247700 55.380875 0 300 34
2018-07-16 04:02:27 GMT 25.247280 55.381680 0 306 8
2018-07-16 04:02:17 GMT 25.247177 55.381927 0 329 5
2018-07-16 04:02:06 GMT 25.247040 55.382156 0 5 7
2018-07-16 04:01:55 GMT 25.246769 55.382172 0 30 6
2018-07-16 04:01:45 GMT 25.246536 55.382015 0 30 6
2018-07-16 04:01:34 GMT 25.246330 55.381878 0 30 6
2018-07-16 04:01:24 GMT 25.246136 55.381763 0 30 4
2018-07-16 04:01:11 GMT 25.246044 55.381699 0 30 0
2018-07-16 04:00:59 GMT 25.246000 55.381691 0 30 0
2018-07-16 04:00:49 GMT 25.245964 55.381680 0 30 0
2018-07-16 04:00:39 GMT 25.245941 55.381672 0 30 0
2018-07-16 04:00:30 GMT 25.245941 55.381680 0 28 0
2018-07-16 04:00:19 GMT 25.245941 55.381687 0 28 0
2018-07-16 04:00:09 GMT 25.245930 55.381687 0 28 0
2018-07-16 03:59:59 GMT 25.245802 55.381535 0 14 5
2018-07-16 03:59:48 GMT 25.245621 55.381329 0 331 6
2018-07-16 03:59:37 GMT 25.245325 55.381485 0 303 9
2018-07-16 03:59:26 GMT 25.245117 55.381878 0 320 9
2018-07-16 03:59:16 GMT 25.244820 55.382206 0 14 9
2018-07-16 03:59:06 GMT 25.244394 55.382042 0 30 12
2018-07-16 03:58:55 GMT 25.243835 55.381649 0 30 13
2018-07-16 03:58:42 GMT 25.243309 55.381290 0 30 11
2018-07-16 03:58:34 GMT 25.242987 55.381069 0 30 9
2018-07-16 03:58:23 GMT 25.242661 55.380848 0 33 8
2018-07-16 03:58:13 GMT 25.242382 55.380680 0 53 7
2018-07-16 03:58:02 GMT 25.242125 55.380398 0 98 10
2018-07-16 03:57:51 GMT 25.242241 55.379864 0 120 13
2018-07-16 03:57:37 GMT 25.242729 55.378983 0 120 17
2018-07-16 03:57:26 GMT 25.243160 55.378201 0 120 17
2018-07-16 03:57:19 GMT 25.243435 55.377705 0 120 17
2018-07-16 03:57:09 GMT 25.243858 55.376965 0 120 16
2018-07-16 03:56:58 GMT 25.244282 55.376194 0 120 16
2018-07-16 03:56:44 GMT 25.244778 55.375317 0 120 15
2018-07-16 03:56:35 GMT 25.245106 55.374729 0 120 15
2018-07-16 03:56:25 GMT 25.245441 55.374111 0 120 14
2018-07-16 03:56:04 GMT 25.246090 55.372936 0 120 12
2018-07-16 03:55:54 GMT 25.246387 55.372402 0 120 11
2018-07-16 03:55:33 GMT 25.246880 55.371502 0 120 10
2018-07-16 03:55:21 GMT 25.247152 55.371017 0 120 8
2018-07-16 03:54:46 GMT 25.247578 55.370293 0 106 6
2018-07-16 03:54:37 GMT 25.247700 55.370045 0 84 8
2018-07-16 03:54:28 GMT 25.247738 55.369671 0 42 10
2018-07-16 03:54:15 GMT 25.247280 55.369293 0 30 10
2018-07-16 03:54:07 GMT 25.247002 55.369110 0 30 9
2018-07-16 03:53:57 GMT 25.246719 55.368931 0 30 7
2018-07-16 03:53:46 GMT 25.246466 55.368763 0 30 5
2018-07-16 03:53:33 GMT 25.246304 55.368656 0 30 0
2018-07-16 03:53:23 GMT 25.246262 55.368626 0 30 0
2018-07-16 03:53:13 GMT 25.246267 55.368618 0 30 0
2018-07-16 03:52:38 GMT 25.246262 55.368626 0 30 0
2018-07-16 03:51:43 GMT 25.246267 55.368633 0 30 0
2018-07-16 03:51:33 GMT 25.246256 55.368633 0 30 0
2018-07-16 03:51:29 GMT 25.246256 55.368645 0 30 0
2018-07-16 03:51:18 GMT 25.246262 55.368641 0 30 0
2018-07-16 03:51:04 GMT 25.246256 55.368645 0 30 0
2018-07-16 03:50:43 GMT 25.246256 55.368656 0 30 0
2018-07-16 03:50:28 GMT 25.246250 55.368664 0 30 0
2018-07-16 03:50:04 GMT 25.246244 55.368656 0 30 0
2018-07-16 03:49:29 GMT 25.246233 55.368645 0 30 0
2018-07-16 03:49:21 GMT 25.246239 55.368652 0 30 0
2018-07-16 03:49:10 GMT 25.246244 55.368645 0 30 0
2018-07-16 03:49:00 GMT 25.246267 55.368633 0 30 2
2018-07-16 03:48:49 GMT 25.246387 55.368679 0 30 3
2018-07-16 03:48:39 GMT 25.246502 55.368736 0 30 3
2018-07-16 03:48:28 GMT 25.246582 55.368828 0 36 3
2018-07-16 03:48:14 GMT 25.246582 55.369034 0 64 3
2018-07-16 03:48:06 GMT 25.246559 55.369137 0 75 3
2018-07-16 03:47:38 GMT 25.246284 55.369465 0 123 4

Making use of Plane Finder data

You are free to use the raw flight data, aircraft information and images provided in this report for your own purposes provided the data is correctly attributed to Plane Finder. We ask that you please credit Plane Finder and link to planefinder.net in close proximity to the content.

Optionally one of the following logos (no smaller then 150x24px) can be used and must link to planefinder.net

Embedding the Plane Finder map

You are welcome to embed the Plane Finder playback map on your website to offer visitors a more interactive experience. We suggest using the following HTML code:

<iframe src="//planefinder.net/data/report/EK39-A6-EUQ-7700-squawk-2018-07-16/map" width="800" height="600" seamless="seamless"></iframe>

Where our data comes from

Plane Finder has a global network of data feeds and antenna radars that receive data broadcast directly from aircraft. The primary technologies used are ADS-B and MLAT. We also show feeds from the FAA and a FLARM glider feed.

Click here to find out more about the Plane Finder network.

How we collect our data